<?xml version="1.0" encoding="UTF-8" standalone="no" ?>
<gpx xmlns="http://www.topografix.com/GPX/1/1" xmlns:xsi="http://www.w3.org/2001/XMLSchema-instance" xsi:schemaLocation="http://www.topografix.com/GPX/1/1 http://www.topografix.com/GPX/1/1/gpx.xsd" version="1.1" creator="VisuGPX - https://www.visugpx.com">
  <metadata>
    <name>Le sentier des hauts de Gaillac</name>
    <desc><![CDATA[Belle randonnée dans les vignobles de Gaillac]]></desc>
  </metadata>
  <trk>
    <name><![CDATA[13 déc. 2012 09:48:29]]></name>
    <cmt><![CDATA[13 déc. 2012 09:48:29]]></cmt>
    <trkseg>
      <trkpt lat="43.90411" lon="1.89567">
        <ele>102</ele>
        <time>2012-12-13T08:48:33Z</time>
      </trkpt>
      <trkpt lat="43.9042" lon="1.89569">
        <ele>104</ele>
        <time>2012-12-13T08:48:37Z</time>
      </trkpt>
      <trkpt lat="43.90431" lon="1.89569">
        <ele>107</ele>
        <time>2012-12-13T08:48:44Z</time>
      </trkpt>
      <trkpt lat="43.9044" lon="1.89574">
        <ele>111</ele>
        <time>2012-12-13T08:48:50Z</time>
      </trkpt>
      <trkpt lat="43.9046" lon="1.89577">
        <ele>122</ele>
        <time>2012-12-13T08:49:06Z</time>
      </trkpt>
      <trkpt lat="43.90466" lon="1.89587">
        <ele>123</ele>
        <time>2012-12-13T08:49:15Z</time>
      </trkpt>
      <trkpt lat="43.90472" lon="1.89581">
        <ele>131</ele>
        <time>2012-12-13T08:50:11Z</time>
      </trkpt>
      <trkpt lat="43.90476" lon="1.89567">
        <ele>129</ele>
        <time>2012-12-13T08:50:21Z</time>
      </trkpt>
      <trkpt lat="43.90477" lon="1.89554">
        <ele>125</ele>
        <time>2012-12-13T08:50:32Z</time>
      </trkpt>
      <trkpt lat="43.90473" lon="1.89542">
        <ele>123</ele>
        <time>2012-12-13T08:50:40Z</time>
      </trkpt>
      <trkpt lat="43.90468" lon="1.89532">
        <ele>122</ele>
        <time>2012-12-13T08:50:45Z</time>
      </trkpt>
      <trkpt lat="43.90472" lon="1.89494">
        <ele>121</ele>
        <time>2012-12-13T08:51:02Z</time>
      </trkpt>
      <trkpt lat="43.90476" lon="1.89483">
        <ele>120</ele>
        <time>2012-12-13T08:51:09Z</time>
      </trkpt>
      <trkpt lat="43.90481" lon="1.89472">
        <ele>120</ele>
        <time>2012-12-13T08:51:16Z</time>
      </trkpt>
      <trkpt lat="43.90483" lon="1.89459">
        <ele>118</ele>
        <time>2012-12-13T08:51:24Z</time>
      </trkpt>
      <trkpt lat="43.90481" lon="1.89445">
        <ele>120</ele>
        <time>2012-12-13T08:51:35Z</time>
      </trkpt>
      <trkpt lat="43.90477" lon="1.89433">
        <ele>121</ele>
        <time>2012-12-13T08:51:41Z</time>
      </trkpt>
      <trkpt lat="43.90473" lon="1.89421">
        <ele>120</ele>
        <time>2012-12-13T08:51:48Z</time>
      </trkpt>
      <trkpt lat="43.90474" lon="1.89408">
        <ele>119</ele>
        <time>2012-12-13T08:52:00Z</time>
      </trkpt>
      <trkpt lat="43.90469" lon="1.89396">
        <ele>119</ele>
        <time>2012-12-13T08:52:08Z</time>
      </trkpt>
      <trkpt lat="43.90469" lon="1.89384">
        <ele>121</ele>
        <time>2012-12-13T08:52:14Z</time>
      </trkpt>
      <trkpt lat="43.9047" lon="1.8937">
        <ele>129</ele>
        <time>2012-12-13T08:52:23Z</time>
      </trkpt>
      <trkpt lat="43.90476" lon="1.89358">
        <ele>133</ele>
        <time>2012-12-13T08:52:28Z</time>
      </trkpt>
      <trkpt lat="43.90481" lon="1.89347">
        <ele>137</ele>
        <time>2012-12-13T08:52:35Z</time>
      </trkpt>
      <trkpt lat="43.90486" lon="1.89336">
        <ele>139</ele>
        <time>2012-12-13T08:52:44Z</time>
      </trkpt>
      <trkpt lat="43.90486" lon="1.89323">
        <ele>135</ele>
        <time>2012-12-13T08:52:57Z</time>
      </trkpt>
      <trkpt lat="43.90492" lon="1.89314">
        <ele>135</ele>
        <time>2012-12-13T08:53:11Z</time>
      </trkpt>
      <trkpt lat="43.90494" lon="1.89301">
        <ele>136</ele>
        <time>2012-12-13T08:53:19Z</time>
      </trkpt>
      <trkpt lat="43.90496" lon="1.89289">
        <ele>138</ele>
        <time>2012-12-13T08:53:31Z</time>
      </trkpt>
      <trkpt lat="43.90502" lon="1.89289">
        <ele>138</ele>
        <time>2012-12-13T08:53:45Z</time>
      </trkpt>
      <trkpt lat="43.90508" lon="1.89279">
        <ele>139</ele>
        <time>2012-12-13T08:53:57Z</time>
      </trkpt>
      <trkpt lat="43.90516" lon="1.89271">
        <ele>140</ele>
        <time>2012-12-13T08:54:08Z</time>
      </trkpt>
      <trkpt lat="43.90523" lon="1.8928">
        <ele>140</ele>
        <time>2012-12-13T08:54:16Z</time>
      </trkpt>
      <trkpt lat="43.90528" lon="1.89291">
        <ele>141</ele>
        <time>2012-12-13T08:54:25Z</time>
      </trkpt>
      <trkpt lat="43.90533" lon="1.89302">
        <ele>143</ele>
        <time>2012-12-13T08:54:32Z</time>
      </trkpt>
      <trkpt lat="43.90539" lon="1.89313">
        <ele>142</ele>
        <time>2012-12-13T08:54:39Z</time>
      </trkpt>
      <trkpt lat="43.90546" lon="1.89322">
        <ele>141</ele>
        <time>2012-12-13T08:54:47Z</time>
      </trkpt>
      <trkpt lat="43.90549" lon="1.89327">
        <ele>141</ele>
        <time>2012-12-13T08:54:51Z</time>
      </trkpt>
      <trkpt lat="43.90553" lon="1.89333">
        <ele>142</ele>
        <time>2012-12-13T08:54:55Z</time>
      </trkpt>
      <trkpt lat="43.90556" lon="1.89338">
        <ele>142</ele>
        <time>2012-12-13T08:54:59Z</time>
      </trkpt>
      <trkpt lat="43.9056" lon="1.89343">
        <ele>142</ele>
        <time>2012-12-13T08:55:03Z</time>
      </trkpt>
      <trkpt lat="43.90567" lon="1.8935">
        <ele>143</ele>
        <time>2012-12-13T08:55:09Z</time>
      </trkpt>
      <trkpt lat="43.90571" lon="1.89355">
        <ele>143</ele>
        <time>2012-12-13T08:55:13Z</time>
      </trkpt>
      <trkpt lat="43.90574" lon="1.8936">
        <ele>144</ele>
        <time>2012-12-13T08:55:17Z</time>
      </trkpt>
      <trkpt lat="43.90578" lon="1.89365">
        <ele>143</ele>
        <time>2012-12-13T08:55:22Z</time>
      </trkpt>
      <trkpt lat="43.90581" lon="1.89371">
        <ele>140</ele>
        <time>2012-12-13T08:55:27Z</time>
      </trkpt>
      <trkpt lat="43.90585" lon="1.89377">
        <ele>139</ele>
        <time>2012-12-13T08:55:31Z</time>
      </trkpt>
      <trkpt lat="43.90589" lon="1.89381">
        <ele>140</ele>
        <time>2012-12-13T08:55:35Z</time>
      </trkpt>
      <trkpt lat="43.90594" lon="1.89386">
        <ele>141</ele>
        <time>2012-12-13T08:55:40Z</time>
      </trkpt>
      <trkpt lat="43.90597" lon="1.89391">
        <ele>142</ele>
        <time>2012-12-13T08:55:44Z</time>
      </trkpt>
      <trkpt lat="43.90606" lon="1.89385">
        <ele>140</ele>
        <time>2012-12-13T08:55:52Z</time>
      </trkpt>
      <trkpt lat="43.90611" lon="1.89385">
        <ele>140</ele>
        <time>2012-12-13T08:55:58Z</time>
      </trkpt>
      <trkpt lat="43.90619" lon="1.89389">
        <ele>140</ele>
        <time>2012-12-13T08:56:09Z</time>
      </trkpt>
      <trkpt lat="43.90624" lon="1.89392">
        <ele>140</ele>
        <time>2012-12-13T08:56:13Z</time>
      </trkpt>
      <trkpt lat="43.90629" lon="1.89393">
        <ele>141</ele>
        <time>2012-12-13T08:56:18Z</time>
      </trkpt>
      <trkpt lat="43.90634" lon="1.8939">
        <ele>141</ele>
        <time>2012-12-13T08:56:22Z</time>
      </trkpt>
      <trkpt lat="43.90635" lon="1.89377">
        <ele>142</ele>
        <time>2012-12-13T08:56:31Z</time>
      </trkpt>
      <trkpt lat="43.90638" lon="1.89365">
        <ele>140</ele>
        <time>2012-12-13T08:56:39Z</time>
      </trkpt>
      <trkpt lat="43.90638" lon="1.89352">
        <ele>140</ele>
        <time>2012-12-13T08:56:47Z</time>
      </trkpt>
      <trkpt lat="43.9064" lon="1.89338">
        <ele>143</ele>
        <time>2012-12-13T08:56:55Z</time>
      </trkpt>
      <trkpt lat="43.90642" lon="1.89325">
        <ele>144</ele>
        <time>2012-12-13T08:57:04Z</time>
      </trkpt>
      <trkpt lat="43.90642" lon="1.89311">
        <ele>144</ele>
        <time>2012-12-13T08:57:12Z</time>
      </trkpt>
      <trkpt lat="43.90645" lon="1.89298">
        <ele>144</ele>
        <time>2012-12-13T08:57:20Z</time>
      </trkpt>
      <trkpt lat="43.90646" lon="1.89292">
        <ele>144</ele>
        <time>2012-12-13T08:57:24Z</time>
      </trkpt>
      <trkpt lat="43.90649" lon="1.89278">
        <ele>145</ele>
        <time>2012-12-13T08:57:33Z</time>
      </trkpt>
      <trkpt lat="43.90649" lon="1.89268">
        <ele>144</ele>
        <time>2012-12-13T08:57:39Z</time>
      </trkpt>
      <trkpt lat="43.9065" lon="1.89264">
        <ele>142</ele>
        <time>2012-12-13T08:57:54Z</time>
      </trkpt>
      <trkpt lat="43.90651" lon="1.8926">
        <ele>143</ele>
        <time>2012-12-13T08:58:06Z</time>
      </trkpt>
      <trkpt lat="43.90652" lon="1.89256">
        <ele>142</ele>
        <time>2012-12-13T08:58:30Z</time>
      </trkpt>
      <trkpt lat="43.90654" lon="1.89243">
        <ele>141</ele>
        <time>2012-12-13T08:58:44Z</time>
      </trkpt>
      <trkpt lat="43.90656" lon="1.8923">
        <ele>140</ele>
        <time>2012-12-13T08:58:54Z</time>
      </trkpt>
      <trkpt lat="43.90658" lon="1.89216">
        <ele>141</ele>
        <time>2012-12-13T08:59:01Z</time>
      </trkpt>
      <trkpt lat="43.9066" lon="1.89211">
        <ele>141</ele>
        <time>2012-12-13T08:59:04Z</time>
      </trkpt>
      <trkpt lat="43.90663" lon="1.89197">
        <ele>141</ele>
        <time>2012-12-13T08:59:12Z</time>
      </trkpt>
      <trkpt lat="43.90666" lon="1.89185">
        <ele>140</ele>
        <time>2012-12-13T08:59:20Z</time>
      </trkpt>
      <trkpt lat="43.90669" lon="1.89172">
        <ele>140</ele>
        <time>2012-12-13T08:59:29Z</time>
      </trkpt>
      <trkpt lat="43.9067" lon="1.89159">
        <ele>142</ele>
        <time>2012-12-13T08:59:37Z</time>
      </trkpt>
      <trkpt lat="43.90668" lon="1.89146">
        <ele>142</ele>
        <time>2012-12-13T08:59:43Z</time>
      </trkpt>
      <trkpt lat="43.90669" lon="1.89133">
        <ele>142</ele>
        <time>2012-12-13T08:59:51Z</time>
      </trkpt>
      <trkpt lat="43.90669" lon="1.89121">
        <ele>142</ele>
        <time>2012-12-13T08:59:56Z</time>
      </trkpt>
      <trkpt lat="43.90667" lon="1.89111">
        <ele>142</ele>
        <time>2012-12-13T09:00:04Z</time>
      </trkpt>
      <trkpt lat="43.90667" lon="1.89101">
        <ele>141</ele>
        <time>2012-12-13T09:00:10Z</time>
      </trkpt>
      <trkpt lat="43.90667" lon="1.89092">
        <ele>140</ele>
        <time>2012-12-13T09:00:14Z</time>
      </trkpt>
      <trkpt lat="43.90667" lon="1.89084">
        <ele>139</ele>
        <time>2012-12-13T09:00:18Z</time>
      </trkpt>
      <trkpt lat="43.90668" lon="1.89077">
        <ele>138</ele>
        <time>2012-12-13T09:00:22Z</time>
      </trkpt>
      <trkpt lat="43.90668" lon="1.8907">
        <ele>138</ele>
        <time>2012-12-13T09:00:26Z</time>
      </trkpt>
      <trkpt lat="43.90669" lon="1.89056">
        <ele>138</ele>
        <time>2012-12-13T09:00:33Z</time>
      </trkpt>
      <trkpt lat="43.90668" lon="1.89042">
        <ele>141</ele>
        <time>2012-12-13T09:00:41Z</time>
      </trkpt>
      <trkpt lat="43.90669" lon="1.89029">
        <ele>141</ele>
        <time>2012-12-13T09:00:47Z</time>
      </trkpt>
      <trkpt lat="43.90667" lon="1.89022">
        <ele>141</ele>
        <time>2012-12-13T09:00:52Z</time>
      </trkpt>
      <trkpt lat="43.90668" lon="1.89016">
        <ele>141</ele>
        <time>2012-12-13T09:00:57Z</time>
      </trkpt>
      <trkpt lat="43.90669" lon="1.89005">
        <ele>139</ele>
        <time>2012-12-13T09:01:04Z</time>
      </trkpt>
      <trkpt lat="43.90669" lon="1.88998">
        <ele>138</ele>
        <time>2012-12-13T09:01:08Z</time>
      </trkpt>
      <trkpt lat="43.90668" lon="1.88986">
        <ele>139</ele>
        <time>2012-12-13T09:01:16Z</time>
      </trkpt>
      <trkpt lat="43.90667" lon="1.88979">
        <ele>139</ele>
        <time>2012-12-13T09:01:20Z</time>
      </trkpt>
      <trkpt lat="43.90667" lon="1.88971">
        <ele>139</ele>
        <time>2012-12-13T09:01:24Z</time>
      </trkpt>
      <trkpt lat="43.90666" lon="1.88962">
        <ele>139</ele>
        <time>2012-12-13T09:01:28Z</time>
      </trkpt>
      <trkpt lat="43.90665" lon="1.88949">
        <ele>139</ele>
        <time>2012-12-13T09:01:35Z</time>
      </trkpt>
      <trkpt lat="43.90664" lon="1.88935">
        <ele>139</ele>
        <time>2012-12-13T09:01:43Z</time>
      </trkpt>
      <trkpt lat="43.90666" lon="1.88922">
        <ele>139</ele>
        <time>2012-12-13T09:01:52Z</time>
      </trkpt>
      <trkpt lat="43.90667" lon="1.88911">
        <ele>139</ele>
        <time>2012-12-13T09:01:58Z</time>
      </trkpt>
      <trkpt lat="43.90666" lon="1.88898">
        <ele>141</ele>
        <time>2012-12-13T09:02:08Z</time>
      </trkpt>
      <trkpt lat="43.90667" lon="1.88891">
        <ele>142</ele>
        <time>2012-12-13T09:02:12Z</time>
      </trkpt>
      <trkpt lat="43.90666" lon="1.88885">
        <ele>142</ele>
        <time>2012-12-13T09:02:16Z</time>
      </trkpt>
      <trkpt lat="43.90668" lon="1.88876">
        <ele>142</ele>
        <time>2012-12-13T09:02:22Z</time>
      </trkpt>
      <trkpt lat="43.90668" lon="1.88869">
        <ele>142</ele>
        <time>2012-12-13T09:02:25Z</time>
      </trkpt>
      <trkpt lat="43.90669" lon="1.88854">
        <ele>144</ele>
        <time>2012-12-13T09:02:33Z</time>
      </trkpt>
      <trkpt lat="43.90666" lon="1.88843">
        <ele>144</ele>
        <time>2012-12-13T09:02:39Z</time>
      </trkpt>
      <trkpt lat="43.90667" lon="1.88829">
        <ele>142</ele>
        <time>2012-12-13T09:02:48Z</time>
      </trkpt>
      <trkpt lat="43.90667" lon="1.88823">
        <ele>141</ele>
        <time>2012-12-13T09:02:52Z</time>
      </trkpt>
      <trkpt lat="43.90668" lon="1.88809">
        <ele>141</ele>
        <time>2012-12-13T09:03:01Z</time>
      </trkpt>
      <trkpt lat="43.90669" lon="1.88802">
        <ele>141</ele>
        <time>2012-12-13T09:03:04Z</time>
      </trkpt>
      <trkpt lat="43.9067" lon="1.88794">
        <ele>141</ele>
        <time>2012-12-13T09:03:08Z</time>
      </trkpt>
      <trkpt lat="43.90672" lon="1.88788">
        <ele>143</ele>
        <time>2012-12-13T09:03:12Z</time>
      </trkpt>
      <trkpt lat="43.90677" lon="1.88782">
        <ele>143</ele>
        <time>2012-12-13T09:03:17Z</time>
      </trkpt>
      <trkpt lat="43.90682" lon="1.88779">
        <ele>142</ele>
        <time>2012-12-13T09:03:21Z</time>
      </trkpt>
      <trkpt lat="43.90686" lon="1.88776">
        <ele>142</ele>
        <time>2012-12-13T09:03:25Z</time>
      </trkpt>
      <trkpt lat="43.90691" lon="1.88773">
        <ele>141</ele>
        <time>2012-12-13T09:03:30Z</time>
      </trkpt>
      <trkpt lat="43.90698" lon="1.88763">
        <ele>142</ele>
        <time>2012-12-13T09:03:37Z</time>
      </trkpt>
      <trkpt lat="43.90704" lon="1.88753">
        <ele>142</ele>
        <time>2012-12-13T09:03:45Z</time>
      </trkpt>
      <trkpt lat="43.90708" lon="1.88741">
        <ele>142</ele>
        <time>2012-12-13T09:03:54Z</time>
      </trkpt>
      <trkpt lat="43.90715" lon="1.88733">
        <ele>141</ele>
        <time>2012-12-13T09:04:00Z</time>
      </trkpt>
      <trkpt lat="43.90723" lon="1.88723">
        <ele>141</ele>
        <time>2012-12-13T09:04:08Z</time>
      </trkpt>
      <trkpt lat="43.90729" lon="1.88712">
        <ele>141</ele>
        <time>2012-12-13T09:04:18Z</time>
      </trkpt>
      <trkpt lat="43.90734" lon="1.88701">
        <ele>141</ele>
        <time>2012-12-13T09:04:27Z</time>
      </trkpt>
      <trkpt lat="43.9074" lon="1.88689">
        <ele>141</ele>
        <time>2012-12-13T09:04:35Z</time>
      </trkpt>
      <trkpt lat="43.90747" lon="1.8868">
        <ele>140</ele>
        <time>2012-12-13T09:04:43Z</time>
      </trkpt>
      <trkpt lat="43.90753" lon="1.8867">
        <ele>140</ele>
        <time>2012-12-13T09:04:50Z</time>
      </trkpt>
      <trkpt lat="43.90761" lon="1.88661">
        <ele>140</ele>
        <time>2012-12-13T09:04:57Z</time>
      </trkpt>
      <trkpt lat="43.90767" lon="1.88651">
        <ele>140</ele>
        <time>2012-12-13T09:05:04Z</time>
      </trkpt>
      <trkpt lat="43.90773" lon="1.88642">
        <ele>140</ele>
        <time>2012-12-13T09:05:11Z</time>
      </trkpt>
      <trkpt lat="43.90779" lon="1.88633">
        <ele>142</ele>
        <time>2012-12-13T09:05:21Z</time>
      </trkpt>
      <trkpt lat="43.90781" lon="1.88622">
        <ele>143</ele>
        <time>2012-12-13T09:05:28Z</time>
      </trkpt>
      <trkpt lat="43.90782" lon="1.88613">
        <ele>142</ele>
        <time>2012-12-13T09:05:34Z</time>
      </trkpt>
      <trkpt lat="43.90789" lon="1.88603">
        <ele>143</ele>
        <time>2012-12-13T09:05:43Z</time>
      </trkpt>
      <trkpt lat="43.90791" lon="1.88596">
        <ele>143</ele>
        <time>2012-12-13T09:05:47Z</time>
      </trkpt>
      <trkpt lat="43.90792" lon="1.8859">
        <ele>142</ele>
        <time>2012-12-13T09:05:51Z</time>
      </trkpt>
      <trkpt lat="43.90795" lon="1.88584">
        <ele>141</ele>
        <time>2012-12-13T09:05:55Z</time>
      </trkpt>
      <trkpt lat="43.90797" lon="1.88578">
        <ele>141</ele>
        <time>2012-12-13T09:05:59Z</time>
      </trkpt>
      <trkpt lat="43.90802" lon="1.88576">
        <ele>142</ele>
        <time>2012-12-13T09:06:02Z</time>
      </trkpt>
      <trkpt lat="43.90805" lon="1.88564">
        <ele>141</ele>
        <time>2012-12-13T09:06:11Z</time>
      </trkpt>
      <trkpt lat="43.9081" lon="1.88554">
        <ele>142</ele>
        <time>2012-12-13T09:06:19Z</time>
      </trkpt>
      <trkpt lat="43.90817" lon="1.88545">
        <ele>143</ele>
        <time>2012-12-13T09:06:26Z</time>
      </trkpt>
      <trkpt lat="43.90822" lon="1.88533">
        <ele>142</ele>
        <time>2012-12-13T09:06:34Z</time>
      </trkpt>
      <trkpt lat="43.90829" lon="1.88525">
        <ele>142</ele>
        <time>2012-12-13T09:06:41Z</time>
      </trkpt>
      <trkpt lat="43.90835" lon="1.88515">
        <ele>143</ele>
        <time>2012-12-13T09:06:49Z</time>
      </trkpt>
      <trkpt lat="43.90842" lon="1.88504">
        <ele>144</ele>
        <time>2012-12-13T09:06:58Z</time>
      </trkpt>
      <trkpt lat="43.90847" lon="1.88498">
        <ele>144</ele>
        <time>2012-12-13T09:07:03Z</time>
      </trkpt>
      <trkpt lat="43.90851" lon="1.88495">
        <ele>145</ele>
        <time>2012-12-13T09:07:06Z</time>
      </trkpt>
      <trkpt lat="43.90859" lon="1.88484">
        <ele>145</ele>
        <time>2012-12-13T09:07:14Z</time>
      </trkpt>
      <trkpt lat="43.90868" lon="1.88478">
        <ele>144</ele>
        <time>2012-12-13T09:07:23Z</time>
      </trkpt>
      <trkpt lat="43.90876" lon="1.8847">
        <ele>143</ele>
        <time>2012-12-13T09:07:32Z</time>
      </trkpt>
      <trkpt lat="43.9088" lon="1.88458">
        <ele>143</ele>
        <time>2012-12-13T09:07:39Z</time>
      </trkpt>
      <trkpt lat="43.90887" lon="1.88449">
        <ele>143</ele>
        <time>2012-12-13T09:07:47Z</time>
      </trkpt>
      <trkpt lat="43.90891" lon="1.88445">
        <ele>143</ele>
        <time>2012-12-13T09:07:51Z</time>
      </trkpt>
      <trkpt lat="43.90895" lon="1.88437">
        <ele>143</ele>
        <time>2012-12-13T09:07:57Z</time>
      </trkpt>
      <trkpt lat="43.90899" lon="1.88432">
        <ele>143</ele>
        <time>2012-12-13T09:08:01Z</time>
      </trkpt>
      <trkpt lat="43.90901" lon="1.88427">
        <ele>143</ele>
        <time>2012-12-13T09:08:05Z</time>
      </trkpt>
      <trkpt lat="43.90907" lon="1.88418">
        <ele>144</ele>
        <time>2012-12-13T09:08:12Z</time>
      </trkpt>
      <trkpt lat="43.9091" lon="1.88412">
        <ele>145</ele>
        <time>2012-12-13T09:08:16Z</time>
      </trkpt>
      <trkpt lat="43.90913" lon="1.88399">
        <ele>144</ele>
        <time>2012-12-13T09:08:25Z</time>
      </trkpt>
      <trkpt lat="43.90917" lon="1.88394">
        <ele>144</ele>
        <time>2012-12-13T09:08:29Z</time>
      </trkpt>
      <trkpt lat="43.90918" lon="1.88387">
        <ele>145</ele>
        <time>2012-12-13T09:08:33Z</time>
      </trkpt>
      <trkpt lat="43.90921" lon="1.88383">
        <ele>146</ele>
        <time>2012-12-13T09:08:37Z</time>
      </trkpt>
      <trkpt lat="43.90924" lon="1.88377">
        <ele>147</ele>
        <time>2012-12-13T09:08:41Z</time>
      </trkpt>
      <trkpt lat="43.90928" lon="1.88372">
        <ele>147</ele>
        <time>2012-12-13T09:08:45Z</time>
      </trkpt>
      <trkpt lat="43.90931" lon="1.88367">
        <ele>147</ele>
        <time>2012-12-13T09:08:49Z</time>
      </trkpt>
      <trkpt lat="43.90935" lon="1.88362">
        <ele>147</ele>
        <time>2012-12-13T09:08:53Z</time>
      </trkpt>
      <trkpt lat="43.90943" lon="1.88355">
        <ele>147</ele>
        <time>2012-12-13T09:09:01Z</time>
      </trkpt>
      <trkpt lat="43.90946" lon="1.88349">
        <ele>146</ele>
        <time>2012-12-13T09:09:06Z</time>
      </trkpt>
      <trkpt lat="43.90955" lon="1.88341">
        <ele>145</ele>
        <time>2012-12-13T09:09:13Z</time>
      </trkpt>
      <trkpt lat="43.90962" lon="1.88333">
        <ele>147</ele>
        <time>2012-12-13T09:09:21Z</time>
      </trkpt>
      <trkpt lat="43.90966" lon="1.8832">
        <ele>146</ele>
        <time>2012-12-13T09:09:29Z</time>
      </trkpt>
      <trkpt lat="43.90968" lon="1.88313">
        <ele>146</ele>
        <time>2012-12-13T09:09:34Z</time>
      </trkpt>
      <trkpt lat="43.90969" lon="1.88307">
        <ele>146</ele>
        <time>2012-12-13T09:09:38Z</time>
      </trkpt>
      <trkpt lat="43.90973" lon="1.88295">
        <ele>146</ele>
        <time>2012-12-13T09:09:45Z</time>
      </trkpt>
      <trkpt lat="43.90979" lon="1.88285">
        <ele>146</ele>
        <time>2012-12-13T09:09:52Z</time>
      </trkpt>
      <trkpt lat="43.90982" lon="1.88279">
        <ele>146</ele>
        <time>2012-12-13T09:09:58Z</time>
      </trkpt>
      <trkpt lat="43.90986" lon="1.88276">
        <ele>146</ele>
        <time>2012-12-13T09:10:03Z</time>
      </trkpt>
      <trkpt lat="43.9099" lon="1.88271">
        <ele>145</ele>
        <time>2012-12-13T09:10:06Z</time>
      </trkpt>
      <trkpt lat="43.90993" lon="1.88266">
        <ele>144</ele>
        <time>2012-12-13T09:10:10Z</time>
      </trkpt>
      <trkpt lat="43.90997" lon="1.88261">
        <ele>144</ele>
        <time>2012-12-13T09:10:15Z</time>
      </trkpt>
      <trkpt lat="43.91" lon="1.88256">
        <ele>144</ele>
        <time>2012-12-13T09:10:19Z</time>
      </trkpt>
      <trkpt lat="43.91003" lon="1.8825">
        <ele>145</ele>
        <time>2012-12-13T09:10:24Z</time>
      </trkpt>
      <trkpt lat="43.91009" lon="1.88242">
        <ele>146</ele>
        <time>2012-12-13T09:10:32Z</time>
      </trkpt>
      <trkpt lat="43.91014" lon="1.88237">
        <ele>147</ele>
        <time>2012-12-13T09:10:36Z</time>
      </trkpt>
      <trkpt lat="43.91021" lon="1.88228">
        <ele>148</ele>
        <time>2012-12-13T09:10:44Z</time>
      </trkpt>
      <trkpt lat="43.91029" lon="1.88221">
        <ele>147</ele>
        <time>2012-12-13T09:10:50Z</time>
      </trkpt>
      <trkpt lat="43.91036" lon="1.88213">
        <ele>147</ele>
        <time>2012-12-13T09:10:57Z</time>
      </trkpt>
      <trkpt lat="43.91044" lon="1.88204">
        <ele>146</ele>
        <time>2012-12-13T09:11:06Z</time>
      </trkpt>
      <trkpt lat="43.91051" lon="1.88198">
        <ele>145</ele>
        <time>2012-12-13T09:11:12Z</time>
      </trkpt>
      <trkpt lat="43.91055" lon="1.88192">
        <ele>145</ele>
        <time>2012-12-13T09:11:18Z</time>
      </trkpt>
      <trkpt lat="43.91058" lon="1.88186">
        <ele>145</ele>
        <time>2012-12-13T09:11:23Z</time>
      </trkpt>
      <trkpt lat="43.91065" lon="1.88177">
        <ele>144</ele>
        <time>2012-12-13T09:11:32Z</time>
      </trkpt>
      <trkpt lat="43.91069" lon="1.88172">
        <ele>144</ele>
        <time>2012-12-13T09:11:36Z</time>
      </trkpt>
      <trkpt lat="43.91075" lon="1.88162">
        <ele>145</ele>
        <time>2012-12-13T09:11:44Z</time>
      </trkpt>
      <trkpt lat="43.91078" lon="1.88157">
        <ele>146</ele>
        <time>2012-12-13T09:11:49Z</time>
      </trkpt>
      <trkpt lat="43.91082" lon="1.88153">
        <ele>148</ele>
        <time>2012-12-13T09:11:53Z</time>
      </trkpt>
      <trkpt lat="43.91086" lon="1.8815">
        <ele>148</ele>
        <time>2012-12-13T09:11:56Z</time>
      </trkpt>
      <trkpt lat="43.91092" lon="1.88142">
        <ele>148</ele>
        <time>2012-12-13T09:12:02Z</time>
      </trkpt>
      <trkpt lat="43.911" lon="1.88133">
        <ele>148</ele>
        <time>2012-12-13T09:12:11Z</time>
      </trkpt>
      <trkpt lat="43.91103" lon="1.88129">
        <ele>147</ele>
        <time>2012-12-13T09:12:16Z</time>
      </trkpt>
      <trkpt lat="43.91108" lon="1.88124">
        <ele>147</ele>
        <time>2012-12-13T09:12:21Z</time>
      </trkpt>
      <trkpt lat="43.91112" lon="1.8812">
        <ele>148</ele>
        <time>2012-12-13T09:12:25Z</time>
      </trkpt>
      <trkpt lat="43.91116" lon="1.88117">
        <ele>148</ele>
        <time>2012-12-13T09:12:29Z</time>
      </trkpt>
      <trkpt lat="43.9112" lon="1.88113">
        <ele>148</ele>
        <time>2012-12-13T09:12:33Z</time>
      </trkpt>
      <trkpt lat="43.91124" lon="1.88109">
        <ele>148</ele>
        <time>2012-12-13T09:12:37Z</time>
      </trkpt>
      <trkpt lat="43.91129" lon="1.88106">
        <ele>148</ele>
        <time>2012-12-13T09:12:41Z</time>
      </trkpt>
      <trkpt lat="43.91138" lon="1.88101">
        <ele>148</ele>
        <time>2012-12-13T09:12:48Z</time>
      </trkpt>
      <trkpt lat="43.91141" lon="1.88097">
        <ele>148</ele>
        <time>2012-12-13T09:12:52Z</time>
      </trkpt>
      <trkpt lat="43.91146" lon="1.88095">
        <ele>148</ele>
        <time>2012-12-13T09:12:56Z</time>
      </trkpt>
      <trkpt lat="43.9115" lon="1.88091">
        <ele>147</ele>
        <time>2012-12-13T09:13:00Z</time>
      </trkpt>
      <trkpt lat="43.91154" lon="1.88087">
        <ele>147</ele>
        <time>2012-12-13T09:13:04Z</time>
      </trkpt>
      <trkpt lat="43.91158" lon="1.88083">
        <ele>147</ele>
        <time>2012-12-13T09:13:08Z</time>
      </trkpt>
      <trkpt lat="43.91162" lon="1.88079">
        <ele>147</ele>
        <time>2012-12-13T09:13:14Z</time>
      </trkpt>
      <trkpt lat="43.91166" lon="1.88075">
        <ele>146</ele>
        <time>2012-12-13T09:13:19Z</time>
      </trkpt>
      <trkpt lat="43.9117" lon="1.88072">
        <ele>146</ele>
        <time>2012-12-13T09:13:23Z</time>
      </trkpt>
      <trkpt lat="43.91175" lon="1.88069">
        <ele>145</ele>
        <time>2012-12-13T09:13:27Z</time>
      </trkpt>
      <trkpt lat="43.9118" lon="1.88065">
        <ele>145</ele>
        <time>2012-12-13T09:13:32Z</time>
      </trkpt>
      <trkpt lat="43.91184" lon="1.88062">
        <ele>145</ele>
        <time>2012-12-13T09:13:37Z</time>
      </trkpt>
      <trkpt lat="43.91194" lon="1.88057">
        <ele>145</ele>
        <time>2012-12-13T09:13:45Z</time>
      </trkpt>
      <trkpt lat="43.91198" lon="1.88053">
        <ele>146</ele>
        <time>2012-12-13T09:13:50Z</time>
      </trkpt>
      <trkpt lat="43.91203" lon="1.88047">
        <ele>147</ele>
        <time>2012-12-13T09:13:55Z</time>
      </trkpt>
      <trkpt lat="43.91206" lon="1.88042">
        <ele>147</ele>
        <time>2012-12-13T09:13:59Z</time>
      </trkpt>
      <trkpt lat="43.91211" lon="1.88039">
        <ele>148</ele>
        <time>2012-12-13T09:14:03Z</time>
      </trkpt>
      <trkpt lat="43.91216" lon="1.88033">
        <ele>148</ele>
        <time>2012-12-13T09:14:09Z</time>
      </trkpt>
      <trkpt lat="43.9122" lon="1.88029">
        <ele>148</ele>
        <time>2012-12-13T09:14:14Z</time>
      </trkpt>
      <trkpt lat="43.91225" lon="1.88025">
        <ele>148</ele>
        <time>2012-12-13T09:14:19Z</time>
      </trkpt>
      <trkpt lat="43.91229" lon="1.88021">
        <ele>148</ele>
        <time>2012-12-13T09:14:23Z</time>
      </trkpt>
      <trkpt lat="43.91233" lon="1.88016">
        <ele>148</ele>
        <time>2012-12-13T09:14:29Z</time>
      </trkpt>
      <trkpt lat="43.91237" lon="1.88013">
        <ele>149</ele>
        <time>2012-12-13T09:14:32Z</time>
      </trkpt>
      <trkpt lat="43.91241" lon="1.8801">
        <ele>150</ele>
        <time>2012-12-13T09:14:36Z</time>
      </trkpt>
      <trkpt lat="43.91247" lon="1.88005">
        <ele>149</ele>
        <time>2012-12-13T09:14:42Z</time>
      </trkpt>
      <trkpt lat="43.91251" lon="1.88001">
        <ele>149</ele>
        <time>2012-12-13T09:14:46Z</time>
      </trkpt>
      <trkpt lat="43.91256" lon="1.87997">
        <ele>149</ele>
        <time>2012-12-13T09:14:50Z</time>
      </trkpt>
      <trkpt lat="43.9126" lon="1.87993">
        <ele>149</ele>
        <time>2012-12-13T09:14:54Z</time>
      </trkpt>
      <trkpt lat="43.91265" lon="1.8799">
        <ele>150</ele>
        <time>2012-12-13T09:14:59Z</time>
      </trkpt>
      <trkpt lat="43.91269" lon="1.87987">
        <ele>150</ele>
        <time>2012-12-13T09:15:03Z</time>
      </trkpt>
      <trkpt lat="43.91274" lon="1.87985">
        <ele>151</ele>
        <time>2012-12-13T09:15:07Z</time>
      </trkpt>
      <trkpt lat="43.9128" lon="1.87982">
        <ele>150</ele>
        <time>2012-12-13T09:15:12Z</time>
      </trkpt>
      <trkpt lat="43.91285" lon="1.87979">
        <ele>148</ele>
        <time>2012-12-13T09:15:17Z</time>
      </trkpt>
      <trkpt lat="43.91289" lon="1.87976">
        <ele>148</ele>
        <time>2012-12-13T09:15:21Z</time>
      </trkpt>
      <trkpt lat="43.91294" lon="1.87972">
        <ele>148</ele>
        <time>2012-12-13T09:15:25Z</time>
      </trkpt>
      <trkpt lat="43.91298" lon="1.87968">
        <ele>149</ele>
        <time>2012-12-13T09:15:29Z</time>
      </trkpt>
      <trkpt lat="43.91302" lon="1.87964">
        <ele>150</ele>
        <time>2012-12-13T09:15:33Z</time>
      </trkpt>
      <trkpt lat="43.91307" lon="1.87959">
        <ele>151</ele>
        <time>2012-12-13T09:15:39Z</time>
      </trkpt>
      <trkpt lat="43.91312" lon="1.87957">
        <ele>152</ele>
        <time>2012-12-13T09:15:43Z</time>
      </trkpt>
      <trkpt lat="43.91317" lon="1.87956">
        <ele>152</ele>
        <time>2012-12-13T09:15:46Z</time>
      </trkpt>
      <trkpt lat="43.91321" lon="1.8795">
        <ele>152</ele>
        <time>2012-12-13T09:15:51Z</time>
      </trkpt>
      <trkpt lat="43.91327" lon="1.87946">
        <ele>152</ele>
        <time>2012-12-13T09:15:58Z</time>
      </trkpt>
      <trkpt lat="43.91331" lon="1.87942">
        <ele>152</ele>
        <time>2012-12-13T09:16:02Z</time>
      </trkpt>
      <trkpt lat="43.91335" lon="1.87938">
        <ele>152</ele>
        <time>2012-12-13T09:16:09Z</time>
      </trkpt>
      <trkpt lat="43.91339" lon="1.87934">
        <ele>152</ele>
        <time>2012-12-13T09:16:13Z</time>
      </trkpt>
      <trkpt lat="43.91343" lon="1.8793">
        <ele>152</ele>
        <time>2012-12-13T09:16:16Z</time>
      </trkpt>
      <trkpt lat="43.91352" lon="1.87925">
        <ele>152</ele>
        <time>2012-12-13T09:16:23Z</time>
      </trkpt>
      <trkpt lat="43.91356" lon="1.87923">
        <ele>152</ele>
        <time>2012-12-13T09:16:26Z</time>
      </trkpt>
      <trkpt lat="43.9136" lon="1.87921">
        <ele>151</ele>
        <time>2012-12-13T09:16:30Z</time>
      </trkpt>
      <trkpt lat="43.91365" lon="1.87916">
        <ele>150</ele>
        <time>2012-12-13T09:16:36Z</time>
      </trkpt>
      <trkpt lat="43.91368" lon="1.87912">
        <ele>151</ele>
        <time>2012-12-13T09:16:41Z</time>
      </trkpt>
      <trkpt lat="43.91372" lon="1.87907">
        <ele>150</ele>
        <time>2012-12-13T09:16:45Z</time>
      </trkpt>
      <trkpt lat="43.91377" lon="1.87903">
        <ele>150</ele>
        <time>2012-12-13T09:16:48Z</time>
      </trkpt>
      <trkpt lat="43.91381" lon="1.87899">
        <ele>150</ele>
        <time>2012-12-13T09:16:53Z</time>
      </trkpt>
      <trkpt lat="43.91386" lon="1.87895">
        <ele>150</ele>
        <time>2012-12-13T09:17:01Z</time>
      </trkpt>
      <trkpt lat="43.9139" lon="1.87891">
        <ele>151</ele>
        <time>2012-12-13T09:17:05Z</time>
      </trkpt>
      <trkpt lat="43.91396" lon="1.87883">
        <ele>151</ele>
        <time>2012-12-13T09:17:11Z</time>
      </trkpt>
      <trkpt lat="43.91401" lon="1.8788">
        <ele>150</ele>
        <time>2012-12-13T09:17:15Z</time>
      </trkpt>
      <trkpt lat="43.91406" lon="1.87878">
        <ele>151</ele>
        <time>2012-12-13T09:17:18Z</time>
      </trkpt>
      <trkpt lat="43.9141" lon="1.87876">
        <ele>151</ele>
        <time>2012-12-13T09:17:22Z</time>
      </trkpt>
      <trkpt lat="43.91415" lon="1.87874">
        <ele>153</ele>
        <time>2012-12-13T09:17:26Z</time>
      </trkpt>
      <trkpt lat="43.9142" lon="1.87869">
        <ele>153</ele>
        <time>2012-12-13T09:17:30Z</time>
      </trkpt>
      <trkpt lat="43.91423" lon="1.87864">
        <ele>152</ele>
        <time>2012-12-13T09:17:34Z</time>
      </trkpt>
      <trkpt lat="43.91428" lon="1.87859">
        <ele>152</ele>
        <time>2012-12-13T09:17:40Z</time>
      </trkpt>
      <trkpt lat="43.91432" lon="1.87854">
        <ele>152</ele>
        <time>2012-12-13T09:17:46Z</time>
      </trkpt>
      <trkpt lat="43.91441" lon="1.87848">
        <ele>152</ele>
        <time>2012-12-13T09:17:52Z</time>
      </trkpt>
      <trkpt lat="43.91445" lon="1.87844">
        <ele>152</ele>
        <time>2012-12-13T09:17:57Z</time>
      </trkpt>
      <trkpt lat="43.91448" lon="1.87838">
        <ele>151</ele>
        <time>2012-12-13T09:18:03Z</time>
      </trkpt>
      <trkpt lat="43.91451" lon="1.87833">
        <ele>151</ele>
        <time>2012-12-13T09:18:07Z</time>
      </trkpt>
      <trkpt lat="43.91455" lon="1.87828">
        <ele>151</ele>
        <time>2012-12-13T09:18:11Z</time>
      </trkpt>
      <trkpt lat="43.91458" lon="1.87823">
        <ele>152</ele>
        <time>2012-12-13T09:18:16Z</time>
      </trkpt>
      <trkpt lat="43.91461" lon="1.87818">
        <ele>152</ele>
        <time>2012-12-13T09:18:21Z</time>
      </trkpt>
      <trkpt lat="43.91465" lon="1.87813">
        <ele>152</ele>
        <time>2012-12-13T09:18:26Z</time>
      </trkpt>
      <trkpt lat="43.91469" lon="1.87808">
        <ele>152</ele>
        <time>2012-12-13T09:18:29Z</time>
      </trkpt>
      <trkpt lat="43.91472" lon="1.87803">
        <ele>151</ele>
        <time>2012-12-13T09:18:34Z</time>
      </trkpt>
      <trkpt lat="43.91476" lon="1.87798">
        <ele>150</ele>
        <time>2012-12-13T09:18:38Z</time>
      </trkpt>
      <trkpt lat="43.9148" lon="1.87793">
        <ele>151</ele>
        <time>2012-12-13T09:18:42Z</time>
      </trkpt>
      <trkpt lat="43.91483" lon="1.87787">
        <ele>152</ele>
        <time>2012-12-13T09:18:48Z</time>
      </trkpt>
      <trkpt lat="43.91484" lon="1.87779">
        <ele>153</ele>
        <time>2012-12-13T09:18:52Z</time>
      </trkpt>
      <trkpt lat="43.9149" lon="1.87776">
        <ele>153</ele>
        <time>2012-12-13T09:18:55Z</time>
      </trkpt>
      <trkpt lat="43.91494" lon="1.87772">
        <ele>153</ele>
        <time>2012-12-13T09:18:59Z</time>
      </trkpt>
      <trkpt lat="43.91496" lon="1.87767">
        <ele>153</ele>
        <time>2012-12-13T09:19:04Z</time>
      </trkpt>
      <trkpt lat="43.915" lon="1.8776">
        <ele>153</ele>
        <time>2012-12-13T09:19:09Z</time>
      </trkpt>
      <trkpt lat="43.91504" lon="1.87756">
        <ele>152</ele>
        <time>2012-12-13T09:19:13Z</time>
      </trkpt>
      <trkpt lat="43.91507" lon="1.8775">
        <ele>152</ele>
        <time>2012-12-13T09:19:18Z</time>
      </trkpt>
      <trkpt lat="43.91512" lon="1.87747">
        <ele>153</ele>
        <time>2012-12-13T09:19:22Z</time>
      </trkpt>
      <trkpt lat="43.91516" lon="1.87742">
        <ele>153</ele>
        <time>2012-12-13T09:19:26Z</time>
      </trkpt>
      <trkpt lat="43.91519" lon="1.87737">
        <ele>153</ele>
        <time>2012-12-13T09:19:29Z</time>
      </trkpt>
      <trkpt lat="43.91522" lon="1.87731">
        <ele>154</ele>
        <time>2012-12-13T09:19:33Z</time>
      </trkpt>
      <trkpt lat="43.91525" lon="1.87724">
        <ele>155</ele>
        <time>2012-12-13T09:19:38Z</time>
      </trkpt>
      <trkpt lat="43.91527" lon="1.87719">
        <ele>156</ele>
        <time>2012-12-13T09:19:42Z</time>
      </trkpt>
      <trkpt lat="43.91531" lon="1.87713">
        <ele>156</ele>
        <time>2012-12-13T09:19:46Z</time>
      </trkpt>
      <trkpt lat="43.91538" lon="1.87707">
        <ele>157</ele>
        <time>2012-12-13T09:19:54Z</time>
      </trkpt>
      <trkpt lat="43.91542" lon="1.87702">
        <ele>155</ele>
        <time>2012-12-13T09:20:00Z</time>
      </trkpt>
      <trkpt lat="43.91546" lon="1.87697">
        <ele>155</ele>
        <time>2012-12-13T09:20:04Z</time>
      </trkpt>
      <trkpt lat="43.91548" lon="1.87692">
        <ele>154</ele>
        <time>2012-12-13T09:20:08Z</time>
      </trkpt>
      <trkpt lat="43.91552" lon="1.87688">
        <ele>154</ele>
        <time>2012-12-13T09:20:12Z</time>
      </trkpt>
      <trkpt lat="43.9156" lon="1.87681">
        <ele>153</ele>
        <time>2012-12-13T09:20:20Z</time>
      </trkpt>
      <trkpt lat="43.91567" lon="1.87673">
        <ele>152</ele>
        <time>2012-12-13T09:20:30Z</time>
      </trkpt>
      <trkpt lat="43.91572" lon="1.87672">
        <ele>153</ele>
        <time>2012-12-13T09:20:36Z</time>
      </trkpt>
      <trkpt lat="43.91576" lon="1.87676">
        <ele>153</ele>
        <time>2012-12-13T09:20:39Z</time>
      </trkpt>
      <trkpt lat="43.9158" lon="1.87682">
        <ele>153</ele>
        <time>2012-12-13T09:20:43Z</time>
      </trkpt>
      <trkpt lat="43.91583" lon="1.87689">
        <ele>154</ele>
        <time>2012-12-13T09:20:49Z</time>
      </trkpt>
      <trkpt lat="43.9159" lon="1.87698">
        <ele>155</ele>
        <time>2012-12-13T09:20:57Z</time>
      </trkpt>
      <trkpt lat="43.91593" lon="1.87703">
        <ele>155</ele>
        <time>2012-12-13T09:21:03Z</time>
      </trkpt>
      <trkpt lat="43.91601" lon="1.87709">
        <ele>159</ele>
        <time>2012-12-13T09:21:25Z</time>
      </trkpt>
      <trkpt lat="43.91607" lon="1.87715">
        <ele>158</ele>
        <time>2012-12-13T09:21:30Z</time>
      </trkpt>
      <trkpt lat="43.91612" lon="1.87715">
        <ele>157</ele>
        <time>2012-12-13T09:21:37Z</time>
      </trkpt>
      <trkpt lat="43.91617" lon="1.87713">
        <ele>156</ele>
        <time>2012-12-13T09:21:41Z</time>
      </trkpt>
      <trkpt lat="43.91621" lon="1.87709">
        <ele>156</ele>
        <time>2012-12-13T09:21:46Z</time>
      </trkpt>
      <trkpt lat="43.91624" lon="1.87705">
        <ele>157</ele>
        <time>2012-12-13T09:21:49Z</time>
      </trkpt>
      <trkpt lat="43.91628" lon="1.877">
        <ele>158</ele>
        <time>2012-12-13T09:21:55Z</time>
      </trkpt>
      <trkpt lat="43.91632" lon="1.87697">
        <ele>158</ele>
        <time>2012-12-13T09:21:59Z</time>
      </trkpt>
      <trkpt lat="43.91635" lon="1.87693">
        <ele>157</ele>
        <time>2012-12-13T09:22:03Z</time>
      </trkpt>
      <trkpt lat="43.91639" lon="1.87687">
        <ele>156</ele>
        <time>2012-12-13T09:22:09Z</time>
      </trkpt>
      <trkpt lat="43.91642" lon="1.87683">
        <ele>156</ele>
        <time>2012-12-13T09:22:13Z</time>
      </trkpt>
      <trkpt lat="43.91646" lon="1.87678">
        <ele>156</ele>
        <time>2012-12-13T09:22:17Z</time>
      </trkpt>
      <trkpt lat="43.9165" lon="1.87673">
        <ele>155</ele>
        <time>2012-12-13T09:22:22Z</time>
      </trkpt>
      <trkpt lat="43.91654" lon="1.87668">
        <ele>155</ele>
        <time>2012-12-13T09:22:27Z</time>
      </trkpt>
      <trkpt lat="43.91658" lon="1.87663">
        <ele>156</ele>
        <time>2012-12-13T09:22:31Z</time>
      </trkpt>
      <trkpt lat="43.91661" lon="1.87658">
        <ele>155</ele>
        <time>2012-12-13T09:22:36Z</time>
      </trkpt>
      <trkpt lat="43.91665" lon="1.87654">
        <ele>155</ele>
        <time>2012-12-13T09:22:40Z</time>
      </trkpt>
      <trkpt lat="43.91668" lon="1.87648">
        <ele>155</ele>
        <time>2012-12-13T09:22:45Z</time>
      </trkpt>
      <trkpt lat="43.91672" lon="1.87643">
        <ele>154</ele>
        <time>2012-12-13T09:22:49Z</time>
      </trkpt>
      <trkpt lat="43.91676" lon="1.87638">
        <ele>155</ele>
        <time>2012-12-13T09:22:53Z</time>
      </trkpt>
      <trkpt lat="43.9168" lon="1.87634">
        <ele>155</ele>
        <time>2012-12-13T09:22:57Z</time>
      </trkpt>
      <trkpt lat="43.91684" lon="1.87629">
        <ele>154</ele>
        <time>2012-12-13T09:23:02Z</time>
      </trkpt>
      <trkpt lat="43.91688" lon="1.87624">
        <ele>154</ele>
        <time>2012-12-13T09:23:06Z</time>
      </trkpt>
      <trkpt lat="43.91692" lon="1.87621">
        <ele>154</ele>
        <time>2012-12-13T09:23:10Z</time>
      </trkpt>
      <trkpt lat="43.91697" lon="1.87616">
        <ele>155</ele>
        <time>2012-12-13T09:23:14Z</time>
      </trkpt>
      <trkpt lat="43.91701" lon="1.87612">
        <ele>156</ele>
        <time>2012-12-13T09:23:18Z</time>
      </trkpt>
      <trkpt lat="43.91705" lon="1.87607">
        <ele>157</ele>
        <time>2012-12-13T09:23:23Z</time>
      </trkpt>
      <trkpt lat="43.91709" lon="1.87604">
        <ele>157</ele>
        <time>2012-12-13T09:23:27Z</time>
      </trkpt>
      <trkpt lat="43.91713" lon="1.87598">
        <ele>157</ele>
        <time>2012-12-13T09:23:31Z</time>
      </trkpt>
      <trkpt lat="43.91716" lon="1.87594">
        <ele>157</ele>
        <time>2012-12-13T09:23:35Z</time>
      </trkpt>
      <trkpt lat="43.9172" lon="1.8759">
        <ele>157</ele>
        <time>2012-12-13T09:23:41Z</time>
      </trkpt>
      <trkpt lat="43.91725" lon="1.87586">
        <ele>157</ele>
        <time>2012-12-13T09:23:45Z</time>
      </trkpt>
      <trkpt lat="43.91729" lon="1.87582">
        <ele>157</ele>
        <time>2012-12-13T09:23:49Z</time>
      </trkpt>
      <trkpt lat="43.91733" lon="1.87578">
        <ele>156</ele>
        <time>2012-12-13T09:23:53Z</time>
      </trkpt>
      <trkpt lat="43.91736" lon="1.87573">
        <ele>156</ele>
        <time>2012-12-13T09:23:57Z</time>
      </trkpt>
      <trkpt lat="43.91738" lon="1.87565">
        <ele>156</ele>
        <time>2012-12-13T09:24:03Z</time>
      </trkpt>
      <trkpt lat="43.9174" lon="1.87555">
        <ele>156</ele>
        <time>2012-12-13T09:24:09Z</time>
      </trkpt>
      <trkpt lat="43.91742" lon="1.87548">
        <ele>154</ele>
        <time>2012-12-13T09:24:12Z</time>
      </trkpt>
      <trkpt lat="43.91743" lon="1.87539">
        <ele>154</ele>
        <time>2012-12-13T09:24:18Z</time>
      </trkpt>
      <trkpt lat="43.91744" lon="1.87533">
        <ele>154</ele>
        <time>2012-12-13T09:24:23Z</time>
      </trkpt>
      <trkpt lat="43.91745" lon="1.87526">
        <ele>155</ele>
        <time>2012-12-13T09:24:27Z</time>
      </trkpt>
      <trkpt lat="43.91747" lon="1.87519">
        <ele>155</ele>
        <time>2012-12-13T09:24:31Z</time>
      </trkpt>
      <trkpt lat="43.91749" lon="1.87512">
        <ele>155</ele>
        <time>2012-12-13T09:24:37Z</time>
      </trkpt>
      <trkpt lat="43.91751" lon="1.87506">
        <ele>155</ele>
        <time>2012-12-13T09:24:41Z</time>
      </trkpt>
      <trkpt lat="43.91753" lon="1.87498">
        <ele>155</ele>
        <time>2012-12-13T09:24:46Z</time>
      </trkpt>
      <trkpt lat="43.91757" lon="1.87487">
        <ele>155</ele>
        <time>2012-12-13T09:24:52Z</time>
      </trkpt>
      <trkpt lat="43.91759" lon="1.87474">
        <ele>156</ele>
        <time>2012-12-13T09:24:58Z</time>
      </trkpt>
      <trkpt lat="43.91761" lon="1.87467">
        <ele>156</ele>
        <time>2012-12-13T09:25:05Z</time>
      </trkpt>
      <trkpt lat="43.91764" lon="1.87461">
        <ele>157</ele>
        <time>2012-12-13T09:25:09Z</time>
      </trkpt>
      <trkpt lat="43.91765" lon="1.87455">
        <ele>156</ele>
        <time>2012-12-13T09:25:13Z</time>
      </trkpt>
      <trkpt lat="43.91767" lon="1.87447">
        <ele>157</ele>
        <time>2012-12-13T09:25:19Z</time>
      </trkpt>
      <trkpt lat="43.91768" lon="1.87441">
        <ele>157</ele>
        <time>2012-12-13T09:25:23Z</time>
      </trkpt>
      <trkpt lat="43.9177" lon="1.87433">
        <ele>158</ele>
        <time>2012-12-13T09:25:27Z</time>
      </trkpt>
      <trkpt lat="43.91771" lon="1.87427">
        <ele>158</ele>
        <time>2012-12-13T09:25:31Z</time>
      </trkpt>
      <trkpt lat="43.91774" lon="1.8742">
        <ele>159</ele>
        <time>2012-12-13T09:25:36Z</time>
      </trkpt>
      <trkpt lat="43.91776" lon="1.87413">
        <ele>159</ele>
        <time>2012-12-13T09:25:40Z</time>
      </trkpt>
      <trkpt lat="43.91778" lon="1.87407">
        <ele>159</ele>
        <time>2012-12-13T09:25:45Z</time>
      </trkpt>
      <trkpt lat="43.91781" lon="1.87401">
        <ele>159</ele>
        <time>2012-12-13T09:25:49Z</time>
      </trkpt>
      <trkpt lat="43.91784" lon="1.87396">
        <ele>159</ele>
        <time>2012-12-13T09:25:53Z</time>
      </trkpt>
      <trkpt lat="43.91788" lon="1.87389">
        <ele>159</ele>
        <time>2012-12-13T09:25:58Z</time>
      </trkpt>
      <trkpt lat="43.91792" lon="1.87384">
        <ele>158</ele>
        <time>2012-12-13T09:26:04Z</time>
      </trkpt>
      <trkpt lat="43.91796" lon="1.87378">
        <ele>158</ele>
        <time>2012-12-13T09:26:08Z</time>
      </trkpt>
      <trkpt lat="43.91798" lon="1.87373">
        <ele>158</ele>
        <time>2012-12-13T09:26:12Z</time>
      </trkpt>
      <trkpt lat="43.91801" lon="1.87368">
        <ele>158</ele>
        <time>2012-12-13T09:26:16Z</time>
      </trkpt>
      <trkpt lat="43.91803" lon="1.87362">
        <ele>157</ele>
        <time>2012-12-13T09:26:20Z</time>
      </trkpt>
      <trkpt lat="43.91806" lon="1.87355">
        <ele>157</ele>
        <time>2012-12-13T09:26:23Z</time>
      </trkpt>
      <trkpt lat="43.91808" lon="1.87349">
        <ele>158</ele>
        <time>2012-12-13T09:26:28Z</time>
      </trkpt>
      <trkpt lat="43.9181" lon="1.87342">
        <ele>158</ele>
        <time>2012-12-13T09:26:33Z</time>
      </trkpt>
      <trkpt lat="43.91811" lon="1.87335">
        <ele>158</ele>
        <time>2012-12-13T09:26:38Z</time>
      </trkpt>
      <trkpt lat="43.91812" lon="1.87328">
        <ele>159</ele>
        <time>2012-12-13T09:26:44Z</time>
      </trkpt>
      <trkpt lat="43.91814" lon="1.8732">
        <ele>159</ele>
        <time>2012-12-13T09:26:50Z</time>
      </trkpt>
      <trkpt lat="43.91817" lon="1.87315">
        <ele>160</ele>
        <time>2012-12-13T09:26:54Z</time>
      </trkpt>
      <trkpt lat="43.91818" lon="1.87309">
        <ele>160</ele>
        <time>2012-12-13T09:26:59Z</time>
      </trkpt>
      <trkpt lat="43.91821" lon="1.87303">
        <ele>159</ele>
        <time>2012-12-13T09:27:04Z</time>
      </trkpt>
      <trkpt lat="43.91824" lon="1.87298">
        <ele>159</ele>
        <time>2012-12-13T09:27:08Z</time>
      </trkpt>
      <trkpt lat="43.91827" lon="1.87293">
        <ele>160</ele>
        <time>2012-12-13T09:27:13Z</time>
      </trkpt>
      <trkpt lat="43.9183" lon="1.87288">
        <ele>160</ele>
        <time>2012-12-13T09:27:18Z</time>
      </trkpt>
      <trkpt lat="43.91833" lon="1.87283">
        <ele>162</ele>
        <time>2012-12-13T09:27:23Z</time>
      </trkpt>
      <trkpt lat="43.91837" lon="1.87277">
        <ele>163</ele>
        <time>2012-12-13T09:27:29Z</time>
      </trkpt>
      <trkpt lat="43.9184" lon="1.87272">
        <ele>164</ele>
        <time>2012-12-13T09:27:35Z</time>
      </trkpt>
      <trkpt lat="43.91843" lon="1.87266">
        <ele>165</ele>
        <time>2012-12-13T09:27:40Z</time>
      </trkpt>
      <trkpt lat="43.91847" lon="1.87261">
        <ele>165</ele>
        <time>2012-12-13T09:27:45Z</time>
      </trkpt>
      <trkpt lat="43.91851" lon="1.87256">
        <ele>166</ele>
        <time>2012-12-13T09:27:51Z</time>
      </trkpt>
      <trkpt lat="43.91854" lon="1.8725">
        <ele>168</ele>
        <time>2012-12-13T09:27:57Z</time>
      </trkpt>
      <trkpt lat="43.91861" lon="1.87244">
        <ele>169</ele>
        <time>2012-12-13T09:28:06Z</time>
      </trkpt>
      <trkpt lat="43.91865" lon="1.87238">
        <ele>169</ele>
        <time>2012-12-13T09:28:14Z</time>
      </trkpt>
      <trkpt lat="43.91868" lon="1.87232">
        <ele>169</ele>
        <time>2012-12-13T09:28:19Z</time>
      </trkpt>
      <trkpt lat="43.91874" lon="1.87226">
        <ele>170</ele>
        <time>2012-12-13T09:28:26Z</time>
      </trkpt>
      <trkpt lat="43.91878" lon="1.87222">
        <ele>171</ele>
        <time>2012-12-13T09:28:31Z</time>
      </trkpt>
      <trkpt lat="43.91883" lon="1.87217">
        <ele>171</ele>
        <time>2012-12-13T09:28:38Z</time>
      </trkpt>
      <trkpt lat="43.91892" lon="1.87209">
        <ele>174</ele>
        <time>2012-12-13T09:28:48Z</time>
      </trkpt>
      <trkpt lat="43.919" lon="1.87203">
        <ele>175</ele>
        <time>2012-12-13T09:29:00Z</time>
      </trkpt>
      <trkpt lat="43.9191" lon="1.87203">
        <ele>176</ele>
        <time>2012-12-13T09:29:12Z</time>
      </trkpt>
      <trkpt lat="43.91914" lon="1.87204">
        <ele>176</ele>
        <time>2012-12-13T09:29:18Z</time>
      </trkpt>
      <trkpt lat="43.91924" lon="1.87207">
        <ele>178</ele>
        <time>2012-12-13T09:29:30Z</time>
      </trkpt>
      <trkpt lat="43.91933" lon="1.8721">
        <ele>180</ele>
        <time>2012-12-13T09:29:41Z</time>
      </trkpt>
      <trkpt lat="43.91942" lon="1.87205">
        <ele>181</ele>
        <time>2012-12-13T09:29:49Z</time>
      </trkpt>
      <trkpt lat="43.91952" lon="1.87206">
        <ele>179</ele>
        <time>2012-12-13T09:30:01Z</time>
      </trkpt>
      <trkpt lat="43.91962" lon="1.87208">
        <ele>179</ele>
        <time>2012-12-13T09:30:10Z</time>
      </trkpt>
      <trkpt lat="43.91971" lon="1.87206">
        <ele>180</ele>
        <time>2012-12-13T09:30:19Z</time>
      </trkpt>
      <trkpt lat="43.91995" lon="1.87198">
        <ele>195</ele>
        <time>2012-12-13T09:31:49Z</time>
      </trkpt>
      <trkpt lat="43.91999" lon="1.87196">
        <ele>196</ele>
        <time>2012-12-13T09:31:55Z</time>
      </trkpt>
      <trkpt lat="43.92006" lon="1.87193">
        <ele>205</ele>
        <time>2012-12-13T09:35:22Z</time>
      </trkpt>
      <trkpt lat="43.92014" lon="1.8719">
        <ele>203</ele>
        <time>2012-12-13T09:36:41Z</time>
      </trkpt>
      <trkpt lat="43.9202" lon="1.8718">
        <ele>200</ele>
        <time>2012-12-13T09:36:49Z</time>
      </trkpt>
      <trkpt lat="43.92031" lon="1.87176">
        <ele>200</ele>
        <time>2012-12-13T09:36:58Z</time>
      </trkpt>
      <trkpt lat="43.92038" lon="1.87168">
        <ele>199</ele>
        <time>2012-12-13T09:37:07Z</time>
      </trkpt>
      <trkpt lat="43.92048" lon="1.87164">
        <ele>199</ele>
        <time>2012-12-13T09:37:13Z</time>
      </trkpt>
      <trkpt lat="43.92055" lon="1.87153">
        <ele>202</ele>
        <time>2012-12-13T09:37:21Z</time>
      </trkpt>
      <trkpt lat="43.92059" lon="1.87141">
        <ele>202</ele>
        <time>2012-12-13T09:37:31Z</time>
      </trkpt>
      <trkpt lat="43.92067" lon="1.87132">
        <ele>203</ele>
        <time>2012-12-13T09:37:41Z</time>
      </trkpt>
      <trkpt lat="43.92073" lon="1.87121">
        <ele>201</ele>
        <time>2012-12-13T09:37:48Z</time>
      </trkpt>
      <trkpt lat="43.92073" lon="1.87106">
        <ele>199</ele>
        <time>2012-12-13T09:37:59Z</time>
      </trkpt>
      <trkpt lat="43.92075" lon="1.87091">
        <ele>201</ele>
        <time>2012-12-13T09:38:13Z</time>
      </trkpt>
      <trkpt lat="43.92081" lon="1.8708">
        <ele>202</ele>
        <time>2012-12-13T09:38:22Z</time>
      </trkpt>
      <trkpt lat="43.92086" lon="1.87069">
        <ele>201</ele>
        <time>2012-12-13T09:38:31Z</time>
      </trkpt>
      <trkpt lat="43.92087" lon="1.87056">
        <ele>201</ele>
        <time>2012-12-13T09:38:39Z</time>
      </trkpt>
      <trkpt lat="43.92091" lon="1.87044">
        <ele>199</ele>
        <time>2012-12-13T09:38:49Z</time>
      </trkpt>
      <trkpt lat="43.92093" lon="1.8703">
        <ele>199</ele>
        <time>2012-12-13T09:38:59Z</time>
      </trkpt>
      <trkpt lat="43.92095" lon="1.87017">
        <ele>199</ele>
        <time>2012-12-13T09:39:08Z</time>
      </trkpt>
      <trkpt lat="43.92097" lon="1.87004">
        <ele>200</ele>
        <time>2012-12-13T09:39:18Z</time>
      </trkpt>
      <trkpt lat="43.92099" lon="1.86992">
        <ele>200</ele>
        <time>2012-12-13T09:39:26Z</time>
      </trkpt>
      <trkpt lat="43.92103" lon="1.8698">
        <ele>201</ele>
        <time>2012-12-13T09:39:35Z</time>
      </trkpt>
      <trkpt lat="43.92105" lon="1.86969">
        <ele>203</ele>
        <time>2012-12-13T09:39:51Z</time>
      </trkpt>
      <trkpt lat="43.92109" lon="1.86967">
        <ele>207</ele>
        <time>2012-12-13T09:40:11Z</time>
      </trkpt>
      <trkpt lat="43.92119" lon="1.86969">
        <ele>206</ele>
        <time>2012-12-13T09:40:23Z</time>
      </trkpt>
      <trkpt lat="43.92128" lon="1.86966">
        <ele>205</ele>
        <time>2012-12-13T09:40:37Z</time>
      </trkpt>
      <trkpt lat="43.92138" lon="1.86966">
        <ele>203</ele>
        <time>2012-12-13T09:40:47Z</time>
      </trkpt>
      <trkpt lat="43.92147" lon="1.86969">
        <ele>200</ele>
        <time>2012-12-13T09:40:57Z</time>
      </trkpt>
      <trkpt lat="43.92156" lon="1.86972">
        <ele>200</ele>
        <time>2012-12-13T09:41:11Z</time>
      </trkpt>
      <trkpt lat="43.92165" lon="1.86974">
        <ele>200</ele>
        <time>2012-12-13T09:41:15Z</time>
      </trkpt>
      <trkpt lat="43.92175" lon="1.86976">
        <ele>201</ele>
        <time>2012-12-13T09:41:29Z</time>
      </trkpt>
      <trkpt lat="43.92185" lon="1.86975">
        <ele>198</ele>
        <time>2012-12-13T09:41:39Z</time>
      </trkpt>
      <trkpt lat="43.92195" lon="1.86974">
        <ele>198</ele>
        <time>2012-12-13T09:41:49Z</time>
      </trkpt>
      <trkpt lat="43.92204" lon="1.86975">
        <ele>195</ele>
        <time>2012-12-13T09:41:57Z</time>
      </trkpt>
      <trkpt lat="43.92213" lon="1.8698">
        <ele>194</ele>
        <time>2012-12-13T09:42:09Z</time>
      </trkpt>
      <trkpt lat="43.92223" lon="1.86982">
        <ele>191</ele>
        <time>2012-12-13T09:42:20Z</time>
      </trkpt>
      <trkpt lat="43.92231" lon="1.86985">
        <ele>188</ele>
        <time>2012-12-13T09:42:29Z</time>
      </trkpt>
      <trkpt lat="43.92241" lon="1.86984">
        <ele>185</ele>
        <time>2012-12-13T09:42:36Z</time>
      </trkpt>
      <trkpt lat="43.92246" lon="1.86983">
        <ele>184</ele>
        <time>2012-12-13T09:42:39Z</time>
      </trkpt>
      <trkpt lat="43.9225" lon="1.86983">
        <ele>183</ele>
        <time>2012-12-13T09:42:43Z</time>
      </trkpt>
      <trkpt lat="43.92255" lon="1.86983">
        <ele>182</ele>
        <time>2012-12-13T09:42:47Z</time>
      </trkpt>
      <trkpt lat="43.9226" lon="1.86983">
        <ele>181</ele>
        <time>2012-12-13T09:42:52Z</time>
      </trkpt>
      <trkpt lat="43.92265" lon="1.86982">
        <ele>180</ele>
        <time>2012-12-13T09:42:56Z</time>
      </trkpt>
      <trkpt lat="43.92274" lon="1.86984">
        <ele>178</ele>
        <time>2012-12-13T09:43:06Z</time>
      </trkpt>
      <trkpt lat="43.92284" lon="1.86989">
        <ele>176</ele>
        <time>2012-12-13T09:43:15Z</time>
      </trkpt>
      <trkpt lat="43.92293" lon="1.86987">
        <ele>177</ele>
        <time>2012-12-13T09:43:27Z</time>
      </trkpt>
      <trkpt lat="43.92295" lon="1.8698">
        <ele>176</ele>
        <time>2012-12-13T09:43:32Z</time>
      </trkpt>
      <trkpt lat="43.92298" lon="1.86974">
        <ele>176</ele>
        <time>2012-12-13T09:43:36Z</time>
      </trkpt>
      <trkpt lat="43.923" lon="1.86968">
        <ele>175</ele>
        <time>2012-12-13T09:43:41Z</time>
      </trkpt>
      <trkpt lat="43.92305" lon="1.86967">
        <ele>175</ele>
        <time>2012-12-13T09:43:49Z</time>
      </trkpt>
      <trkpt lat="43.92314" lon="1.86971">
        <ele>174</ele>
        <time>2012-12-13T09:43:59Z</time>
      </trkpt>
      <trkpt lat="43.92319" lon="1.86971">
        <ele>173</ele>
        <time>2012-12-13T09:44:04Z</time>
      </trkpt>
      <trkpt lat="43.92324" lon="1.86972">
        <ele>172</ele>
        <time>2012-12-13T09:44:08Z</time>
      </trkpt>
      <trkpt lat="43.92329" lon="1.86974">
        <ele>172</ele>
        <time>2012-12-13T09:44:14Z</time>
      </trkpt>
      <trkpt lat="43.92334" lon="1.86975">
        <ele>171</ele>
        <time>2012-12-13T09:44:19Z</time>
      </trkpt>
      <trkpt lat="43.92343" lon="1.86979">
        <ele>172</ele>
        <time>2012-12-13T09:44:27Z</time>
      </trkpt>
      <trkpt lat="43.92348" lon="1.86982">
        <ele>172</ele>
        <time>2012-12-13T09:44:33Z</time>
      </trkpt>
      <trkpt lat="43.92352" lon="1.86985">
        <ele>173</ele>
        <time>2012-12-13T09:44:38Z</time>
      </trkpt>
      <trkpt lat="43.92359" lon="1.86988">
        <ele>174</ele>
        <time>2012-12-13T09:44:45Z</time>
      </trkpt>
      <trkpt lat="43.92364" lon="1.86991">
        <ele>174</ele>
        <time>2012-12-13T09:44:50Z</time>
      </trkpt>
      <trkpt lat="43.92368" lon="1.86995">
        <ele>174</ele>
        <time>2012-12-13T09:44:54Z</time>
      </trkpt>
      <trkpt lat="43.92373" lon="1.86998">
        <ele>174</ele>
        <time>2012-12-13T09:44:59Z</time>
      </trkpt>
      <trkpt lat="43.92379" lon="1.87004">
        <ele>175</ele>
        <time>2012-12-13T09:45:07Z</time>
      </trkpt>
      <trkpt lat="43.92384" lon="1.87009">
        <ele>175</ele>
        <time>2012-12-13T09:45:11Z</time>
      </trkpt>
      <trkpt lat="43.92391" lon="1.87017">
        <ele>175</ele>
        <time>2012-12-13T09:45:20Z</time>
      </trkpt>
      <trkpt lat="43.924" lon="1.87019">
        <ele>177</ele>
        <time>2012-12-13T09:45:27Z</time>
      </trkpt>
      <trkpt lat="43.92405" lon="1.87024">
        <ele>177</ele>
        <time>2012-12-13T09:45:35Z</time>
      </trkpt>
      <trkpt lat="43.9241" lon="1.87028">
        <ele>176</ele>
        <time>2012-12-13T09:45:41Z</time>
      </trkpt>
      <trkpt lat="43.92417" lon="1.87033">
        <ele>177</ele>
        <time>2012-12-13T09:45:48Z</time>
      </trkpt>
      <trkpt lat="43.92421" lon="1.87037">
        <ele>178</ele>
        <time>2012-12-13T09:45:53Z</time>
      </trkpt>
      <trkpt lat="43.92426" lon="1.8704">
        <ele>178</ele>
        <time>2012-12-13T09:45:59Z</time>
      </trkpt>
      <trkpt lat="43.92431" lon="1.87042">
        <ele>179</ele>
        <time>2012-12-13T09:46:05Z</time>
      </trkpt>
      <trkpt lat="43.92436" lon="1.87044">
        <ele>182</ele>
        <time>2012-12-13T09:46:13Z</time>
      </trkpt>
      <trkpt lat="43.9244" lon="1.87046">
        <ele>182</ele>
        <time>2012-12-13T09:46:17Z</time>
      </trkpt>
      <trkpt lat="43.92444" lon="1.87049">
        <ele>182</ele>
        <time>2012-12-13T09:46:25Z</time>
      </trkpt>
      <trkpt lat="43.92449" lon="1.87052">
        <ele>183</ele>
        <time>2012-12-13T09:46:29Z</time>
      </trkpt>
      <trkpt lat="43.92453" lon="1.87055">
        <ele>185</ele>
        <time>2012-12-13T09:46:35Z</time>
      </trkpt>
      <trkpt lat="43.9246" lon="1.87058">
        <ele>186</ele>
        <time>2012-12-13T09:46:45Z</time>
      </trkpt>
      <trkpt lat="43.92464" lon="1.8706">
        <ele>186</ele>
        <time>2012-12-13T09:46:51Z</time>
      </trkpt>
      <trkpt lat="43.92473" lon="1.87065">
        <ele>188</ele>
        <time>2012-12-13T09:47:02Z</time>
      </trkpt>
      <trkpt lat="43.92477" lon="1.87068">
        <ele>189</ele>
        <time>2012-12-13T09:47:10Z</time>
      </trkpt>
      <trkpt lat="43.92482" lon="1.87071">
        <ele>189</ele>
        <time>2012-12-13T09:47:17Z</time>
      </trkpt>
      <trkpt lat="43.92486" lon="1.87075">
        <ele>191</ele>
        <time>2012-12-13T09:47:23Z</time>
      </trkpt>
      <trkpt lat="43.92491" lon="1.87077">
        <ele>193</ele>
        <time>2012-12-13T09:47:32Z</time>
      </trkpt>
      <trkpt lat="43.92495" lon="1.8708">
        <ele>195</ele>
        <time>2012-12-13T09:47:40Z</time>
      </trkpt>
      <trkpt lat="43.92499" lon="1.87085">
        <ele>196</ele>
        <time>2012-12-13T09:47:46Z</time>
      </trkpt>
      <trkpt lat="43.92502" lon="1.8709">
        <ele>196</ele>
        <time>2012-12-13T09:47:53Z</time>
      </trkpt>
      <trkpt lat="43.92503" lon="1.87103">
        <ele>196</ele>
        <time>2012-12-13T09:48:05Z</time>
      </trkpt>
      <trkpt lat="43.92509" lon="1.87114">
        <ele>194</ele>
        <time>2012-12-13T09:48:16Z</time>
      </trkpt>
      <trkpt lat="43.92518" lon="1.87117">
        <ele>195</ele>
        <time>2012-12-13T09:48:30Z</time>
      </trkpt>
      <trkpt lat="43.92523" lon="1.87115">
        <ele>198</ele>
        <time>2012-12-13T09:48:36Z</time>
      </trkpt>
      <trkpt lat="43.92527" lon="1.87112">
        <ele>200</ele>
        <time>2012-12-13T09:48:42Z</time>
      </trkpt>
      <trkpt lat="43.92531" lon="1.87108">
        <ele>201</ele>
        <time>2012-12-13T09:48:48Z</time>
      </trkpt>
      <trkpt lat="43.92536" lon="1.87106">
        <ele>203</ele>
        <time>2012-12-13T09:48:57Z</time>
      </trkpt>
      <trkpt lat="43.92541" lon="1.87103">
        <ele>204</ele>
        <time>2012-12-13T09:49:05Z</time>
      </trkpt>
      <trkpt lat="43.92545" lon="1.871">
        <ele>206</ele>
        <time>2012-12-13T09:49:12Z</time>
      </trkpt>
      <trkpt lat="43.92552" lon="1.87096">
        <ele>207</ele>
        <time>2012-12-13T09:49:20Z</time>
      </trkpt>
      <trkpt lat="43.92556" lon="1.87091">
        <ele>209</ele>
        <time>2012-12-13T09:49:25Z</time>
      </trkpt>
      <trkpt lat="43.92561" lon="1.87088">
        <ele>211</ele>
        <time>2012-12-13T09:49:33Z</time>
      </trkpt>
      <trkpt lat="43.92566" lon="1.87086">
        <ele>211</ele>
        <time>2012-12-13T09:49:38Z</time>
      </trkpt>
      <trkpt lat="43.9257" lon="1.87083">
        <ele>212</ele>
        <time>2012-12-13T09:49:44Z</time>
      </trkpt>
      <trkpt lat="43.92575" lon="1.87082">
        <ele>212</ele>
        <time>2012-12-13T09:49:54Z</time>
      </trkpt>
      <trkpt lat="43.92579" lon="1.87079">
        <ele>211</ele>
        <time>2012-12-13T09:49:59Z</time>
      </trkpt>
      <trkpt lat="43.92584" lon="1.87078">
        <ele>212</ele>
        <time>2012-12-13T09:50:05Z</time>
      </trkpt>
      <trkpt lat="43.9259" lon="1.87078">
        <ele>214</ele>
        <time>2012-12-13T09:50:11Z</time>
      </trkpt>
      <trkpt lat="43.92594" lon="1.87079">
        <ele>215</ele>
        <time>2012-12-13T09:50:16Z</time>
      </trkpt>
      <trkpt lat="43.92599" lon="1.87078">
        <ele>215</ele>
        <time>2012-12-13T09:50:21Z</time>
      </trkpt>
      <trkpt lat="43.92604" lon="1.87076">
        <ele>216</ele>
        <time>2012-12-13T09:50:27Z</time>
      </trkpt>
      <trkpt lat="43.92609" lon="1.87075">
        <ele>217</ele>
        <time>2012-12-13T09:50:35Z</time>
      </trkpt>
      <trkpt lat="43.92614" lon="1.87076">
        <ele>217</ele>
        <time>2012-12-13T09:50:40Z</time>
      </trkpt>
      <trkpt lat="43.92619" lon="1.87076">
        <ele>217</ele>
        <time>2012-12-13T09:50:45Z</time>
      </trkpt>
      <trkpt lat="43.92624" lon="1.87078">
        <ele>217</ele>
        <time>2012-12-13T09:50:52Z</time>
      </trkpt>
      <trkpt lat="43.9263" lon="1.87077">
        <ele>217</ele>
        <time>2012-12-13T09:50:56Z</time>
      </trkpt>
      <trkpt lat="43.92635" lon="1.87075">
        <ele>218</ele>
        <time>2012-12-13T09:51:02Z</time>
      </trkpt>
      <trkpt lat="43.9264" lon="1.87073">
        <ele>219</ele>
        <time>2012-12-13T09:51:07Z</time>
      </trkpt>
      <trkpt lat="43.92646" lon="1.87071">
        <ele>220</ele>
        <time>2012-12-13T09:51:12Z</time>
      </trkpt>
      <trkpt lat="43.92651" lon="1.87067">
        <ele>221</ele>
        <time>2012-12-13T09:51:18Z</time>
      </trkpt>
      <trkpt lat="43.92656" lon="1.87063">
        <ele>222</ele>
        <time>2012-12-13T09:51:24Z</time>
      </trkpt>
      <trkpt lat="43.92661" lon="1.87059">
        <ele>223</ele>
        <time>2012-12-13T09:51:29Z</time>
      </trkpt>
      <trkpt lat="43.92666" lon="1.87056">
        <ele>224</ele>
        <time>2012-12-13T09:51:34Z</time>
      </trkpt>
      <trkpt lat="43.92673" lon="1.87053">
        <ele>224</ele>
        <time>2012-12-13T09:51:40Z</time>
      </trkpt>
      <trkpt lat="43.92678" lon="1.87049">
        <ele>225</ele>
        <time>2012-12-13T09:51:45Z</time>
      </trkpt>
      <trkpt lat="43.92682" lon="1.87046">
        <ele>225</ele>
        <time>2012-12-13T09:51:50Z</time>
      </trkpt>
      <trkpt lat="43.92686" lon="1.87042">
        <ele>224</ele>
        <time>2012-12-13T09:51:54Z</time>
      </trkpt>
      <trkpt lat="43.9269" lon="1.87039">
        <ele>224</ele>
        <time>2012-12-13T09:51:59Z</time>
      </trkpt>
      <trkpt lat="43.92696" lon="1.87034">
        <ele>224</ele>
        <time>2012-12-13T09:52:07Z</time>
      </trkpt>
      <trkpt lat="43.92701" lon="1.87032">
        <ele>225</ele>
        <time>2012-12-13T09:52:13Z</time>
      </trkpt>
      <trkpt lat="43.92706" lon="1.8703">
        <ele>225</ele>
        <time>2012-12-13T09:52:17Z</time>
      </trkpt>
      <trkpt lat="43.92711" lon="1.87028">
        <ele>226</ele>
        <time>2012-12-13T09:52:23Z</time>
      </trkpt>
      <trkpt lat="43.92718" lon="1.87025">
        <ele>225</ele>
        <time>2012-12-13T09:52:30Z</time>
      </trkpt>
      <trkpt lat="43.92728" lon="1.87022">
        <ele>227</ele>
        <time>2012-12-13T09:52:40Z</time>
      </trkpt>
      <trkpt lat="43.92738" lon="1.87018">
        <ele>230</ele>
        <time>2012-12-13T09:52:52Z</time>
      </trkpt>
      <trkpt lat="43.92743" lon="1.87016">
        <ele>230</ele>
        <time>2012-12-13T09:52:58Z</time>
      </trkpt>
      <trkpt lat="43.92752" lon="1.87015">
        <ele>230</ele>
        <time>2012-12-13T09:53:08Z</time>
      </trkpt>
      <trkpt lat="43.92761" lon="1.87014">
        <ele>231</ele>
        <time>2012-12-13T09:53:18Z</time>
      </trkpt>
      <trkpt lat="43.92771" lon="1.87012">
        <ele>230</ele>
        <time>2012-12-13T09:53:28Z</time>
      </trkpt>
      <trkpt lat="43.92781" lon="1.87009">
        <ele>230</ele>
        <time>2012-12-13T09:53:38Z</time>
      </trkpt>
      <trkpt lat="43.92787" lon="1.87009">
        <ele>231</ele>
        <time>2012-12-13T09:53:43Z</time>
      </trkpt>
      <trkpt lat="43.92791" lon="1.87006">
        <ele>231</ele>
        <time>2012-12-13T09:53:47Z</time>
      </trkpt>
      <trkpt lat="43.92795" lon="1.87003">
        <ele>231</ele>
        <time>2012-12-13T09:53:52Z</time>
      </trkpt>
      <trkpt lat="43.928" lon="1.87">
        <ele>231</ele>
        <time>2012-12-13T09:53:57Z</time>
      </trkpt>
      <trkpt lat="43.92804" lon="1.86999">
        <ele>231</ele>
        <time>2012-12-13T09:54:02Z</time>
      </trkpt>
      <trkpt lat="43.92809" lon="1.86997">
        <ele>231</ele>
        <time>2012-12-13T09:54:08Z</time>
      </trkpt>
      <trkpt lat="43.92814" lon="1.86995">
        <ele>232</ele>
        <time>2012-12-13T09:54:13Z</time>
      </trkpt>
      <trkpt lat="43.92819" lon="1.86993">
        <ele>232</ele>
        <time>2012-12-13T09:54:18Z</time>
      </trkpt>
      <trkpt lat="43.92824" lon="1.86993">
        <ele>231</ele>
        <time>2012-12-13T09:54:23Z</time>
      </trkpt>
      <trkpt lat="43.9283" lon="1.86992">
        <ele>231</ele>
        <time>2012-12-13T09:54:27Z</time>
      </trkpt>
      <trkpt lat="43.92834" lon="1.86991">
        <ele>231</ele>
        <time>2012-12-13T09:54:33Z</time>
      </trkpt>
      <trkpt lat="43.92839" lon="1.86988">
        <ele>232</ele>
        <time>2012-12-13T09:54:38Z</time>
      </trkpt>
      <trkpt lat="43.92844" lon="1.86987">
        <ele>233</ele>
        <time>2012-12-13T09:54:42Z</time>
      </trkpt>
      <trkpt lat="43.92848" lon="1.86985">
        <ele>233</ele>
        <time>2012-12-13T09:54:46Z</time>
      </trkpt>
      <trkpt lat="43.92853" lon="1.86983">
        <ele>235</ele>
        <time>2012-12-13T09:54:51Z</time>
      </trkpt>
      <trkpt lat="43.92858" lon="1.86981">
        <ele>236</ele>
        <time>2012-12-13T09:54:57Z</time>
      </trkpt>
      <trkpt lat="43.92863" lon="1.8698">
        <ele>237</ele>
        <time>2012-12-13T09:55:02Z</time>
      </trkpt>
      <trkpt lat="43.92868" lon="1.8698">
        <ele>237</ele>
        <time>2012-12-13T09:55:07Z</time>
      </trkpt>
      <trkpt lat="43.92873" lon="1.8698">
        <ele>237</ele>
        <time>2012-12-13T09:55:12Z</time>
      </trkpt>
      <trkpt lat="43.92878" lon="1.86978">
        <ele>236</ele>
        <time>2012-12-13T09:55:17Z</time>
      </trkpt>
      <trkpt lat="43.92883" lon="1.86976">
        <ele>236</ele>
        <time>2012-12-13T09:55:24Z</time>
      </trkpt>
      <trkpt lat="43.92888" lon="1.86974">
        <ele>238</ele>
        <time>2012-12-13T09:55:30Z</time>
      </trkpt>
      <trkpt lat="43.92893" lon="1.86972">
        <ele>238</ele>
        <time>2012-12-13T09:55:33Z</time>
      </trkpt>
      <trkpt lat="43.92898" lon="1.86971">
        <ele>239</ele>
        <time>2012-12-13T09:55:39Z</time>
      </trkpt>
      <trkpt lat="43.92902" lon="1.86973">
        <ele>238</ele>
        <time>2012-12-13T09:55:43Z</time>
      </trkpt>
      <trkpt lat="43.92905" lon="1.86973">
        <ele>237</ele>
        <time>2012-12-13T09:55:55Z</time>
      </trkpt>
      <trkpt lat="43.92905" lon="1.86978">
        <ele>238</ele>
        <time>2012-12-13T09:56:31Z</time>
      </trkpt>
      <trkpt lat="43.92905" lon="1.86985">
        <ele>237</ele>
        <time>2012-12-13T09:56:36Z</time>
      </trkpt>
      <trkpt lat="43.92905" lon="1.86992">
        <ele>236</ele>
        <time>2012-12-13T09:56:41Z</time>
      </trkpt>
      <trkpt lat="43.92905" lon="1.87001">
        <ele>235</ele>
        <time>2012-12-13T09:56:48Z</time>
      </trkpt>
      <trkpt lat="43.92905" lon="1.87008">
        <ele>233</ele>
        <time>2012-12-13T09:56:53Z</time>
      </trkpt>
      <trkpt lat="43.92906" lon="1.87014">
        <ele>233</ele>
        <time>2012-12-13T09:56:58Z</time>
      </trkpt>
      <trkpt lat="43.92907" lon="1.87021">
        <ele>232</ele>
        <time>2012-12-13T09:57:03Z</time>
      </trkpt>
      <trkpt lat="43.92908" lon="1.87029">
        <ele>231</ele>
        <time>2012-12-13T09:57:08Z</time>
      </trkpt>
      <trkpt lat="43.9291" lon="1.87035">
        <ele>230</ele>
        <time>2012-12-13T09:57:14Z</time>
      </trkpt>
      <trkpt lat="43.92912" lon="1.87055">
        <ele>224</ele>
        <time>2012-12-13T09:57:29Z</time>
      </trkpt>
      <trkpt lat="43.92913" lon="1.87067">
        <ele>221</ele>
        <time>2012-12-13T09:57:37Z</time>
      </trkpt>
      <trkpt lat="43.92917" lon="1.87079">
        <ele>218</ele>
        <time>2012-12-13T09:57:47Z</time>
      </trkpt>
      <trkpt lat="43.9292" lon="1.87087">
        <ele>218</ele>
        <time>2012-12-13T09:57:53Z</time>
      </trkpt>
      <trkpt lat="43.92924" lon="1.87098">
        <ele>218</ele>
        <time>2012-12-13T09:58:00Z</time>
      </trkpt>
      <trkpt lat="43.92927" lon="1.87103">
        <ele>218</ele>
        <time>2012-12-13T09:58:05Z</time>
      </trkpt>
      <trkpt lat="43.92928" lon="1.87111">
        <ele>218</ele>
        <time>2012-12-13T09:58:11Z</time>
      </trkpt>
      <trkpt lat="43.9293" lon="1.87118">
        <ele>217</ele>
        <time>2012-12-13T09:58:16Z</time>
      </trkpt>
      <trkpt lat="43.92934" lon="1.87127">
        <ele>215</ele>
        <time>2012-12-13T09:58:25Z</time>
      </trkpt>
      <trkpt lat="43.9294" lon="1.87131">
        <ele>213</ele>
        <time>2012-12-13T09:58:40Z</time>
      </trkpt>
      <trkpt lat="43.92947" lon="1.87122">
        <ele>215</ele>
        <time>2012-12-13T09:58:51Z</time>
      </trkpt>
      <trkpt lat="43.9295" lon="1.87116">
        <ele>216</ele>
        <time>2012-12-13T09:58:55Z</time>
      </trkpt>
      <trkpt lat="43.92951" lon="1.87108">
        <ele>217</ele>
        <time>2012-12-13T09:59:00Z</time>
      </trkpt>
      <trkpt lat="43.92953" lon="1.87102">
        <ele>218</ele>
        <time>2012-12-13T09:59:04Z</time>
      </trkpt>
      <trkpt lat="43.92954" lon="1.87096">
        <ele>219</ele>
        <time>2012-12-13T09:59:08Z</time>
      </trkpt>
      <trkpt lat="43.92953" lon="1.87089">
        <ele>220</ele>
        <time>2012-12-13T09:59:13Z</time>
      </trkpt>
      <trkpt lat="43.92955" lon="1.87081">
        <ele>220</ele>
        <time>2012-12-13T09:59:18Z</time>
      </trkpt>
      <trkpt lat="43.92954" lon="1.87073">
        <ele>222</ele>
        <time>2012-12-13T09:59:24Z</time>
      </trkpt>
      <trkpt lat="43.92957" lon="1.87066">
        <ele>223</ele>
        <time>2012-12-13T09:59:41Z</time>
      </trkpt>
      <trkpt lat="43.92958" lon="1.8706">
        <ele>224</ele>
        <time>2012-12-13T09:59:48Z</time>
      </trkpt>
      <trkpt lat="43.92958" lon="1.87053">
        <ele>224</ele>
        <time>2012-12-13T09:59:53Z</time>
      </trkpt>
      <trkpt lat="43.92959" lon="1.87046">
        <ele>225</ele>
        <time>2012-12-13T09:59:57Z</time>
      </trkpt>
      <trkpt lat="43.92958" lon="1.87037">
        <ele>224</ele>
        <time>2012-12-13T10:00:05Z</time>
      </trkpt>
      <trkpt lat="43.92959" lon="1.8703">
        <ele>224</ele>
        <time>2012-12-13T10:00:11Z</time>
      </trkpt>
      <trkpt lat="43.9296" lon="1.87022">
        <ele>223</ele>
        <time>2012-12-13T10:00:16Z</time>
      </trkpt>
      <trkpt lat="43.9296" lon="1.87015">
        <ele>223</ele>
        <time>2012-12-13T10:00:20Z</time>
      </trkpt>
      <trkpt lat="43.92962" lon="1.87008">
        <ele>224</ele>
        <time>2012-12-13T10:00:25Z</time>
      </trkpt>
      <trkpt lat="43.92963" lon="1.87">
        <ele>223</ele>
        <time>2012-12-13T10:00:31Z</time>
      </trkpt>
      <trkpt lat="43.92963" lon="1.86993">
        <ele>223</ele>
        <time>2012-12-13T10:00:35Z</time>
      </trkpt>
      <trkpt lat="43.92965" lon="1.86987">
        <ele>224</ele>
        <time>2012-12-13T10:00:39Z</time>
      </trkpt>
      <trkpt lat="43.92966" lon="1.8698">
        <ele>224</ele>
        <time>2012-12-13T10:00:43Z</time>
      </trkpt>
      <trkpt lat="43.92968" lon="1.86975">
        <ele>225</ele>
        <time>2012-12-13T10:00:48Z</time>
      </trkpt>
      <trkpt lat="43.9297" lon="1.86968">
        <ele>225</ele>
        <time>2012-12-13T10:00:53Z</time>
      </trkpt>
      <trkpt lat="43.92974" lon="1.86956">
        <ele>224</ele>
        <time>2012-12-13T10:01:02Z</time>
      </trkpt>
      <trkpt lat="43.92975" lon="1.8695">
        <ele>225</ele>
        <time>2012-12-13T10:01:06Z</time>
      </trkpt>
      <trkpt lat="43.92975" lon="1.86943">
        <ele>225</ele>
        <time>2012-12-13T10:01:14Z</time>
      </trkpt>
      <trkpt lat="43.92975" lon="1.86935">
        <ele>224</ele>
        <time>2012-12-13T10:01:19Z</time>
      </trkpt>
      <trkpt lat="43.92976" lon="1.86929">
        <ele>224</ele>
        <time>2012-12-13T10:01:24Z</time>
      </trkpt>
      <trkpt lat="43.92978" lon="1.86922">
        <ele>223</ele>
        <time>2012-12-13T10:01:29Z</time>
      </trkpt>
      <trkpt lat="43.92981" lon="1.86908">
        <ele>224</ele>
        <time>2012-12-13T10:01:40Z</time>
      </trkpt>
      <trkpt lat="43.92984" lon="1.86896">
        <ele>223</ele>
        <time>2012-12-13T10:01:50Z</time>
      </trkpt>
      <trkpt lat="43.92986" lon="1.86883">
        <ele>222</ele>
        <time>2012-12-13T10:01:57Z</time>
      </trkpt>
      <trkpt lat="43.92992" lon="1.86871">
        <ele>223</ele>
        <time>2012-12-13T10:02:08Z</time>
      </trkpt>
      <trkpt lat="43.92993" lon="1.86859">
        <ele>223</ele>
        <time>2012-12-13T10:02:17Z</time>
      </trkpt>
      <trkpt lat="43.92994" lon="1.86845">
        <ele>220</ele>
        <time>2012-12-13T10:02:28Z</time>
      </trkpt>
      <trkpt lat="43.92998" lon="1.86829">
        <ele>217</ele>
        <time>2012-12-13T10:02:41Z</time>
      </trkpt>
      <trkpt lat="43.93003" lon="1.86818">
        <ele>216</ele>
        <time>2012-12-13T10:02:49Z</time>
      </trkpt>
      <trkpt lat="43.93005" lon="1.86803">
        <ele>217</ele>
        <time>2012-12-13T10:02:59Z</time>
      </trkpt>
      <trkpt lat="43.93004" lon="1.86788">
        <ele>216</ele>
        <time>2012-12-13T10:03:08Z</time>
      </trkpt>
      <trkpt lat="43.93003" lon="1.86775">
        <ele>216</ele>
        <time>2012-12-13T10:03:15Z</time>
      </trkpt>
      <trkpt lat="43.93001" lon="1.86761">
        <ele>218</ele>
        <time>2012-12-13T10:03:25Z</time>
      </trkpt>
      <trkpt lat="43.92998" lon="1.86749">
        <ele>219</ele>
        <time>2012-12-13T10:03:35Z</time>
      </trkpt>
      <trkpt lat="43.92997" lon="1.86735">
        <ele>219</ele>
        <time>2012-12-13T10:03:43Z</time>
      </trkpt>
      <trkpt lat="43.92998" lon="1.86721">
        <ele>219</ele>
        <time>2012-12-13T10:03:52Z</time>
      </trkpt>
      <trkpt lat="43.93" lon="1.86708">
        <ele>220</ele>
        <time>2012-12-13T10:04:01Z</time>
      </trkpt>
      <trkpt lat="43.93006" lon="1.86697">
        <ele>223</ele>
        <time>2012-12-13T10:04:43Z</time>
      </trkpt>
      <trkpt lat="43.93016" lon="1.86699">
        <ele>222</ele>
        <time>2012-12-13T10:04:54Z</time>
      </trkpt>
      <trkpt lat="43.93023" lon="1.86708">
        <ele>221</ele>
        <time>2012-12-13T10:05:03Z</time>
      </trkpt>
      <trkpt lat="43.93026" lon="1.86712">
        <ele>219</ele>
        <time>2012-12-13T10:05:18Z</time>
      </trkpt>
      <trkpt lat="43.9303" lon="1.86715">
        <ele>219</ele>
        <time>2012-12-13T10:05:23Z</time>
      </trkpt>
      <trkpt lat="43.93037" lon="1.86723">
        <ele>217</ele>
        <time>2012-12-13T10:05:32Z</time>
      </trkpt>
      <trkpt lat="43.93045" lon="1.8673">
        <ele>215</ele>
        <time>2012-12-13T10:05:42Z</time>
      </trkpt>
      <trkpt lat="43.93053" lon="1.86738">
        <ele>214</ele>
        <time>2012-12-13T10:05:52Z</time>
      </trkpt>
      <trkpt lat="43.93058" lon="1.8674">
        <ele>213</ele>
        <time>2012-12-13T10:05:57Z</time>
      </trkpt>
      <trkpt lat="43.93064" lon="1.86741">
        <ele>213</ele>
        <time>2012-12-13T10:06:03Z</time>
      </trkpt>
      <trkpt lat="43.93069" lon="1.86742">
        <ele>213</ele>
        <time>2012-12-13T10:06:07Z</time>
      </trkpt>
      <trkpt lat="43.93074" lon="1.86742">
        <ele>211</ele>
        <time>2012-12-13T10:06:12Z</time>
      </trkpt>
      <trkpt lat="43.93079" lon="1.86743">
        <ele>209</ele>
        <time>2012-12-13T10:06:18Z</time>
      </trkpt>
      <trkpt lat="43.93084" lon="1.86746">
        <ele>209</ele>
        <time>2012-12-13T10:06:24Z</time>
      </trkpt>
      <trkpt lat="43.93088" lon="1.86749">
        <ele>209</ele>
        <time>2012-12-13T10:06:29Z</time>
      </trkpt>
      <trkpt lat="43.93098" lon="1.86756">
        <ele>209</ele>
        <time>2012-12-13T10:06:37Z</time>
      </trkpt>
      <trkpt lat="43.93107" lon="1.86759">
        <ele>207</ele>
        <time>2012-12-13T10:06:46Z</time>
      </trkpt>
      <trkpt lat="43.93115" lon="1.86765">
        <ele>206</ele>
        <time>2012-12-13T10:06:57Z</time>
      </trkpt>
      <trkpt lat="43.93122" lon="1.86772">
        <ele>205</ele>
        <time>2012-12-13T10:07:06Z</time>
      </trkpt>
      <trkpt lat="43.93131" lon="1.86776">
        <ele>205</ele>
        <time>2012-12-13T10:07:14Z</time>
      </trkpt>
      <trkpt lat="43.9314" lon="1.86778">
        <ele>207</ele>
        <time>2012-12-13T10:07:25Z</time>
      </trkpt>
      <trkpt lat="43.9315" lon="1.86777">
        <ele>207</ele>
        <time>2012-12-13T10:07:33Z</time>
      </trkpt>
      <trkpt lat="43.93163" lon="1.86775">
        <ele>207</ele>
        <time>2012-12-13T10:07:45Z</time>
      </trkpt>
      <trkpt lat="43.93172" lon="1.86781">
        <ele>204</ele>
        <time>2012-12-13T10:07:53Z</time>
      </trkpt>
      <trkpt lat="43.93179" lon="1.86792">
        <ele>202</ele>
        <time>2012-12-13T10:08:01Z</time>
      </trkpt>
      <trkpt lat="43.93185" lon="1.868">
        <ele>202</ele>
        <time>2012-12-13T10:08:10Z</time>
      </trkpt>
      <trkpt lat="43.93193" lon="1.86807">
        <ele>202</ele>
        <time>2012-12-13T10:08:21Z</time>
      </trkpt>
      <trkpt lat="43.93199" lon="1.86818">
        <ele>203</ele>
        <time>2012-12-13T10:08:31Z</time>
      </trkpt>
      <trkpt lat="43.93204" lon="1.86822">
        <ele>204</ele>
        <time>2012-12-13T10:08:35Z</time>
      </trkpt>
      <trkpt lat="43.93213" lon="1.86827">
        <ele>205</ele>
        <time>2012-12-13T10:08:45Z</time>
      </trkpt>
      <trkpt lat="43.93221" lon="1.8683">
        <ele>205</ele>
        <time>2012-12-13T10:08:53Z</time>
      </trkpt>
      <trkpt lat="43.93225" lon="1.86831">
        <ele>206</ele>
        <time>2012-12-13T10:08:57Z</time>
      </trkpt>
      <trkpt lat="43.9323" lon="1.86831">
        <ele>208</ele>
        <time>2012-12-13T10:09:03Z</time>
      </trkpt>
      <trkpt lat="43.93237" lon="1.86832">
        <ele>210</ele>
        <time>2012-12-13T10:09:14Z</time>
      </trkpt>
      <trkpt lat="43.93247" lon="1.86829">
        <ele>212</ele>
        <time>2012-12-13T10:09:24Z</time>
      </trkpt>
      <trkpt lat="43.93252" lon="1.86829">
        <ele>213</ele>
        <time>2012-12-13T10:09:29Z</time>
      </trkpt>
      <trkpt lat="43.93261" lon="1.86829">
        <ele>216</ele>
        <time>2012-12-13T10:09:39Z</time>
      </trkpt>
      <trkpt lat="43.93271" lon="1.86828">
        <ele>218</ele>
        <time>2012-12-13T10:09:49Z</time>
      </trkpt>
      <trkpt lat="43.9328" lon="1.86832">
        <ele>218</ele>
        <time>2012-12-13T10:10:02Z</time>
      </trkpt>
      <trkpt lat="43.93289" lon="1.8683">
        <ele>220</ele>
        <time>2012-12-13T10:10:17Z</time>
      </trkpt>
      <trkpt lat="43.93299" lon="1.86835">
        <ele>226</ele>
        <time>2012-12-13T10:10:38Z</time>
      </trkpt>
      <trkpt lat="43.93299" lon="1.86832">
        <ele>229</ele>
        <time>2012-12-13T10:12:33Z</time>
      </trkpt>
      <trkpt lat="43.93301" lon="1.86828">
        <ele>229</ele>
        <time>2012-12-13T10:12:45Z</time>
      </trkpt>
      <trkpt lat="43.93303" lon="1.86829">
        <ele>227</ele>
        <time>2012-12-13T10:14:00Z</time>
      </trkpt>
      <trkpt lat="43.93305" lon="1.86827">
        <ele>224</ele>
        <time>2012-12-13T10:15:34Z</time>
      </trkpt>
      <trkpt lat="43.93303" lon="1.86805">
        <ele>225</ele>
        <time>2012-12-13T10:16:07Z</time>
      </trkpt>
      <trkpt lat="43.93304" lon="1.86792">
        <ele>226</ele>
        <time>2012-12-13T10:16:17Z</time>
      </trkpt>
      <trkpt lat="43.93301" lon="1.86778">
        <ele>226</ele>
        <time>2012-12-13T10:16:26Z</time>
      </trkpt>
      <trkpt lat="43.93301" lon="1.86771">
        <ele>224</ele>
        <time>2012-12-13T10:16:38Z</time>
      </trkpt>
      <trkpt lat="43.93309" lon="1.86768">
        <ele>226</ele>
        <time>2012-12-13T10:17:34Z</time>
      </trkpt>
      <trkpt lat="43.93306" lon="1.86753">
        <ele>222</ele>
        <time>2012-12-13T10:19:13Z</time>
      </trkpt>
      <trkpt lat="43.93302" lon="1.8674">
        <ele>222</ele>
        <time>2012-12-13T10:19:23Z</time>
      </trkpt>
      <trkpt lat="43.93299" lon="1.86727">
        <ele>223</ele>
        <time>2012-12-13T10:19:34Z</time>
      </trkpt>
      <trkpt lat="43.93299" lon="1.86714">
        <ele>224</ele>
        <time>2012-12-13T10:19:41Z</time>
      </trkpt>
      <trkpt lat="43.93296" lon="1.867">
        <ele>225</ele>
        <time>2012-12-13T10:19:50Z</time>
      </trkpt>
      <trkpt lat="43.93294" lon="1.86687">
        <ele>226</ele>
        <time>2012-12-13T10:19:59Z</time>
      </trkpt>
      <trkpt lat="43.93294" lon="1.86672">
        <ele>230</ele>
        <time>2012-12-13T10:20:09Z</time>
      </trkpt>
      <trkpt lat="43.93294" lon="1.86662">
        <ele>232</ele>
        <time>2012-12-13T10:20:37Z</time>
      </trkpt>
      <trkpt lat="43.933" lon="1.86649">
        <ele>232</ele>
        <time>2012-12-13T10:20:48Z</time>
      </trkpt>
      <trkpt lat="43.93313" lon="1.86644">
        <ele>232</ele>
        <time>2012-12-13T10:21:05Z</time>
      </trkpt>
      <trkpt lat="43.93323" lon="1.86636">
        <ele>231</ele>
        <time>2012-12-13T10:21:11Z</time>
      </trkpt>
      <trkpt lat="43.93331" lon="1.86626">
        <ele>230</ele>
        <time>2012-12-13T10:21:17Z</time>
      </trkpt>
      <trkpt lat="43.93342" lon="1.86614">
        <ele>224</ele>
        <time>2012-12-13T10:21:32Z</time>
      </trkpt>
      <trkpt lat="43.93351" lon="1.86608">
        <ele>224</ele>
        <time>2012-12-13T10:21:39Z</time>
      </trkpt>
      <trkpt lat="43.93359" lon="1.86597">
        <ele>224</ele>
        <time>2012-12-13T10:21:50Z</time>
      </trkpt>
      <trkpt lat="43.93366" lon="1.86588">
        <ele>226</ele>
        <time>2012-12-13T10:21:56Z</time>
      </trkpt>
      <trkpt lat="43.93374" lon="1.86573">
        <ele>227</ele>
        <time>2012-12-13T10:22:11Z</time>
      </trkpt>
      <trkpt lat="43.93381" lon="1.86562">
        <ele>228</ele>
        <time>2012-12-13T10:22:21Z</time>
      </trkpt>
      <trkpt lat="43.93389" lon="1.86553">
        <ele>228</ele>
        <time>2012-12-13T10:22:31Z</time>
      </trkpt>
      <trkpt lat="43.93398" lon="1.86546">
        <ele>228</ele>
        <time>2012-12-13T10:22:38Z</time>
      </trkpt>
      <trkpt lat="43.93407" lon="1.86541">
        <ele>227</ele>
        <time>2012-12-13T10:22:46Z</time>
      </trkpt>
      <trkpt lat="43.93415" lon="1.86531">
        <ele>227</ele>
        <time>2012-12-13T10:22:52Z</time>
      </trkpt>
      <trkpt lat="43.93419" lon="1.86517">
        <ele>226</ele>
        <time>2012-12-13T10:22:57Z</time>
      </trkpt>
      <trkpt lat="43.93421" lon="1.86504">
        <ele>226</ele>
        <time>2012-12-13T10:23:07Z</time>
      </trkpt>
      <trkpt lat="43.93432" lon="1.86497">
        <ele>227</ele>
        <time>2012-12-13T10:23:21Z</time>
      </trkpt>
      <trkpt lat="43.93441" lon="1.86492">
        <ele>227</ele>
        <time>2012-12-13T10:23:26Z</time>
      </trkpt>
      <trkpt lat="43.93451" lon="1.86492">
        <ele>227</ele>
        <time>2012-12-13T10:23:33Z</time>
      </trkpt>
      <trkpt lat="43.9346" lon="1.86492">
        <ele>226</ele>
        <time>2012-12-13T10:23:41Z</time>
      </trkpt>
      <trkpt lat="43.93471" lon="1.86495">
        <ele>230</ele>
        <time>2012-12-13T10:24:04Z</time>
      </trkpt>
      <trkpt lat="43.93482" lon="1.86492">
        <ele>232</ele>
        <time>2012-12-13T10:24:15Z</time>
      </trkpt>
      <trkpt lat="43.93492" lon="1.86489">
        <ele>234</ele>
        <time>2012-12-13T10:24:20Z</time>
      </trkpt>
      <trkpt lat="43.93503" lon="1.86486">
        <ele>237</ele>
        <time>2012-12-13T10:24:28Z</time>
      </trkpt>
      <trkpt lat="43.93512" lon="1.86491">
        <ele>239</ele>
        <time>2012-12-13T10:24:41Z</time>
      </trkpt>
      <trkpt lat="43.93523" lon="1.86484">
        <ele>238</ele>
        <time>2012-12-13T10:25:06Z</time>
      </trkpt>
      <trkpt lat="43.9353" lon="1.86473">
        <ele>238</ele>
        <time>2012-12-13T10:25:19Z</time>
      </trkpt>
      <trkpt lat="43.93526" lon="1.86469">
        <ele>237</ele>
        <time>2012-12-13T10:25:41Z</time>
      </trkpt>
      <trkpt lat="43.9352" lon="1.86454">
        <ele>236</ele>
        <time>2012-12-13T10:25:44Z</time>
      </trkpt>
      <trkpt lat="43.93513" lon="1.86446">
        <ele>234</ele>
        <time>2012-12-13T10:25:53Z</time>
      </trkpt>
      <trkpt lat="43.93506" lon="1.86424">
        <ele>231</ele>
        <time>2012-12-13T10:26:15Z</time>
      </trkpt>
      <trkpt lat="43.93499" lon="1.86415">
        <ele>231</ele>
        <time>2012-12-13T10:26:21Z</time>
      </trkpt>
      <trkpt lat="43.93497" lon="1.86401">
        <ele>232</ele>
        <time>2012-12-13T10:26:29Z</time>
      </trkpt>
      <trkpt lat="43.9349" lon="1.86393">
        <ele>231</ele>
        <time>2012-12-13T10:26:37Z</time>
      </trkpt>
      <trkpt lat="43.93481" lon="1.86389">
        <ele>230</ele>
        <time>2012-12-13T10:26:42Z</time>
      </trkpt>
      <trkpt lat="43.93477" lon="1.86377">
        <ele>230</ele>
        <time>2012-12-13T10:26:50Z</time>
      </trkpt>
      <trkpt lat="43.93474" lon="1.86364">
        <ele>231</ele>
        <time>2012-12-13T10:26:56Z</time>
      </trkpt>
      <trkpt lat="43.93474" lon="1.86351">
        <ele>230</ele>
        <time>2012-12-13T10:27:08Z</time>
      </trkpt>
      <trkpt lat="43.93477" lon="1.86339">
        <ele>229</ele>
        <time>2012-12-13T10:27:20Z</time>
      </trkpt>
      <trkpt lat="43.93478" lon="1.86327">
        <ele>230</ele>
        <time>2012-12-13T10:27:27Z</time>
      </trkpt>
      <trkpt lat="43.93482" lon="1.86308">
        <ele>237</ele>
        <time>2012-12-13T10:27:38Z</time>
      </trkpt>
      <trkpt lat="43.93477" lon="1.86295">
        <ele>240</ele>
        <time>2012-12-13T10:27:48Z</time>
      </trkpt>
      <trkpt lat="43.93471" lon="1.86284">
        <ele>242</ele>
        <time>2012-12-13T10:27:59Z</time>
      </trkpt>
      <trkpt lat="43.93474" lon="1.86271">
        <ele>242</ele>
        <time>2012-12-13T10:28:06Z</time>
      </trkpt>
      <trkpt lat="43.93473" lon="1.86258">
        <ele>241</ele>
        <time>2012-12-13T10:28:18Z</time>
      </trkpt>
      <trkpt lat="43.93469" lon="1.86247">
        <ele>241</ele>
        <time>2012-12-13T10:28:27Z</time>
      </trkpt>
      <trkpt lat="43.9346" lon="1.8623">
        <ele>241</ele>
        <time>2012-12-13T10:28:49Z</time>
      </trkpt>
      <trkpt lat="43.93455" lon="1.86216">
        <ele>244</ele>
        <time>2012-12-13T10:29:01Z</time>
      </trkpt>
      <trkpt lat="43.93453" lon="1.86198">
        <ele>247</ele>
        <time>2012-12-13T10:29:15Z</time>
      </trkpt>
      <trkpt lat="43.93453" lon="1.86185">
        <ele>250</ele>
        <time>2012-12-13T10:29:27Z</time>
      </trkpt>
      <trkpt lat="43.93451" lon="1.86172">
        <ele>251</ele>
        <time>2012-12-13T10:29:31Z</time>
      </trkpt>
      <trkpt lat="43.93454" lon="1.86153">
        <ele>252</ele>
        <time>2012-12-13T10:29:52Z</time>
      </trkpt>
      <trkpt lat="43.93453" lon="1.86136">
        <ele>250</ele>
        <time>2012-12-13T10:29:58Z</time>
      </trkpt>
      <trkpt lat="43.9345" lon="1.86124">
        <ele>250</ele>
        <time>2012-12-13T10:30:03Z</time>
      </trkpt>
      <trkpt lat="43.93449" lon="1.86117">
        <ele>253</ele>
        <time>2012-12-13T10:30:15Z</time>
      </trkpt>
      <trkpt lat="43.93445" lon="1.86104">
        <ele>254</ele>
        <time>2012-12-13T10:30:22Z</time>
      </trkpt>
      <trkpt lat="43.93438" lon="1.8609">
        <ele>255</ele>
        <time>2012-12-13T10:30:36Z</time>
      </trkpt>
      <trkpt lat="43.93432" lon="1.86078">
        <ele>253</ele>
        <time>2012-12-13T10:30:44Z</time>
      </trkpt>
      <trkpt lat="43.93431" lon="1.86065">
        <ele>251</ele>
        <time>2012-12-13T10:30:49Z</time>
      </trkpt>
      <trkpt lat="43.93432" lon="1.86052">
        <ele>251</ele>
        <time>2012-12-13T10:30:59Z</time>
      </trkpt>
      <trkpt lat="43.93435" lon="1.86034">
        <ele>251</ele>
        <time>2012-12-13T10:31:19Z</time>
      </trkpt>
      <trkpt lat="43.93437" lon="1.86019">
        <ele>251</ele>
        <time>2012-12-13T10:31:26Z</time>
      </trkpt>
      <trkpt lat="43.9343" lon="1.86006">
        <ele>246</ele>
        <time>2012-12-13T10:31:37Z</time>
      </trkpt>
      <trkpt lat="43.93423" lon="1.85996">
        <ele>243</ele>
        <time>2012-12-13T10:31:49Z</time>
      </trkpt>
      <trkpt lat="43.93418" lon="1.85984">
        <ele>241</ele>
        <time>2012-12-13T10:31:56Z</time>
      </trkpt>
      <trkpt lat="43.93413" lon="1.85977">
        <ele>238</ele>
        <time>2012-12-13T10:32:29Z</time>
      </trkpt>
      <trkpt lat="43.93405" lon="1.85955">
        <ele>236</ele>
        <time>2012-12-13T10:33:04Z</time>
      </trkpt>
      <trkpt lat="43.93392" lon="1.85943">
        <ele>237</ele>
        <time>2012-12-13T10:33:30Z</time>
      </trkpt>
      <trkpt lat="43.93385" lon="1.85933">
        <ele>239</ele>
        <time>2012-12-13T10:33:36Z</time>
      </trkpt>
      <trkpt lat="43.93377" lon="1.85922">
        <ele>241</ele>
        <time>2012-12-13T10:33:43Z</time>
      </trkpt>
      <trkpt lat="43.93369" lon="1.85914">
        <ele>245</ele>
        <time>2012-12-13T10:33:54Z</time>
      </trkpt>
      <trkpt lat="43.93365" lon="1.8591">
        <ele>247</ele>
        <time>2012-12-13T10:34:05Z</time>
      </trkpt>
      <trkpt lat="43.93358" lon="1.859">
        <ele>248</ele>
        <time>2012-12-13T10:34:14Z</time>
      </trkpt>
      <trkpt lat="43.93353" lon="1.85889">
        <ele>248</ele>
        <time>2012-12-13T10:34:29Z</time>
      </trkpt>
      <trkpt lat="43.93347" lon="1.85878">
        <ele>247</ele>
        <time>2012-12-13T10:34:35Z</time>
      </trkpt>
      <trkpt lat="43.93343" lon="1.85872">
        <ele>245</ele>
        <time>2012-12-13T10:34:48Z</time>
      </trkpt>
      <trkpt lat="43.93337" lon="1.85862">
        <ele>247</ele>
        <time>2012-12-13T10:34:56Z</time>
      </trkpt>
      <trkpt lat="43.93342" lon="1.85867">
        <ele>256</ele>
        <time>2012-12-13T10:35:38Z</time>
      </trkpt>
      <trkpt lat="43.93351" lon="1.85876">
        <ele>256</ele>
        <time>2012-12-13T10:35:50Z</time>
      </trkpt>
      <trkpt lat="43.9336" lon="1.85878">
        <ele>255</ele>
        <time>2012-12-13T10:35:56Z</time>
      </trkpt>
      <trkpt lat="43.93368" lon="1.85872">
        <ele>252</ele>
        <time>2012-12-13T10:36:05Z</time>
      </trkpt>
      <trkpt lat="43.93371" lon="1.85859">
        <ele>249</ele>
        <time>2012-12-13T10:36:16Z</time>
      </trkpt>
      <trkpt lat="43.93369" lon="1.85845">
        <ele>249</ele>
        <time>2012-12-13T10:36:27Z</time>
      </trkpt>
      <trkpt lat="43.93374" lon="1.85833">
        <ele>249</ele>
        <time>2012-12-13T10:36:34Z</time>
      </trkpt>
      <trkpt lat="43.93377" lon="1.8582">
        <ele>250</ele>
        <time>2012-12-13T10:36:42Z</time>
      </trkpt>
      <trkpt lat="43.93374" lon="1.85808">
        <ele>252</ele>
        <time>2012-12-13T10:36:48Z</time>
      </trkpt>
      <trkpt lat="43.93371" lon="1.85795">
        <ele>251</ele>
        <time>2012-12-13T10:36:58Z</time>
      </trkpt>
      <trkpt lat="43.93368" lon="1.85784">
        <ele>248</ele>
        <time>2012-12-13T10:37:07Z</time>
      </trkpt>
      <trkpt lat="43.93363" lon="1.85767">
        <ele>242</ele>
        <time>2012-12-13T10:37:23Z</time>
      </trkpt>
      <trkpt lat="43.93364" lon="1.85754">
        <ele>240</ele>
        <time>2012-12-13T10:37:32Z</time>
      </trkpt>
      <trkpt lat="43.93372" lon="1.85745">
        <ele>237</ele>
        <time>2012-12-13T10:37:43Z</time>
      </trkpt>
      <trkpt lat="43.93372" lon="1.85727">
        <ele>235</ele>
        <time>2012-12-13T10:37:56Z</time>
      </trkpt>
      <trkpt lat="43.93374" lon="1.85714">
        <ele>233</ele>
        <time>2012-12-13T10:38:03Z</time>
      </trkpt>
      <trkpt lat="43.93373" lon="1.857">
        <ele>230</ele>
        <time>2012-12-13T10:38:12Z</time>
      </trkpt>
      <trkpt lat="43.93377" lon="1.85688">
        <ele>227</ele>
        <time>2012-12-13T10:38:21Z</time>
      </trkpt>
      <trkpt lat="43.93383" lon="1.85672">
        <ele>224</ele>
        <time>2012-12-13T10:38:34Z</time>
      </trkpt>
      <trkpt lat="43.93384" lon="1.85656">
        <ele>224</ele>
        <time>2012-12-13T10:38:53Z</time>
      </trkpt>
      <trkpt lat="43.93385" lon="1.85643">
        <ele>224</ele>
        <time>2012-12-13T10:39:06Z</time>
      </trkpt>
      <trkpt lat="43.93392" lon="1.85635">
        <ele>226</ele>
        <time>2012-12-13T10:39:15Z</time>
      </trkpt>
      <trkpt lat="43.93399" lon="1.85624">
        <ele>227</ele>
        <time>2012-12-13T10:39:27Z</time>
      </trkpt>
      <trkpt lat="43.93408" lon="1.85619">
        <ele>228</ele>
        <time>2012-12-13T10:39:34Z</time>
      </trkpt>
      <trkpt lat="43.93416" lon="1.85604">
        <ele>227</ele>
        <time>2012-12-13T10:39:49Z</time>
      </trkpt>
      <trkpt lat="43.9342" lon="1.85599">
        <ele>224</ele>
        <time>2012-12-13T10:40:03Z</time>
      </trkpt>
      <trkpt lat="43.9343" lon="1.85601">
        <ele>223</ele>
        <time>2012-12-13T10:40:11Z</time>
      </trkpt>
      <trkpt lat="43.9344" lon="1.85601">
        <ele>223</ele>
        <time>2012-12-13T10:40:17Z</time>
      </trkpt>
      <trkpt lat="43.9345" lon="1.85594">
        <ele>222</ele>
        <time>2012-12-13T10:40:29Z</time>
      </trkpt>
      <trkpt lat="43.93459" lon="1.85587">
        <ele>221</ele>
        <time>2012-12-13T10:40:37Z</time>
      </trkpt>
      <trkpt lat="43.93467" lon="1.85577">
        <ele>221</ele>
        <time>2012-12-13T10:40:42Z</time>
      </trkpt>
      <trkpt lat="43.93476" lon="1.85573">
        <ele>219</ele>
        <time>2012-12-13T10:40:52Z</time>
      </trkpt>
      <trkpt lat="43.93487" lon="1.85561">
        <ele>220</ele>
        <time>2012-12-13T10:41:08Z</time>
      </trkpt>
      <trkpt lat="43.935" lon="1.85555">
        <ele>218</ele>
        <time>2012-12-13T10:41:23Z</time>
      </trkpt>
      <trkpt lat="43.9351" lon="1.85546">
        <ele>219</ele>
        <time>2012-12-13T10:41:33Z</time>
      </trkpt>
      <trkpt lat="43.93516" lon="1.85534">
        <ele>216</ele>
        <time>2012-12-13T10:41:45Z</time>
      </trkpt>
      <trkpt lat="43.93527" lon="1.85531">
        <ele>213</ele>
        <time>2012-12-13T10:41:57Z</time>
      </trkpt>
      <trkpt lat="43.93538" lon="1.85532">
        <ele>213</ele>
        <time>2012-12-13T10:42:06Z</time>
      </trkpt>
      <trkpt lat="43.93547" lon="1.8553">
        <ele>213</ele>
        <time>2012-12-13T10:42:13Z</time>
      </trkpt>
      <trkpt lat="43.93555" lon="1.85525">
        <ele>214</ele>
        <time>2012-12-13T10:42:20Z</time>
      </trkpt>
      <trkpt lat="43.93565" lon="1.85525">
        <ele>215</ele>
        <time>2012-12-13T10:42:28Z</time>
      </trkpt>
      <trkpt lat="43.93574" lon="1.85527">
        <ele>214</ele>
        <time>2012-12-13T10:42:34Z</time>
      </trkpt>
      <trkpt lat="43.93583" lon="1.85533">
        <ele>214</ele>
        <time>2012-12-13T10:42:44Z</time>
      </trkpt>
      <trkpt lat="43.93587" lon="1.85535">
        <ele>214</ele>
        <time>2012-12-13T10:42:55Z</time>
      </trkpt>
      <trkpt lat="43.93591" lon="1.85548">
        <ele>213</ele>
        <time>2012-12-13T10:43:01Z</time>
      </trkpt>
      <trkpt lat="43.93597" lon="1.85557">
        <ele>214</ele>
        <time>2012-12-13T10:43:09Z</time>
      </trkpt>
      <trkpt lat="43.93606" lon="1.85564">
        <ele>216</ele>
        <time>2012-12-13T10:43:14Z</time>
      </trkpt>
      <trkpt lat="43.93613" lon="1.85572">
        <ele>215</ele>
        <time>2012-12-13T10:43:22Z</time>
      </trkpt>
      <trkpt lat="43.93622" lon="1.85583">
        <ele>213</ele>
        <time>2012-12-13T10:43:36Z</time>
      </trkpt>
      <trkpt lat="43.9363" lon="1.8559">
        <ele>213</ele>
        <time>2012-12-13T10:43:43Z</time>
      </trkpt>
      <trkpt lat="43.93636" lon="1.85601">
        <ele>213</ele>
        <time>2012-12-13T10:43:49Z</time>
      </trkpt>
      <trkpt lat="43.93642" lon="1.85612">
        <ele>211</ele>
        <time>2012-12-13T10:44:00Z</time>
      </trkpt>
      <trkpt lat="43.93648" lon="1.85623">
        <ele>209</ele>
        <time>2012-12-13T10:44:08Z</time>
      </trkpt>
      <trkpt lat="43.93654" lon="1.85632">
        <ele>208</ele>
        <time>2012-12-13T10:44:15Z</time>
      </trkpt>
      <trkpt lat="43.93662" lon="1.85639">
        <ele>207</ele>
        <time>2012-12-13T10:44:25Z</time>
      </trkpt>
      <trkpt lat="43.93664" lon="1.85655">
        <ele>205</ele>
        <time>2012-12-13T10:44:40Z</time>
      </trkpt>
      <trkpt lat="43.93661" lon="1.85669">
        <ele>206</ele>
        <time>2012-12-13T10:44:48Z</time>
      </trkpt>
      <trkpt lat="43.93662" lon="1.85682">
        <ele>207</ele>
        <time>2012-12-13T10:44:55Z</time>
      </trkpt>
      <trkpt lat="43.93661" lon="1.85694">
        <ele>207</ele>
        <time>2012-12-13T10:45:01Z</time>
      </trkpt>
      <trkpt lat="43.93664" lon="1.85707">
        <ele>205</ele>
        <time>2012-12-13T10:45:11Z</time>
      </trkpt>
      <trkpt lat="43.93667" lon="1.85719">
        <ele>206</ele>
        <time>2012-12-13T10:45:21Z</time>
      </trkpt>
      <trkpt lat="43.93673" lon="1.8573">
        <ele>206</ele>
        <time>2012-12-13T10:45:30Z</time>
      </trkpt>
      <trkpt lat="43.93672" lon="1.85742">
        <ele>205</ele>
        <time>2012-12-13T10:45:36Z</time>
      </trkpt>
      <trkpt lat="43.93675" lon="1.85755">
        <ele>203</ele>
        <time>2012-12-13T10:45:42Z</time>
      </trkpt>
      <trkpt lat="43.93678" lon="1.8577">
        <ele>201</ele>
        <time>2012-12-13T10:45:51Z</time>
      </trkpt>
      <trkpt lat="43.93684" lon="1.85783">
        <ele>195</ele>
        <time>2012-12-13T10:46:02Z</time>
      </trkpt>
      <trkpt lat="43.9369" lon="1.85793">
        <ele>193</ele>
        <time>2012-12-13T10:46:11Z</time>
      </trkpt>
      <trkpt lat="43.93696" lon="1.85806">
        <ele>195</ele>
        <time>2012-12-13T10:46:22Z</time>
      </trkpt>
      <trkpt lat="43.93701" lon="1.85817">
        <ele>196</ele>
        <time>2012-12-13T10:46:31Z</time>
      </trkpt>
      <trkpt lat="43.93704" lon="1.85829">
        <ele>197</ele>
        <time>2012-12-13T10:46:38Z</time>
      </trkpt>
      <trkpt lat="43.9371" lon="1.8584">
        <ele>197</ele>
        <time>2012-12-13T10:46:47Z</time>
      </trkpt>
      <trkpt lat="43.93714" lon="1.85853">
        <ele>197</ele>
        <time>2012-12-13T10:47:01Z</time>
      </trkpt>
      <trkpt lat="43.93718" lon="1.85865">
        <ele>198</ele>
        <time>2012-12-13T10:47:08Z</time>
      </trkpt>
      <trkpt lat="43.9372" lon="1.85878">
        <ele>197</ele>
        <time>2012-12-13T10:47:14Z</time>
      </trkpt>
      <trkpt lat="43.93718" lon="1.85891">
        <ele>198</ele>
        <time>2012-12-13T10:47:20Z</time>
      </trkpt>
      <trkpt lat="43.93721" lon="1.85904">
        <ele>199</ele>
        <time>2012-12-13T10:47:29Z</time>
      </trkpt>
      <trkpt lat="43.93725" lon="1.85917">
        <ele>195</ele>
        <time>2012-12-13T10:47:38Z</time>
      </trkpt>
      <trkpt lat="43.93728" lon="1.85931">
        <ele>192</ele>
        <time>2012-12-13T10:47:45Z</time>
      </trkpt>
      <trkpt lat="43.93731" lon="1.85943">
        <ele>190</ele>
        <time>2012-12-13T10:47:54Z</time>
      </trkpt>
      <trkpt lat="43.93736" lon="1.85958">
        <ele>188</ele>
        <time>2012-12-13T10:48:03Z</time>
      </trkpt>
      <trkpt lat="43.9374" lon="1.85971">
        <ele>190</ele>
        <time>2012-12-13T10:48:12Z</time>
      </trkpt>
      <trkpt lat="43.93745" lon="1.85982">
        <ele>190</ele>
        <time>2012-12-13T10:48:22Z</time>
      </trkpt>
      <trkpt lat="43.9375" lon="1.85993">
        <ele>189</ele>
        <time>2012-12-13T10:48:28Z</time>
      </trkpt>
      <trkpt lat="43.93754" lon="1.86005">
        <ele>189</ele>
        <time>2012-12-13T10:48:38Z</time>
      </trkpt>
      <trkpt lat="43.93755" lon="1.86012">
        <ele>187</ele>
        <time>2012-12-13T10:48:50Z</time>
      </trkpt>
      <trkpt lat="43.93767" lon="1.86019">
        <ele>190</ele>
        <time>2012-12-13T10:49:38Z</time>
      </trkpt>
      <trkpt lat="43.93776" lon="1.86022">
        <ele>190</ele>
        <time>2012-12-13T10:49:45Z</time>
      </trkpt>
      <trkpt lat="43.93785" lon="1.86031">
        <ele>190</ele>
        <time>2012-12-13T10:49:51Z</time>
      </trkpt>
      <trkpt lat="43.93793" lon="1.86038">
        <ele>190</ele>
        <time>2012-12-13T10:49:58Z</time>
      </trkpt>
      <trkpt lat="43.93802" lon="1.86038">
        <ele>187</ele>
        <time>2012-12-13T10:50:13Z</time>
      </trkpt>
      <trkpt lat="43.93808" lon="1.86039">
        <ele>188</ele>
        <time>2012-12-13T10:50:18Z</time>
      </trkpt>
      <trkpt lat="43.93817" lon="1.86044">
        <ele>188</ele>
        <time>2012-12-13T10:50:24Z</time>
      </trkpt>
      <trkpt lat="43.93827" lon="1.86043">
        <ele>188</ele>
        <time>2012-12-13T10:50:35Z</time>
      </trkpt>
      <trkpt lat="43.93831" lon="1.86035">
        <ele>187</ele>
        <time>2012-12-13T10:50:51Z</time>
      </trkpt>
      <trkpt lat="43.9383" lon="1.86027">
        <ele>188</ele>
        <time>2012-12-13T10:51:02Z</time>
      </trkpt>
      <trkpt lat="43.93833" lon="1.8602">
        <ele>189</ele>
        <time>2012-12-13T10:51:07Z</time>
      </trkpt>
      <trkpt lat="43.93834" lon="1.86004">
        <ele>190</ele>
        <time>2012-12-13T10:51:21Z</time>
      </trkpt>
      <trkpt lat="43.9384" lon="1.85995">
        <ele>194</ele>
        <time>2012-12-13T10:51:31Z</time>
      </trkpt>
      <trkpt lat="43.93844" lon="1.85983">
        <ele>196</ele>
        <time>2012-12-13T10:51:42Z</time>
      </trkpt>
      <trkpt lat="43.93848" lon="1.8597">
        <ele>194</ele>
        <time>2012-12-13T10:52:00Z</time>
      </trkpt>
      <trkpt lat="43.93851" lon="1.85959">
        <ele>195</ele>
        <time>2012-12-13T10:52:12Z</time>
      </trkpt>
      <trkpt lat="43.93855" lon="1.85941">
        <ele>194</ele>
        <time>2012-12-13T10:52:27Z</time>
      </trkpt>
      <trkpt lat="43.93861" lon="1.8593">
        <ele>195</ele>
        <time>2012-12-13T10:52:34Z</time>
      </trkpt>
      <trkpt lat="43.93867" lon="1.85919">
        <ele>201</ele>
        <time>2012-12-13T10:52:48Z</time>
      </trkpt>
      <trkpt lat="43.9387" lon="1.85907">
        <ele>201</ele>
        <time>2012-12-13T10:52:56Z</time>
      </trkpt>
      <trkpt lat="43.93875" lon="1.85896">
        <ele>200</ele>
        <time>2012-12-13T10:53:07Z</time>
      </trkpt>
      <trkpt lat="43.93878" lon="1.85882">
        <ele>201</ele>
        <time>2012-12-13T10:53:21Z</time>
      </trkpt>
      <trkpt lat="43.93881" lon="1.85865">
        <ele>204</ele>
        <time>2012-12-13T10:53:37Z</time>
      </trkpt>
      <trkpt lat="43.93888" lon="1.85856">
        <ele>203</ele>
        <time>2012-12-13T10:53:46Z</time>
      </trkpt>
      <trkpt lat="43.93894" lon="1.85846">
        <ele>204</ele>
        <time>2012-12-13T10:53:58Z</time>
      </trkpt>
      <trkpt lat="43.93897" lon="1.8584">
        <ele>204</ele>
        <time>2012-12-13T10:54:02Z</time>
      </trkpt>
      <trkpt lat="43.93898" lon="1.85834">
        <ele>207</ele>
        <time>2012-12-13T10:54:07Z</time>
      </trkpt>
      <trkpt lat="43.93904" lon="1.85823">
        <ele>207</ele>
        <time>2012-12-13T10:54:17Z</time>
      </trkpt>
      <trkpt lat="43.93909" lon="1.85812">
        <ele>206</ele>
        <time>2012-12-13T10:54:25Z</time>
      </trkpt>
      <trkpt lat="43.93913" lon="1.85801">
        <ele>209</ele>
        <time>2012-12-13T10:54:34Z</time>
      </trkpt>
      <trkpt lat="43.93921" lon="1.85793">
        <ele>211</ele>
        <time>2012-12-13T10:54:42Z</time>
      </trkpt>
      <trkpt lat="43.93924" lon="1.85788">
        <ele>211</ele>
        <time>2012-12-13T10:54:47Z</time>
      </trkpt>
      <trkpt lat="43.93926" lon="1.85782">
        <ele>212</ele>
        <time>2012-12-13T10:54:52Z</time>
      </trkpt>
      <trkpt lat="43.93931" lon="1.8577">
        <ele>212</ele>
        <time>2012-12-13T10:55:02Z</time>
      </trkpt>
      <trkpt lat="43.93937" lon="1.85758">
        <ele>215</ele>
        <time>2012-12-13T10:55:13Z</time>
      </trkpt>
      <trkpt lat="43.93944" lon="1.8575">
        <ele>215</ele>
        <time>2012-12-13T10:55:22Z</time>
      </trkpt>
      <trkpt lat="43.93945" lon="1.85736">
        <ele>218</ele>
        <time>2012-12-13T10:55:38Z</time>
      </trkpt>
      <trkpt lat="43.93948" lon="1.85725">
        <ele>220</ele>
        <time>2012-12-13T10:55:50Z</time>
      </trkpt>
      <trkpt lat="43.9395" lon="1.85719">
        <ele>221</ele>
        <time>2012-12-13T10:55:55Z</time>
      </trkpt>
      <trkpt lat="43.93951" lon="1.85712">
        <ele>223</ele>
        <time>2012-12-13T10:55:59Z</time>
      </trkpt>
      <trkpt lat="43.93951" lon="1.85705">
        <ele>223</ele>
        <time>2012-12-13T10:56:04Z</time>
      </trkpt>
      <trkpt lat="43.93952" lon="1.85699">
        <ele>223</ele>
        <time>2012-12-13T10:56:09Z</time>
      </trkpt>
      <trkpt lat="43.93953" lon="1.85692">
        <ele>222</ele>
        <time>2012-12-13T10:56:14Z</time>
      </trkpt>
      <trkpt lat="43.93955" lon="1.85684">
        <ele>223</ele>
        <time>2012-12-13T10:56:21Z</time>
      </trkpt>
      <trkpt lat="43.93955" lon="1.85677">
        <ele>224</ele>
        <time>2012-12-13T10:56:25Z</time>
      </trkpt>
      <trkpt lat="43.93959" lon="1.85666">
        <ele>222</ele>
        <time>2012-12-13T10:56:35Z</time>
      </trkpt>
      <trkpt lat="43.93965" lon="1.85655">
        <ele>220</ele>
        <time>2012-12-13T10:56:45Z</time>
      </trkpt>
      <trkpt lat="43.93969" lon="1.85646">
        <ele>221</ele>
        <time>2012-12-13T10:56:53Z</time>
      </trkpt>
      <trkpt lat="43.93973" lon="1.85642">
        <ele>221</ele>
        <time>2012-12-13T10:56:58Z</time>
      </trkpt>
      <trkpt lat="43.93977" lon="1.85635">
        <ele>222</ele>
        <time>2012-12-13T10:57:05Z</time>
      </trkpt>
      <trkpt lat="43.9398" lon="1.8563">
        <ele>223</ele>
        <time>2012-12-13T10:57:09Z</time>
      </trkpt>
      <trkpt lat="43.93983" lon="1.85625">
        <ele>224</ele>
        <time>2012-12-13T10:57:13Z</time>
      </trkpt>
      <trkpt lat="43.93986" lon="1.85621">
        <ele>226</ele>
        <time>2012-12-13T10:57:18Z</time>
      </trkpt>
      <trkpt lat="43.93989" lon="1.85616">
        <ele>227</ele>
        <time>2012-12-13T10:57:24Z</time>
      </trkpt>
      <trkpt lat="43.93991" lon="1.85613">
        <ele>227</ele>
        <time>2012-12-13T10:57:31Z</time>
      </trkpt>
      <trkpt lat="43.93996" lon="1.85603">
        <ele>227</ele>
        <time>2012-12-13T10:57:39Z</time>
      </trkpt>
      <trkpt lat="43.93999" lon="1.85598">
        <ele>227</ele>
        <time>2012-12-13T10:57:45Z</time>
      </trkpt>
      <trkpt lat="43.94002" lon="1.85591">
        <ele>227</ele>
        <time>2012-12-13T10:57:50Z</time>
      </trkpt>
      <trkpt lat="43.94004" lon="1.85585">
        <ele>227</ele>
        <time>2012-12-13T10:57:56Z</time>
      </trkpt>
      <trkpt lat="43.94007" lon="1.8558">
        <ele>227</ele>
        <time>2012-12-13T10:58:01Z</time>
      </trkpt>
      <trkpt lat="43.94011" lon="1.85575">
        <ele>228</ele>
        <time>2012-12-13T10:58:06Z</time>
      </trkpt>
      <trkpt lat="43.94014" lon="1.85568">
        <ele>230</ele>
        <time>2012-12-13T10:58:12Z</time>
      </trkpt>
      <trkpt lat="43.94017" lon="1.85563">
        <ele>233</ele>
        <time>2012-12-13T10:58:17Z</time>
      </trkpt>
      <trkpt lat="43.94021" lon="1.85557">
        <ele>233</ele>
        <time>2012-12-13T10:58:24Z</time>
      </trkpt>
      <trkpt lat="43.94027" lon="1.85546">
        <ele>235</ele>
        <time>2012-12-13T10:58:37Z</time>
      </trkpt>
      <trkpt lat="43.94034" lon="1.85537">
        <ele>236</ele>
        <time>2012-12-13T10:58:46Z</time>
      </trkpt>
      <trkpt lat="43.94038" lon="1.85525">
        <ele>236</ele>
        <time>2012-12-13T10:58:55Z</time>
      </trkpt>
      <trkpt lat="43.94042" lon="1.85514">
        <ele>235</ele>
        <time>2012-12-13T10:59:03Z</time>
      </trkpt>
      <trkpt lat="43.94043" lon="1.85508">
        <ele>236</ele>
        <time>2012-12-13T10:59:10Z</time>
      </trkpt>
      <trkpt lat="43.94047" lon="1.85503">
        <ele>238</ele>
        <time>2012-12-13T10:59:16Z</time>
      </trkpt>
      <trkpt lat="43.9405" lon="1.85497">
        <ele>239</ele>
        <time>2012-12-13T10:59:20Z</time>
      </trkpt>
      <trkpt lat="43.94053" lon="1.85491">
        <ele>239</ele>
        <time>2012-12-13T10:59:26Z</time>
      </trkpt>
      <trkpt lat="43.94056" lon="1.85483">
        <ele>240</ele>
        <time>2012-12-13T10:59:32Z</time>
      </trkpt>
      <trkpt lat="43.94059" lon="1.85478">
        <ele>242</ele>
        <time>2012-12-13T10:59:37Z</time>
      </trkpt>
      <trkpt lat="43.94062" lon="1.85472">
        <ele>242</ele>
        <time>2012-12-13T10:59:43Z</time>
      </trkpt>
      <trkpt lat="43.94065" lon="1.85465">
        <ele>243</ele>
        <time>2012-12-13T10:59:48Z</time>
      </trkpt>
      <trkpt lat="43.94069" lon="1.8546">
        <ele>244</ele>
        <time>2012-12-13T10:59:53Z</time>
      </trkpt>
      <trkpt lat="43.94072" lon="1.85453">
        <ele>244</ele>
        <time>2012-12-13T11:00:00Z</time>
      </trkpt>
      <trkpt lat="43.94075" lon="1.85447">
        <ele>243</ele>
        <time>2012-12-13T11:00:04Z</time>
      </trkpt>
      <trkpt lat="43.94078" lon="1.85437">
        <ele>243</ele>
        <time>2012-12-13T11:00:16Z</time>
      </trkpt>
      <trkpt lat="43.94086" lon="1.8542">
        <ele>241</ele>
        <time>2012-12-13T11:00:42Z</time>
      </trkpt>
      <trkpt lat="43.9409" lon="1.85413">
        <ele>240</ele>
        <time>2012-12-13T11:00:48Z</time>
      </trkpt>
      <trkpt lat="43.94092" lon="1.85408">
        <ele>241</ele>
        <time>2012-12-13T11:00:52Z</time>
      </trkpt>
      <trkpt lat="43.94099" lon="1.85398">
        <ele>244</ele>
        <time>2012-12-13T11:00:59Z</time>
      </trkpt>
      <trkpt lat="43.94099" lon="1.85389">
        <ele>245</ele>
        <time>2012-12-13T11:01:06Z</time>
      </trkpt>
      <trkpt lat="43.94104" lon="1.85379">
        <ele>246</ele>
        <time>2012-12-13T11:01:15Z</time>
      </trkpt>
      <trkpt lat="43.94106" lon="1.85367">
        <ele>248</ele>
        <time>2012-12-13T11:01:22Z</time>
      </trkpt>
      <trkpt lat="43.94106" lon="1.85357">
        <ele>248</ele>
        <time>2012-12-13T11:01:30Z</time>
      </trkpt>
      <trkpt lat="43.94106" lon="1.8535">
        <ele>247</ele>
        <time>2012-12-13T11:01:35Z</time>
      </trkpt>
      <trkpt lat="43.94106" lon="1.85341">
        <ele>246</ele>
        <time>2012-12-13T11:01:41Z</time>
      </trkpt>
      <trkpt lat="43.94107" lon="1.85335">
        <ele>246</ele>
        <time>2012-12-13T11:01:45Z</time>
      </trkpt>
      <trkpt lat="43.94108" lon="1.85326">
        <ele>246</ele>
        <time>2012-12-13T11:01:51Z</time>
      </trkpt>
      <trkpt lat="43.94108" lon="1.8532">
        <ele>246</ele>
        <time>2012-12-13T11:01:55Z</time>
      </trkpt>
      <trkpt lat="43.94108" lon="1.85313">
        <ele>247</ele>
        <time>2012-12-13T11:02:00Z</time>
      </trkpt>
      <trkpt lat="43.94106" lon="1.853">
        <ele>251</ele>
        <time>2012-12-13T11:02:11Z</time>
      </trkpt>
      <trkpt lat="43.94108" lon="1.85291">
        <ele>253</ele>
        <time>2012-12-13T11:02:17Z</time>
      </trkpt>
      <trkpt lat="43.94108" lon="1.85277">
        <ele>256</ele>
        <time>2012-12-13T11:02:28Z</time>
      </trkpt>
      <trkpt lat="43.94109" lon="1.85273">
        <ele>256</ele>
        <time>2012-12-13T11:02:35Z</time>
      </trkpt>
      <trkpt lat="43.94107" lon="1.85261">
        <ele>256</ele>
        <time>2012-12-13T11:02:44Z</time>
      </trkpt>
      <trkpt lat="43.94103" lon="1.85253">
        <ele>255</ele>
        <time>2012-12-13T11:02:49Z</time>
      </trkpt>
      <trkpt lat="43.94099" lon="1.85242">
        <ele>253</ele>
        <time>2012-12-13T11:02:59Z</time>
      </trkpt>
      <trkpt lat="43.94092" lon="1.85231">
        <ele>252</ele>
        <time>2012-12-13T11:03:08Z</time>
      </trkpt>
      <trkpt lat="43.94089" lon="1.85227">
        <ele>250</ele>
        <time>2012-12-13T11:03:14Z</time>
      </trkpt>
      <trkpt lat="43.94086" lon="1.85222">
        <ele>251</ele>
        <time>2012-12-13T11:03:19Z</time>
      </trkpt>
      <trkpt lat="43.94081" lon="1.85218">
        <ele>251</ele>
        <time>2012-12-13T11:03:24Z</time>
      </trkpt>
      <trkpt lat="43.94074" lon="1.85209">
        <ele>254</ele>
        <time>2012-12-13T11:03:34Z</time>
      </trkpt>
      <trkpt lat="43.94067" lon="1.852">
        <ele>254</ele>
        <time>2012-12-13T11:03:42Z</time>
      </trkpt>
      <trkpt lat="43.94055" lon="1.8519">
        <ele>259</ele>
        <time>2012-12-13T11:04:03Z</time>
      </trkpt>
      <trkpt lat="43.94054" lon="1.85187">
        <ele>266</ele>
        <time>2012-12-13T11:05:35Z</time>
      </trkpt>
      <trkpt lat="43.94046" lon="1.85188">
        <ele>266</ele>
        <time>2012-12-13T11:06:33Z</time>
      </trkpt>
      <trkpt lat="43.94048" lon="1.85184">
        <ele>265</ele>
        <time>2012-12-13T11:08:32Z</time>
      </trkpt>
      <trkpt lat="43.94051" lon="1.85184">
        <ele>265</ele>
        <time>2012-12-13T11:08:38Z</time>
      </trkpt>
      <trkpt lat="43.94043" lon="1.85185">
        <ele>265</ele>
        <time>2012-12-13T11:09:28Z</time>
      </trkpt>
      <trkpt lat="43.94033" lon="1.85186">
        <ele>263</ele>
        <time>2012-12-13T11:09:41Z</time>
      </trkpt>
      <trkpt lat="43.94025" lon="1.85194">
        <ele>261</ele>
        <time>2012-12-13T11:09:55Z</time>
      </trkpt>
      <trkpt lat="43.94016" lon="1.85195">
        <ele>258</ele>
        <time>2012-12-13T11:10:02Z</time>
      </trkpt>
      <trkpt lat="43.94006" lon="1.85196">
        <ele>254</ele>
        <time>2012-12-13T11:10:12Z</time>
      </trkpt>
      <trkpt lat="43.93997" lon="1.85198">
        <ele>251</ele>
        <time>2012-12-13T11:10:24Z</time>
      </trkpt>
      <trkpt lat="43.93987" lon="1.852">
        <ele>249</ele>
        <time>2012-12-13T11:10:32Z</time>
      </trkpt>
      <trkpt lat="43.93976" lon="1.85202">
        <ele>249</ele>
        <time>2012-12-13T11:10:42Z</time>
      </trkpt>
      <trkpt lat="43.93966" lon="1.85203">
        <ele>249</ele>
        <time>2012-12-13T11:10:50Z</time>
      </trkpt>
      <trkpt lat="43.93955" lon="1.85201">
        <ele>249</ele>
        <time>2012-12-13T11:10:59Z</time>
      </trkpt>
      <trkpt lat="43.93945" lon="1.85201">
        <ele>247</ele>
        <time>2012-12-13T11:11:09Z</time>
      </trkpt>
      <trkpt lat="43.93936" lon="1.85205">
        <ele>248</ele>
        <time>2012-12-13T11:11:20Z</time>
      </trkpt>
      <trkpt lat="43.93927" lon="1.85204">
        <ele>249</ele>
        <time>2012-12-13T11:11:30Z</time>
      </trkpt>
      <trkpt lat="43.93917" lon="1.85208">
        <ele>250</ele>
        <time>2012-12-13T11:11:38Z</time>
      </trkpt>
      <trkpt lat="43.93907" lon="1.85215">
        <ele>248</ele>
        <time>2012-12-13T11:11:46Z</time>
      </trkpt>
      <trkpt lat="43.93899" lon="1.85222">
        <ele>249</ele>
        <time>2012-12-13T11:11:55Z</time>
      </trkpt>
      <trkpt lat="43.93892" lon="1.85231">
        <ele>250</ele>
        <time>2012-12-13T11:12:06Z</time>
      </trkpt>
      <trkpt lat="43.93884" lon="1.85237">
        <ele>252</ele>
        <time>2012-12-13T11:12:13Z</time>
      </trkpt>
      <trkpt lat="43.93875" lon="1.85245">
        <ele>252</ele>
        <time>2012-12-13T11:12:22Z</time>
      </trkpt>
      <trkpt lat="43.93864" lon="1.85246">
        <ele>251</ele>
        <time>2012-12-13T11:12:32Z</time>
      </trkpt>
      <trkpt lat="43.93855" lon="1.85247">
        <ele>250</ele>
        <time>2012-12-13T11:12:40Z</time>
      </trkpt>
      <trkpt lat="43.93845" lon="1.85246">
        <ele>251</ele>
        <time>2012-12-13T11:12:46Z</time>
      </trkpt>
      <trkpt lat="43.93834" lon="1.85242">
        <ele>249</ele>
        <time>2012-12-13T11:13:02Z</time>
      </trkpt>
      <trkpt lat="43.93823" lon="1.8524">
        <ele>249</ele>
        <time>2012-12-13T11:13:11Z</time>
      </trkpt>
      <trkpt lat="43.93812" lon="1.85238">
        <ele>250</ele>
        <time>2012-12-13T11:13:22Z</time>
      </trkpt>
      <trkpt lat="43.93802" lon="1.85238">
        <ele>250</ele>
        <time>2012-12-13T11:13:29Z</time>
      </trkpt>
      <trkpt lat="43.93797" lon="1.85241">
        <ele>250</ele>
        <time>2012-12-13T11:13:46Z</time>
      </trkpt>
      <trkpt lat="43.93791" lon="1.85234">
        <ele>250</ele>
        <time>2012-12-13T11:14:05Z</time>
      </trkpt>
      <trkpt lat="43.93784" lon="1.85242">
        <ele>245</ele>
        <time>2012-12-13T11:15:07Z</time>
      </trkpt>
      <trkpt lat="43.93775" lon="1.85238">
        <ele>245</ele>
        <time>2012-12-13T11:15:13Z</time>
      </trkpt>
      <trkpt lat="43.93764" lon="1.85234">
        <ele>245</ele>
        <time>2012-12-13T11:15:21Z</time>
      </trkpt>
      <trkpt lat="43.93753" lon="1.85236">
        <ele>245</ele>
        <time>2012-12-13T11:15:29Z</time>
      </trkpt>
      <trkpt lat="43.93741" lon="1.85238">
        <ele>243</ele>
        <time>2012-12-13T11:15:41Z</time>
      </trkpt>
      <trkpt lat="43.93731" lon="1.8524">
        <ele>242</ele>
        <time>2012-12-13T11:15:50Z</time>
      </trkpt>
      <trkpt lat="43.93721" lon="1.85243">
        <ele>242</ele>
        <time>2012-12-13T11:15:58Z</time>
      </trkpt>
      <trkpt lat="43.93713" lon="1.8525">
        <ele>244</ele>
        <time>2012-12-13T11:16:06Z</time>
      </trkpt>
      <trkpt lat="43.93704" lon="1.85258">
        <ele>245</ele>
        <time>2012-12-13T11:16:15Z</time>
      </trkpt>
      <trkpt lat="43.93693" lon="1.85258">
        <ele>246</ele>
        <time>2012-12-13T11:16:35Z</time>
      </trkpt>
      <trkpt lat="43.93689" lon="1.85255">
        <ele>248</ele>
        <time>2012-12-13T11:16:41Z</time>
      </trkpt>
      <trkpt lat="43.93685" lon="1.85251">
        <ele>249</ele>
        <time>2012-12-13T11:16:45Z</time>
      </trkpt>
      <trkpt lat="43.9368" lon="1.85247">
        <ele>251</ele>
        <time>2012-12-13T11:16:50Z</time>
      </trkpt>
      <trkpt lat="43.93678" lon="1.85241">
        <ele>252</ele>
        <time>2012-12-13T11:16:55Z</time>
      </trkpt>
      <trkpt lat="43.93676" lon="1.85235">
        <ele>252</ele>
        <time>2012-12-13T11:16:59Z</time>
      </trkpt>
      <trkpt lat="43.93674" lon="1.8523">
        <ele>252</ele>
        <time>2012-12-13T11:17:03Z</time>
      </trkpt>
      <trkpt lat="43.93673" lon="1.85223">
        <ele>252</ele>
        <time>2012-12-13T11:17:07Z</time>
      </trkpt>
      <trkpt lat="43.93671" lon="1.85216">
        <ele>251</ele>
        <time>2012-12-13T11:17:12Z</time>
      </trkpt>
      <trkpt lat="43.93667" lon="1.85205">
        <ele>250</ele>
        <time>2012-12-13T11:17:22Z</time>
      </trkpt>
      <trkpt lat="43.93664" lon="1.85192">
        <ele>250</ele>
        <time>2012-12-13T11:17:30Z</time>
      </trkpt>
      <trkpt lat="43.9366" lon="1.85181">
        <ele>250</ele>
        <time>2012-12-13T11:17:39Z</time>
      </trkpt>
      <trkpt lat="43.93658" lon="1.85172">
        <ele>250</ele>
        <time>2012-12-13T11:17:54Z</time>
      </trkpt>
      <trkpt lat="43.93653" lon="1.85165">
        <ele>245</ele>
        <time>2012-12-13T11:18:39Z</time>
      </trkpt>
      <trkpt lat="43.93644" lon="1.85158">
        <ele>243</ele>
        <time>2012-12-13T11:18:47Z</time>
      </trkpt>
      <trkpt lat="43.93635" lon="1.8515">
        <ele>243</ele>
        <time>2012-12-13T11:18:54Z</time>
      </trkpt>
      <trkpt lat="43.93627" lon="1.85139">
        <ele>245</ele>
        <time>2012-12-13T11:19:01Z</time>
      </trkpt>
      <trkpt lat="43.93618" lon="1.85135">
        <ele>247</ele>
        <time>2012-12-13T11:19:10Z</time>
      </trkpt>
      <trkpt lat="43.93609" lon="1.85128">
        <ele>248</ele>
        <time>2012-12-13T11:19:16Z</time>
      </trkpt>
      <trkpt lat="43.93598" lon="1.85123">
        <ele>249</ele>
        <time>2012-12-13T11:19:22Z</time>
      </trkpt>
      <trkpt lat="43.93589" lon="1.8512">
        <ele>250</ele>
        <time>2012-12-13T11:19:30Z</time>
      </trkpt>
      <trkpt lat="43.93579" lon="1.85119">
        <ele>249</ele>
        <time>2012-12-13T11:19:38Z</time>
      </trkpt>
      <trkpt lat="43.9357" lon="1.8512">
        <ele>249</ele>
        <time>2012-12-13T11:19:44Z</time>
      </trkpt>
      <trkpt lat="43.9356" lon="1.8512">
        <ele>247</ele>
        <time>2012-12-13T11:19:50Z</time>
      </trkpt>
      <trkpt lat="43.9355" lon="1.8512">
        <ele>246</ele>
        <time>2012-12-13T11:19:57Z</time>
      </trkpt>
      <trkpt lat="43.93541" lon="1.85129">
        <ele>244</ele>
        <time>2012-12-13T11:20:05Z</time>
      </trkpt>
      <trkpt lat="43.93533" lon="1.85135">
        <ele>241</ele>
        <time>2012-12-13T11:20:12Z</time>
      </trkpt>
      <trkpt lat="43.93525" lon="1.85144">
        <ele>238</ele>
        <time>2012-12-13T11:20:20Z</time>
      </trkpt>
      <trkpt lat="43.93518" lon="1.85152">
        <ele>235</ele>
        <time>2012-12-13T11:20:26Z</time>
      </trkpt>
      <trkpt lat="43.93511" lon="1.85161">
        <ele>231</ele>
        <time>2012-12-13T11:20:32Z</time>
      </trkpt>
      <trkpt lat="43.93503" lon="1.85167">
        <ele>229</ele>
        <time>2012-12-13T11:20:39Z</time>
      </trkpt>
      <trkpt lat="43.93494" lon="1.85169">
        <ele>232</ele>
        <time>2012-12-13T11:20:47Z</time>
      </trkpt>
      <trkpt lat="43.93477" lon="1.85183">
        <ele>241</ele>
        <time>2012-12-13T11:21:08Z</time>
      </trkpt>
      <trkpt lat="43.93468" lon="1.8519">
        <ele>241</ele>
        <time>2012-12-13T11:21:17Z</time>
      </trkpt>
      <trkpt lat="43.93461" lon="1.85198">
        <ele>244</ele>
        <time>2012-12-13T11:21:28Z</time>
      </trkpt>
      <trkpt lat="43.93453" lon="1.85205">
        <ele>247</ele>
        <time>2012-12-13T11:21:44Z</time>
      </trkpt>
      <trkpt lat="43.93445" lon="1.85215">
        <ele>248</ele>
        <time>2012-12-13T11:21:56Z</time>
      </trkpt>
      <trkpt lat="43.93441" lon="1.85231">
        <ele>249</ele>
        <time>2012-12-13T11:22:08Z</time>
      </trkpt>
      <trkpt lat="43.93436" lon="1.85241">
        <ele>248</ele>
        <time>2012-12-13T11:22:17Z</time>
      </trkpt>
      <trkpt lat="43.9343" lon="1.85252">
        <ele>253</ele>
        <time>2012-12-13T11:22:31Z</time>
      </trkpt>
      <trkpt lat="43.93424" lon="1.85261">
        <ele>254</ele>
        <time>2012-12-13T11:22:40Z</time>
      </trkpt>
      <trkpt lat="43.93418" lon="1.85271">
        <ele>252</ele>
        <time>2012-12-13T11:22:57Z</time>
      </trkpt>
      <trkpt lat="43.93414" lon="1.85274">
        <ele>253</ele>
        <time>2012-12-13T11:23:00Z</time>
      </trkpt>
      <trkpt lat="43.9341" lon="1.8528">
        <ele>251</ele>
        <time>2012-12-13T11:23:06Z</time>
      </trkpt>
      <trkpt lat="43.93401" lon="1.85295">
        <ele>252</ele>
        <time>2012-12-13T11:23:22Z</time>
      </trkpt>
      <trkpt lat="43.93394" lon="1.85304">
        <ele>253</ele>
        <time>2012-12-13T11:23:30Z</time>
      </trkpt>
      <trkpt lat="43.93389" lon="1.85303">
        <ele>251</ele>
        <time>2012-12-13T11:23:47Z</time>
      </trkpt>
      <trkpt lat="43.93381" lon="1.8531">
        <ele>249</ele>
        <time>2012-12-13T11:23:55Z</time>
      </trkpt>
      <trkpt lat="43.93378" lon="1.85314">
        <ele>245</ele>
        <time>2012-12-13T11:24:06Z</time>
      </trkpt>
      <trkpt lat="43.93369" lon="1.8532">
        <ele>242</ele>
        <time>2012-12-13T11:24:15Z</time>
      </trkpt>
      <trkpt lat="43.93357" lon="1.85329">
        <ele>242</ele>
        <time>2012-12-13T11:24:23Z</time>
      </trkpt>
      <trkpt lat="43.93347" lon="1.85338">
        <ele>242</ele>
        <time>2012-12-13T11:24:31Z</time>
      </trkpt>
      <trkpt lat="43.93339" lon="1.85354">
        <ele>247</ele>
        <time>2012-12-13T11:24:49Z</time>
      </trkpt>
      <trkpt lat="43.93332" lon="1.85366">
        <ele>248</ele>
        <time>2012-12-13T11:24:54Z</time>
      </trkpt>
      <trkpt lat="43.93326" lon="1.85377">
        <ele>250</ele>
        <time>2012-12-13T11:25:00Z</time>
      </trkpt>
      <trkpt lat="43.93323" lon="1.8539">
        <ele>253</ele>
        <time>2012-12-13T11:25:09Z</time>
      </trkpt>
      <trkpt lat="43.93319" lon="1.85401">
        <ele>252</ele>
        <time>2012-12-13T11:25:21Z</time>
      </trkpt>
      <trkpt lat="43.93308" lon="1.85418">
        <ele>247</ele>
        <time>2012-12-13T11:25:40Z</time>
      </trkpt>
      <trkpt lat="43.93306" lon="1.85431">
        <ele>244</ele>
        <time>2012-12-13T11:25:54Z</time>
      </trkpt>
      <trkpt lat="43.93313" lon="1.85448">
        <ele>242</ele>
        <time>2012-12-13T11:26:11Z</time>
      </trkpt>
      <trkpt lat="43.93306" lon="1.85456">
        <ele>242</ele>
        <time>2012-12-13T11:26:22Z</time>
      </trkpt>
      <trkpt lat="43.93299" lon="1.85464">
        <ele>242</ele>
        <time>2012-12-13T11:26:27Z</time>
      </trkpt>
      <trkpt lat="43.9329" lon="1.85476">
        <ele>243</ele>
        <time>2012-12-13T11:26:38Z</time>
      </trkpt>
      <trkpt lat="43.93282" lon="1.85486">
        <ele>244</ele>
        <time>2012-12-13T11:26:49Z</time>
      </trkpt>
      <trkpt lat="43.93279" lon="1.85494">
        <ele>247</ele>
        <time>2012-12-13T11:27:04Z</time>
      </trkpt>
      <trkpt lat="43.93276" lon="1.85503">
        <ele>249</ele>
        <time>2012-12-13T11:28:05Z</time>
      </trkpt>
      <trkpt lat="43.9327" lon="1.85513">
        <ele>250</ele>
        <time>2012-12-13T11:28:14Z</time>
      </trkpt>
      <trkpt lat="43.93266" lon="1.85518">
        <ele>251</ele>
        <time>2012-12-13T11:28:27Z</time>
      </trkpt>
      <trkpt lat="43.93261" lon="1.85531">
        <ele>252</ele>
        <time>2012-12-13T11:28:43Z</time>
      </trkpt>
      <trkpt lat="43.93257" lon="1.85548">
        <ele>253</ele>
        <time>2012-12-13T11:29:00Z</time>
      </trkpt>
      <trkpt lat="43.9325" lon="1.85557">
        <ele>258</ele>
        <time>2012-12-13T11:29:17Z</time>
      </trkpt>
      <trkpt lat="43.93243" lon="1.85552">
        <ele>260</ele>
        <time>2012-12-13T11:30:03Z</time>
      </trkpt>
      <trkpt lat="43.93244" lon="1.85536">
        <ele>261</ele>
        <time>2012-12-13T11:30:18Z</time>
      </trkpt>
      <trkpt lat="43.93248" lon="1.85523">
        <ele>262</ele>
        <time>2012-12-13T11:30:26Z</time>
      </trkpt>
      <trkpt lat="43.93249" lon="1.85507">
        <ele>263</ele>
        <time>2012-12-13T11:30:39Z</time>
      </trkpt>
      <trkpt lat="43.93244" lon="1.85488">
        <ele>265</ele>
        <time>2012-12-13T11:31:08Z</time>
      </trkpt>
      <trkpt lat="43.93247" lon="1.85483">
        <ele>260</ele>
        <time>2012-12-13T11:32:01Z</time>
      </trkpt>
      <trkpt lat="43.93253" lon="1.85486">
        <ele>258</ele>
        <time>2012-12-13T11:35:20Z</time>
      </trkpt>
      <trkpt lat="43.93248" lon="1.85485">
        <ele>256</ele>
        <time>2012-12-13T11:36:54Z</time>
      </trkpt>
      <trkpt lat="43.93241" lon="1.85482">
        <ele>260</ele>
        <time>2012-12-13T11:49:15Z</time>
      </trkpt>
      <trkpt lat="43.93243" lon="1.8548">
        <ele>268</ele>
        <time>2012-12-13T11:50:03Z</time>
      </trkpt>
      <trkpt lat="43.9324" lon="1.8548">
        <ele>269</ele>
        <time>2012-12-13T11:55:07Z</time>
      </trkpt>
      <trkpt lat="43.93239" lon="1.85486">
        <ele>269</ele>
        <time>2012-12-13T11:56:29Z</time>
      </trkpt>
      <trkpt lat="43.93241" lon="1.85485">
        <ele>268</ele>
        <time>2012-12-13T11:57:37Z</time>
      </trkpt>
      <trkpt lat="43.93251" lon="1.85472">
        <ele>268</ele>
        <time>2012-12-13T11:57:57Z</time>
      </trkpt>
      <trkpt lat="43.9325" lon="1.8548">
        <ele>265</ele>
        <time>2012-12-13T11:58:48Z</time>
      </trkpt>
      <trkpt lat="43.93246" lon="1.85488">
        <ele>265</ele>
        <time>2012-12-13T11:59:10Z</time>
      </trkpt>
      <trkpt lat="43.93251" lon="1.85495">
        <ele>265</ele>
        <time>2012-12-13T12:06:39Z</time>
      </trkpt>
      <trkpt lat="43.93258" lon="1.85486">
        <ele>266</ele>
        <time>2012-12-13T12:07:45Z</time>
      </trkpt>
      <trkpt lat="43.9326" lon="1.85474">
        <ele>270</ele>
        <time>2012-12-13T12:08:17Z</time>
      </trkpt>
      <trkpt lat="43.93258" lon="1.85468">
        <ele>273</ele>
        <time>2012-12-13T12:08:28Z</time>
      </trkpt>
      <trkpt lat="43.93258" lon="1.85454">
        <ele>273</ele>
        <time>2012-12-13T12:08:42Z</time>
      </trkpt>
      <trkpt lat="43.9326" lon="1.85439">
        <ele>271</ele>
        <time>2012-12-13T12:08:50Z</time>
      </trkpt>
      <trkpt lat="43.93262" lon="1.85426">
        <ele>269</ele>
        <time>2012-12-13T12:08:59Z</time>
      </trkpt>
      <trkpt lat="43.93259" lon="1.8541">
        <ele>268</ele>
        <time>2012-12-13T12:09:13Z</time>
      </trkpt>
      <trkpt lat="43.93258" lon="1.85397">
        <ele>268</ele>
        <time>2012-12-13T12:09:17Z</time>
      </trkpt>
      <trkpt lat="43.93259" lon="1.85389">
        <ele>276</ele>
        <time>2012-12-13T12:09:39Z</time>
      </trkpt>
      <trkpt lat="43.9326" lon="1.85375">
        <ele>277</ele>
        <time>2012-12-13T12:09:46Z</time>
      </trkpt>
      <trkpt lat="43.93264" lon="1.85358">
        <ele>276</ele>
        <time>2012-12-13T12:09:59Z</time>
      </trkpt>
      <trkpt lat="43.93266" lon="1.85345">
        <ele>274</ele>
        <time>2012-12-13T12:10:05Z</time>
      </trkpt>
      <trkpt lat="43.93272" lon="1.85331">
        <ele>275</ele>
        <time>2012-12-13T12:10:18Z</time>
      </trkpt>
      <trkpt lat="43.93275" lon="1.85319">
        <ele>278</ele>
        <time>2012-12-13T12:10:27Z</time>
      </trkpt>
      <trkpt lat="43.93276" lon="1.853">
        <ele>279</ele>
        <time>2012-12-13T12:10:44Z</time>
      </trkpt>
      <trkpt lat="43.93277" lon="1.85294">
        <ele>278</ele>
        <time>2012-12-13T12:10:55Z</time>
      </trkpt>
      <trkpt lat="43.93279" lon="1.85279">
        <ele>278</ele>
        <time>2012-12-13T12:11:08Z</time>
      </trkpt>
      <trkpt lat="43.93277" lon="1.85263">
        <ele>277</ele>
        <time>2012-12-13T12:11:17Z</time>
      </trkpt>
      <trkpt lat="43.93284" lon="1.85254">
        <ele>277</ele>
        <time>2012-12-13T12:11:24Z</time>
      </trkpt>
      <trkpt lat="43.93281" lon="1.85238">
        <ele>276</ele>
        <time>2012-12-13T12:11:39Z</time>
      </trkpt>
      <trkpt lat="43.93271" lon="1.85231">
        <ele>275</ele>
        <time>2012-12-13T12:11:46Z</time>
      </trkpt>
      <trkpt lat="43.93264" lon="1.8522">
        <ele>277</ele>
        <time>2012-12-13T12:11:54Z</time>
      </trkpt>
      <trkpt lat="43.93258" lon="1.8521">
        <ele>279</ele>
        <time>2012-12-13T12:12:00Z</time>
      </trkpt>
      <trkpt lat="43.93255" lon="1.85194">
        <ele>283</ele>
        <time>2012-12-13T12:12:14Z</time>
      </trkpt>
      <trkpt lat="43.9325" lon="1.85179">
        <ele>285</ele>
        <time>2012-12-13T12:12:25Z</time>
      </trkpt>
      <trkpt lat="43.93246" lon="1.85163">
        <ele>284</ele>
        <time>2012-12-13T12:12:42Z</time>
      </trkpt>
      <trkpt lat="43.93241" lon="1.8515">
        <ele>284</ele>
        <time>2012-12-13T12:12:49Z</time>
      </trkpt>
      <trkpt lat="43.93238" lon="1.85133">
        <ele>284</ele>
        <time>2012-12-13T12:12:58Z</time>
      </trkpt>
      <trkpt lat="43.93233" lon="1.85122">
        <ele>284</ele>
        <time>2012-12-13T12:13:04Z</time>
      </trkpt>
      <trkpt lat="43.93234" lon="1.85108">
        <ele>284</ele>
        <time>2012-12-13T12:13:17Z</time>
      </trkpt>
      <trkpt lat="43.93234" lon="1.85095">
        <ele>284</ele>
        <time>2012-12-13T12:13:28Z</time>
      </trkpt>
      <trkpt lat="43.93229" lon="1.85083">
        <ele>283</ele>
        <time>2012-12-13T12:13:37Z</time>
      </trkpt>
      <trkpt lat="43.93223" lon="1.85074">
        <ele>282</ele>
        <time>2012-12-13T12:13:43Z</time>
      </trkpt>
      <trkpt lat="43.93217" lon="1.85062">
        <ele>282</ele>
        <time>2012-12-13T12:13:50Z</time>
      </trkpt>
      <trkpt lat="43.93211" lon="1.85052">
        <ele>280</ele>
        <time>2012-12-13T12:13:58Z</time>
      </trkpt>
      <trkpt lat="43.93205" lon="1.85039">
        <ele>282</ele>
        <time>2012-12-13T12:14:11Z</time>
      </trkpt>
      <trkpt lat="43.93203" lon="1.85025">
        <ele>285</ele>
        <time>2012-12-13T12:14:19Z</time>
      </trkpt>
      <trkpt lat="43.932" lon="1.85012">
        <ele>286</ele>
        <time>2012-12-13T12:14:27Z</time>
      </trkpt>
      <trkpt lat="43.93196" lon="1.84998">
        <ele>287</ele>
        <time>2012-12-13T12:14:38Z</time>
      </trkpt>
      <trkpt lat="43.93192" lon="1.84992">
        <ele>287</ele>
        <time>2012-12-13T12:14:52Z</time>
      </trkpt>
      <trkpt lat="43.93187" lon="1.84982">
        <ele>287</ele>
        <time>2012-12-13T12:15:01Z</time>
      </trkpt>
      <trkpt lat="43.93175" lon="1.84974">
        <ele>287</ele>
        <time>2012-12-13T12:15:07Z</time>
      </trkpt>
      <trkpt lat="43.93166" lon="1.84966">
        <ele>284</ele>
        <time>2012-12-13T12:15:14Z</time>
      </trkpt>
      <trkpt lat="43.93155" lon="1.84966">
        <ele>283</ele>
        <time>2012-12-13T12:15:21Z</time>
      </trkpt>
      <trkpt lat="43.93146" lon="1.84978">
        <ele>282</ele>
        <time>2012-12-13T12:15:34Z</time>
      </trkpt>
      <trkpt lat="43.93138" lon="1.84986">
        <ele>282</ele>
        <time>2012-12-13T12:15:43Z</time>
      </trkpt>
      <trkpt lat="43.93129" lon="1.84991">
        <ele>281</ele>
        <time>2012-12-13T12:15:53Z</time>
      </trkpt>
      <trkpt lat="43.93118" lon="1.84993">
        <ele>282</ele>
        <time>2012-12-13T12:16:02Z</time>
      </trkpt>
      <trkpt lat="43.93108" lon="1.84996">
        <ele>282</ele>
        <time>2012-12-13T12:16:11Z</time>
      </trkpt>
      <trkpt lat="43.93099" lon="1.85001">
        <ele>283</ele>
        <time>2012-12-13T12:16:19Z</time>
      </trkpt>
      <trkpt lat="43.93091" lon="1.85007">
        <ele>283</ele>
        <time>2012-12-13T12:16:25Z</time>
      </trkpt>
      <trkpt lat="43.93082" lon="1.85011">
        <ele>281</ele>
        <time>2012-12-13T12:16:33Z</time>
      </trkpt>
      <trkpt lat="43.93075" lon="1.85018">
        <ele>283</ele>
        <time>2012-12-13T12:16:42Z</time>
      </trkpt>
      <trkpt lat="43.93067" lon="1.85025">
        <ele>283</ele>
        <time>2012-12-13T12:16:50Z</time>
      </trkpt>
      <trkpt lat="43.93059" lon="1.85035">
        <ele>282</ele>
        <time>2012-12-13T12:16:59Z</time>
      </trkpt>
      <trkpt lat="43.93051" lon="1.85049">
        <ele>279</ele>
        <time>2012-12-13T12:17:16Z</time>
      </trkpt>
      <trkpt lat="43.93041" lon="1.85047">
        <ele>278</ele>
        <time>2012-12-13T12:17:22Z</time>
      </trkpt>
      <trkpt lat="43.93032" lon="1.85047">
        <ele>278</ele>
        <time>2012-12-13T12:17:30Z</time>
      </trkpt>
      <trkpt lat="43.93026" lon="1.85058">
        <ele>277</ele>
        <time>2012-12-13T12:17:39Z</time>
      </trkpt>
      <trkpt lat="43.93016" lon="1.85063">
        <ele>277</ele>
        <time>2012-12-13T12:17:46Z</time>
      </trkpt>
      <trkpt lat="43.93011" lon="1.85067">
        <ele>277</ele>
        <time>2012-12-13T12:17:52Z</time>
      </trkpt>
      <trkpt lat="43.93003" lon="1.85074">
        <ele>278</ele>
        <time>2012-12-13T12:18:01Z</time>
      </trkpt>
      <trkpt lat="43.92994" lon="1.85081">
        <ele>278</ele>
        <time>2012-12-13T12:18:10Z</time>
      </trkpt>
      <trkpt lat="43.92986" lon="1.85087">
        <ele>281</ele>
        <time>2012-12-13T12:18:19Z</time>
      </trkpt>
      <trkpt lat="43.92977" lon="1.85091">
        <ele>283</ele>
        <time>2012-12-13T12:18:26Z</time>
      </trkpt>
      <trkpt lat="43.92967" lon="1.85092">
        <ele>285</ele>
        <time>2012-12-13T12:18:32Z</time>
      </trkpt>
      <trkpt lat="43.92958" lon="1.85094">
        <ele>287</ele>
        <time>2012-12-13T12:18:42Z</time>
      </trkpt>
      <trkpt lat="43.92948" lon="1.85093">
        <ele>288</ele>
        <time>2012-12-13T12:18:52Z</time>
      </trkpt>
      <trkpt lat="43.92939" lon="1.85096">
        <ele>288</ele>
        <time>2012-12-13T12:19:01Z</time>
      </trkpt>
      <trkpt lat="43.92929" lon="1.85099">
        <ele>287</ele>
        <time>2012-12-13T12:19:09Z</time>
      </trkpt>
      <trkpt lat="43.92917" lon="1.851">
        <ele>286</ele>
        <time>2012-12-13T12:19:18Z</time>
      </trkpt>
      <trkpt lat="43.92906" lon="1.851">
        <ele>284</ele>
        <time>2012-12-13T12:19:28Z</time>
      </trkpt>
      <trkpt lat="43.92896" lon="1.85102">
        <ele>283</ele>
        <time>2012-12-13T12:19:35Z</time>
      </trkpt>
      <trkpt lat="43.92888" lon="1.85107">
        <ele>282</ele>
        <time>2012-12-13T12:19:42Z</time>
      </trkpt>
      <trkpt lat="43.92879" lon="1.8511">
        <ele>280</ele>
        <time>2012-12-13T12:19:51Z</time>
      </trkpt>
      <trkpt lat="43.9287" lon="1.85113">
        <ele>278</ele>
        <time>2012-12-13T12:19:58Z</time>
      </trkpt>
      <trkpt lat="43.92861" lon="1.85119">
        <ele>278</ele>
        <time>2012-12-13T12:20:06Z</time>
      </trkpt>
      <trkpt lat="43.92853" lon="1.85127">
        <ele>277</ele>
        <time>2012-12-13T12:20:15Z</time>
      </trkpt>
      <trkpt lat="43.92844" lon="1.85132">
        <ele>276</ele>
        <time>2012-12-13T12:20:23Z</time>
      </trkpt>
      <trkpt lat="43.92833" lon="1.85134">
        <ele>276</ele>
        <time>2012-12-13T12:20:29Z</time>
      </trkpt>
      <trkpt lat="43.92824" lon="1.85135">
        <ele>276</ele>
        <time>2012-12-13T12:20:35Z</time>
      </trkpt>
      <trkpt lat="43.92815" lon="1.85138">
        <ele>275</ele>
        <time>2012-12-13T12:20:43Z</time>
      </trkpt>
      <trkpt lat="43.92809" lon="1.8515">
        <ele>276</ele>
        <time>2012-12-13T12:20:53Z</time>
      </trkpt>
      <trkpt lat="43.928" lon="1.85153">
        <ele>276</ele>
        <time>2012-12-13T12:21:00Z</time>
      </trkpt>
      <trkpt lat="43.92791" lon="1.85158">
        <ele>276</ele>
        <time>2012-12-13T12:21:11Z</time>
      </trkpt>
      <trkpt lat="43.92784" lon="1.85164">
        <ele>275</ele>
        <time>2012-12-13T12:21:18Z</time>
      </trkpt>
      <trkpt lat="43.92774" lon="1.85169">
        <ele>273</ele>
        <time>2012-12-13T12:21:25Z</time>
      </trkpt>
      <trkpt lat="43.92765" lon="1.85173">
        <ele>271</ele>
        <time>2012-12-13T12:21:31Z</time>
      </trkpt>
      <trkpt lat="43.92753" lon="1.85179">
        <ele>270</ele>
        <time>2012-12-13T12:21:46Z</time>
      </trkpt>
      <trkpt lat="43.92741" lon="1.85184">
        <ele>270</ele>
        <time>2012-12-13T12:21:58Z</time>
      </trkpt>
      <trkpt lat="43.92731" lon="1.85185">
        <ele>272</ele>
        <time>2012-12-13T12:22:27Z</time>
      </trkpt>
      <trkpt lat="43.92697" lon="1.85189">
        <ele>272</ele>
        <time>2012-12-13T12:22:53Z</time>
      </trkpt>
      <trkpt lat="43.92673" lon="1.85188">
        <ele>272</ele>
        <time>2012-12-13T12:23:00Z</time>
      </trkpt>
      <trkpt lat="43.92663" lon="1.8519">
        <ele>271</ele>
        <time>2012-12-13T12:23:05Z</time>
      </trkpt>
      <trkpt lat="43.92658" lon="1.85192">
        <ele>265</ele>
        <time>2012-12-13T12:23:17Z</time>
      </trkpt>
      <trkpt lat="43.92655" lon="1.85196">
        <ele>266</ele>
        <time>2012-12-13T12:23:28Z</time>
      </trkpt>
      <trkpt lat="43.92646" lon="1.85203">
        <ele>268</ele>
        <time>2012-12-13T12:23:38Z</time>
      </trkpt>
      <trkpt lat="43.92637" lon="1.8521">
        <ele>268</ele>
        <time>2012-12-13T12:23:47Z</time>
      </trkpt>
      <trkpt lat="43.92628" lon="1.85217">
        <ele>266</ele>
        <time>2012-12-13T12:23:57Z</time>
      </trkpt>
      <trkpt lat="43.92617" lon="1.85218">
        <ele>266</ele>
        <time>2012-12-13T12:24:02Z</time>
      </trkpt>
      <trkpt lat="43.92604" lon="1.85222">
        <ele>265</ele>
        <time>2012-12-13T12:24:16Z</time>
      </trkpt>
      <trkpt lat="43.92602" lon="1.85234">
        <ele>264</ele>
        <time>2012-12-13T12:24:24Z</time>
      </trkpt>
      <trkpt lat="43.92598" lon="1.85246">
        <ele>263</ele>
        <time>2012-12-13T12:24:29Z</time>
      </trkpt>
      <trkpt lat="43.92584" lon="1.85243">
        <ele>255</ele>
        <time>2012-12-13T12:24:40Z</time>
      </trkpt>
      <trkpt lat="43.92575" lon="1.8525">
        <ele>252</ele>
        <time>2012-12-13T12:24:51Z</time>
      </trkpt>
      <trkpt lat="43.92569" lon="1.85261">
        <ele>250</ele>
        <time>2012-12-13T12:24:58Z</time>
      </trkpt>
      <trkpt lat="43.92561" lon="1.85275">
        <ele>249</ele>
        <time>2012-12-13T12:25:13Z</time>
      </trkpt>
      <trkpt lat="43.92552" lon="1.85283">
        <ele>249</ele>
        <time>2012-12-13T12:25:26Z</time>
      </trkpt>
      <trkpt lat="43.92549" lon="1.85296">
        <ele>250</ele>
        <time>2012-12-13T12:25:40Z</time>
      </trkpt>
      <trkpt lat="43.92545" lon="1.85308">
        <ele>253</ele>
        <time>2012-12-13T12:25:51Z</time>
      </trkpt>
      <trkpt lat="43.92542" lon="1.85325">
        <ele>254</ele>
        <time>2012-12-13T12:25:57Z</time>
      </trkpt>
      <trkpt lat="43.92539" lon="1.85339">
        <ele>255</ele>
        <time>2012-12-13T12:26:00Z</time>
      </trkpt>
      <trkpt lat="43.92536" lon="1.85352">
        <ele>255</ele>
        <time>2012-12-13T12:26:04Z</time>
      </trkpt>
      <trkpt lat="43.92534" lon="1.85366">
        <ele>254</ele>
        <time>2012-12-13T12:26:09Z</time>
      </trkpt>
      <trkpt lat="43.92531" lon="1.85382">
        <ele>252</ele>
        <time>2012-12-13T12:26:23Z</time>
      </trkpt>
      <trkpt lat="43.92526" lon="1.85392">
        <ele>251</ele>
        <time>2012-12-13T12:26:30Z</time>
      </trkpt>
      <trkpt lat="43.92521" lon="1.85404">
        <ele>248</ele>
        <time>2012-12-13T12:26:40Z</time>
      </trkpt>
      <trkpt lat="43.92518" lon="1.85419">
        <ele>246</ele>
        <time>2012-12-13T12:26:46Z</time>
      </trkpt>
      <trkpt lat="43.92511" lon="1.8543">
        <ele>245</ele>
        <time>2012-12-13T12:26:53Z</time>
      </trkpt>
      <trkpt lat="43.92505" lon="1.8544">
        <ele>245</ele>
        <time>2012-12-13T12:27:07Z</time>
      </trkpt>
      <trkpt lat="43.92499" lon="1.8544">
        <ele>250</ele>
        <time>2012-12-13T12:27:37Z</time>
      </trkpt>
      <trkpt lat="43.92495" lon="1.85448">
        <ele>250</ele>
        <time>2012-12-13T12:28:41Z</time>
      </trkpt>
      <trkpt lat="43.92494" lon="1.85464">
        <ele>250</ele>
        <time>2012-12-13T12:28:51Z</time>
      </trkpt>
      <trkpt lat="43.92489" lon="1.85475">
        <ele>251</ele>
        <time>2012-12-13T12:29:00Z</time>
      </trkpt>
      <trkpt lat="43.92484" lon="1.85487">
        <ele>250</ele>
        <time>2012-12-13T12:29:10Z</time>
      </trkpt>
      <trkpt lat="43.92483" lon="1.855">
        <ele>249</ele>
        <time>2012-12-13T12:29:18Z</time>
      </trkpt>
      <trkpt lat="43.92478" lon="1.85512">
        <ele>247</ele>
        <time>2012-12-13T12:29:27Z</time>
      </trkpt>
      <trkpt lat="43.92473" lon="1.85524">
        <ele>244</ele>
        <time>2012-12-13T12:29:38Z</time>
      </trkpt>
      <trkpt lat="43.92469" lon="1.85536">
        <ele>243</ele>
        <time>2012-12-13T12:29:45Z</time>
      </trkpt>
      <trkpt lat="43.92464" lon="1.85546">
        <ele>241</ele>
        <time>2012-12-13T12:29:52Z</time>
      </trkpt>
      <trkpt lat="43.92461" lon="1.85552">
        <ele>241</ele>
        <time>2012-12-13T12:29:58Z</time>
      </trkpt>
      <trkpt lat="43.92458" lon="1.85557">
        <ele>241</ele>
        <time>2012-12-13T12:30:03Z</time>
      </trkpt>
      <trkpt lat="43.92451" lon="1.8557">
        <ele>240</ele>
        <time>2012-12-13T12:30:16Z</time>
      </trkpt>
      <trkpt lat="43.92451" lon="1.85583">
        <ele>239</ele>
        <time>2012-12-13T12:30:27Z</time>
      </trkpt>
      <trkpt lat="43.92448" lon="1.85595">
        <ele>237</ele>
        <time>2012-12-13T12:30:35Z</time>
      </trkpt>
      <trkpt lat="43.92444" lon="1.85607">
        <ele>237</ele>
        <time>2012-12-13T12:30:44Z</time>
      </trkpt>
      <trkpt lat="43.92438" lon="1.85617">
        <ele>238</ele>
        <time>2012-12-13T12:30:50Z</time>
      </trkpt>
      <trkpt lat="43.92431" lon="1.85627">
        <ele>239</ele>
        <time>2012-12-13T12:30:56Z</time>
      </trkpt>
      <trkpt lat="43.92423" lon="1.85635">
        <ele>239</ele>
        <time>2012-12-13T12:31:04Z</time>
      </trkpt>
      <trkpt lat="43.92416" lon="1.85645">
        <ele>239</ele>
        <time>2012-12-13T12:31:15Z</time>
      </trkpt>
      <trkpt lat="43.92407" lon="1.85653">
        <ele>239</ele>
        <time>2012-12-13T12:31:22Z</time>
      </trkpt>
      <trkpt lat="43.924" lon="1.8566">
        <ele>237</ele>
        <time>2012-12-13T12:31:32Z</time>
      </trkpt>
      <trkpt lat="43.92396" lon="1.85665">
        <ele>235</ele>
        <time>2012-12-13T12:31:44Z</time>
      </trkpt>
      <trkpt lat="43.92394" lon="1.85681">
        <ele>232</ele>
        <time>2012-12-13T12:31:59Z</time>
      </trkpt>
      <trkpt lat="43.92392" lon="1.85693">
        <ele>230</ele>
        <time>2012-12-13T12:32:07Z</time>
      </trkpt>
      <trkpt lat="43.9239" lon="1.8572">
        <ele>217</ele>
        <time>2012-12-13T12:32:30Z</time>
      </trkpt>
      <trkpt lat="43.92389" lon="1.85734">
        <ele>216</ele>
        <time>2012-12-13T12:32:36Z</time>
      </trkpt>
      <trkpt lat="43.92389" lon="1.85747">
        <ele>216</ele>
        <time>2012-12-13T12:32:43Z</time>
      </trkpt>
      <trkpt lat="43.92388" lon="1.85761">
        <ele>220</ele>
        <time>2012-12-13T12:32:48Z</time>
      </trkpt>
      <trkpt lat="43.92386" lon="1.85788">
        <ele>230</ele>
        <time>2012-12-13T12:33:04Z</time>
      </trkpt>
      <trkpt lat="43.92386" lon="1.85801">
        <ele>229</ele>
        <time>2012-12-13T12:33:12Z</time>
      </trkpt>
      <trkpt lat="43.92388" lon="1.85817">
        <ele>227</ele>
        <time>2012-12-13T12:33:20Z</time>
      </trkpt>
      <trkpt lat="43.92393" lon="1.8584">
        <ele>217</ele>
        <time>2012-12-13T12:33:42Z</time>
      </trkpt>
      <trkpt lat="43.92393" lon="1.85853">
        <ele>217</ele>
        <time>2012-12-13T12:33:50Z</time>
      </trkpt>
      <trkpt lat="43.92391" lon="1.85868">
        <ele>213</ele>
        <time>2012-12-13T12:34:01Z</time>
      </trkpt>
      <trkpt lat="43.92387" lon="1.85882">
        <ele>211</ele>
        <time>2012-12-13T12:34:13Z</time>
      </trkpt>
      <trkpt lat="43.92386" lon="1.85888">
        <ele>210</ele>
        <time>2012-12-13T12:34:17Z</time>
      </trkpt>
      <trkpt lat="43.92384" lon="1.85895">
        <ele>210</ele>
        <time>2012-12-13T12:34:21Z</time>
      </trkpt>
      <trkpt lat="43.92381" lon="1.85901">
        <ele>210</ele>
        <time>2012-12-13T12:34:25Z</time>
      </trkpt>
      <trkpt lat="43.92377" lon="1.85906">
        <ele>211</ele>
        <time>2012-12-13T12:34:30Z</time>
      </trkpt>
      <trkpt lat="43.92374" lon="1.85911">
        <ele>213</ele>
        <time>2012-12-13T12:34:35Z</time>
      </trkpt>
      <trkpt lat="43.92373" lon="1.85918">
        <ele>213</ele>
        <time>2012-12-13T12:34:39Z</time>
      </trkpt>
      <trkpt lat="43.9237" lon="1.85928">
        <ele>214</ele>
        <time>2012-12-13T12:34:48Z</time>
      </trkpt>
      <trkpt lat="43.92368" lon="1.85934">
        <ele>214</ele>
        <time>2012-12-13T12:34:51Z</time>
      </trkpt>
      <trkpt lat="43.92367" lon="1.85943">
        <ele>213</ele>
        <time>2012-12-13T12:34:57Z</time>
      </trkpt>
      <trkpt lat="43.92363" lon="1.85956">
        <ele>216</ele>
        <time>2012-12-13T12:35:42Z</time>
      </trkpt>
      <trkpt lat="43.92361" lon="1.85961">
        <ele>216</ele>
        <time>2012-12-13T12:35:46Z</time>
      </trkpt>
      <trkpt lat="43.92356" lon="1.85973">
        <ele>215</ele>
        <time>2012-12-13T12:35:56Z</time>
      </trkpt>
      <trkpt lat="43.92353" lon="1.85979">
        <ele>214</ele>
        <time>2012-12-13T12:36:00Z</time>
      </trkpt>
      <trkpt lat="43.9235" lon="1.85987">
        <ele>211</ele>
        <time>2012-12-13T12:36:05Z</time>
      </trkpt>
      <trkpt lat="43.92347" lon="1.85993">
        <ele>210</ele>
        <time>2012-12-13T12:36:11Z</time>
      </trkpt>
      <trkpt lat="43.92342" lon="1.85999">
        <ele>210</ele>
        <time>2012-12-13T12:36:17Z</time>
      </trkpt>
      <trkpt lat="43.92336" lon="1.86008">
        <ele>211</ele>
        <time>2012-12-13T12:36:24Z</time>
      </trkpt>
      <trkpt lat="43.92332" lon="1.86016">
        <ele>209</ele>
        <time>2012-12-13T12:36:29Z</time>
      </trkpt>
      <trkpt lat="43.9233" lon="1.86022">
        <ele>209</ele>
        <time>2012-12-13T12:36:33Z</time>
      </trkpt>
      <trkpt lat="43.92325" lon="1.86026">
        <ele>208</ele>
        <time>2012-12-13T12:36:38Z</time>
      </trkpt>
      <trkpt lat="43.92322" lon="1.86031">
        <ele>208</ele>
        <time>2012-12-13T12:36:42Z</time>
      </trkpt>
      <trkpt lat="43.92319" lon="1.86035">
        <ele>209</ele>
        <time>2012-12-13T12:36:46Z</time>
      </trkpt>
      <trkpt lat="43.9231" lon="1.86038">
        <ele>210</ele>
        <time>2012-12-13T12:36:55Z</time>
      </trkpt>
      <trkpt lat="43.92301" lon="1.86043">
        <ele>209</ele>
        <time>2012-12-13T12:37:02Z</time>
      </trkpt>
      <trkpt lat="43.92292" lon="1.86046">
        <ele>208</ele>
        <time>2012-12-13T12:37:09Z</time>
      </trkpt>
      <trkpt lat="43.92287" lon="1.86047">
        <ele>208</ele>
        <time>2012-12-13T12:37:14Z</time>
      </trkpt>
      <trkpt lat="43.92282" lon="1.86049">
        <ele>208</ele>
        <time>2012-12-13T12:37:19Z</time>
      </trkpt>
      <trkpt lat="43.92277" lon="1.86049">
        <ele>207</ele>
        <time>2012-12-13T12:37:23Z</time>
      </trkpt>
      <trkpt lat="43.92268" lon="1.86048">
        <ele>206</ele>
        <time>2012-12-13T12:37:34Z</time>
      </trkpt>
      <trkpt lat="43.92261" lon="1.86046">
        <ele>205</ele>
        <time>2012-12-13T12:37:41Z</time>
      </trkpt>
      <trkpt lat="43.92256" lon="1.86044">
        <ele>203</ele>
        <time>2012-12-13T12:37:46Z</time>
      </trkpt>
      <trkpt lat="43.92252" lon="1.8604">
        <ele>202</ele>
        <time>2012-12-13T12:37:51Z</time>
      </trkpt>
      <trkpt lat="43.92243" lon="1.86035">
        <ele>202</ele>
        <time>2012-12-13T12:37:58Z</time>
      </trkpt>
      <trkpt lat="43.92235" lon="1.86034">
        <ele>202</ele>
        <time>2012-12-13T12:38:06Z</time>
      </trkpt>
      <trkpt lat="43.92228" lon="1.86033">
        <ele>202</ele>
        <time>2012-12-13T12:38:11Z</time>
      </trkpt>
      <trkpt lat="43.92223" lon="1.86031">
        <ele>203</ele>
        <time>2012-12-13T12:38:15Z</time>
      </trkpt>
      <trkpt lat="43.92219" lon="1.86029">
        <ele>203</ele>
        <time>2012-12-13T12:38:19Z</time>
      </trkpt>
      <trkpt lat="43.92213" lon="1.86027">
        <ele>203</ele>
        <time>2012-12-13T12:38:23Z</time>
      </trkpt>
      <trkpt lat="43.92208" lon="1.86025">
        <ele>203</ele>
        <time>2012-12-13T12:38:29Z</time>
      </trkpt>
      <trkpt lat="43.92203" lon="1.86025">
        <ele>204</ele>
        <time>2012-12-13T12:38:33Z</time>
      </trkpt>
      <trkpt lat="43.92198" lon="1.86025">
        <ele>203</ele>
        <time>2012-12-13T12:38:37Z</time>
      </trkpt>
      <trkpt lat="43.92192" lon="1.86022">
        <ele>203</ele>
        <time>2012-12-13T12:38:41Z</time>
      </trkpt>
      <trkpt lat="43.92187" lon="1.86022">
        <ele>204</ele>
        <time>2012-12-13T12:38:46Z</time>
      </trkpt>
      <trkpt lat="43.92177" lon="1.86023">
        <ele>205</ele>
        <time>2012-12-13T12:38:55Z</time>
      </trkpt>
      <trkpt lat="43.92169" lon="1.86032">
        <ele>205</ele>
        <time>2012-12-13T12:39:04Z</time>
      </trkpt>
      <trkpt lat="43.92161" lon="1.8604">
        <ele>205</ele>
        <time>2012-12-13T12:39:12Z</time>
      </trkpt>
      <trkpt lat="43.92155" lon="1.86049">
        <ele>207</ele>
        <time>2012-12-13T12:39:20Z</time>
      </trkpt>
      <trkpt lat="43.9215" lon="1.86062">
        <ele>207</ele>
        <time>2012-12-13T12:39:27Z</time>
      </trkpt>
      <trkpt lat="43.92146" lon="1.86073">
        <ele>210</ele>
        <time>2012-12-13T12:39:38Z</time>
      </trkpt>
      <trkpt lat="43.92144" lon="1.86085">
        <ele>206</ele>
        <time>2012-12-13T12:39:49Z</time>
      </trkpt>
      <trkpt lat="43.92134" lon="1.8609">
        <ele>202</ele>
        <time>2012-12-13T12:39:56Z</time>
      </trkpt>
      <trkpt lat="43.92129" lon="1.86102">
        <ele>202</ele>
        <time>2012-12-13T12:40:04Z</time>
      </trkpt>
      <trkpt lat="43.92127" lon="1.86108">
        <ele>201</ele>
        <time>2012-12-13T12:40:10Z</time>
      </trkpt>
      <trkpt lat="43.92123" lon="1.86114">
        <ele>200</ele>
        <time>2012-12-13T12:40:14Z</time>
      </trkpt>
      <trkpt lat="43.92116" lon="1.86123">
        <ele>201</ele>
        <time>2012-12-13T12:40:23Z</time>
      </trkpt>
      <trkpt lat="43.9211" lon="1.86127">
        <ele>202</ele>
        <time>2012-12-13T12:40:28Z</time>
      </trkpt>
      <trkpt lat="43.92107" lon="1.86133">
        <ele>201</ele>
        <time>2012-12-13T12:40:33Z</time>
      </trkpt>
      <trkpt lat="43.92103" lon="1.86139">
        <ele>199</ele>
        <time>2012-12-13T12:40:38Z</time>
      </trkpt>
      <trkpt lat="43.92099" lon="1.86144">
        <ele>198</ele>
        <time>2012-12-13T12:40:43Z</time>
      </trkpt>
      <trkpt lat="43.92096" lon="1.8615">
        <ele>197</ele>
        <time>2012-12-13T12:40:47Z</time>
      </trkpt>
      <trkpt lat="43.92091" lon="1.86156">
        <ele>197</ele>
        <time>2012-12-13T12:40:52Z</time>
      </trkpt>
      <trkpt lat="43.92082" lon="1.86166">
        <ele>195</ele>
        <time>2012-12-13T12:41:05Z</time>
      </trkpt>
      <trkpt lat="43.92075" lon="1.86174">
        <ele>195</ele>
        <time>2012-12-13T12:41:13Z</time>
      </trkpt>
      <trkpt lat="43.92072" lon="1.86182">
        <ele>196</ele>
        <time>2012-12-13T12:41:19Z</time>
      </trkpt>
      <trkpt lat="43.92069" lon="1.86188">
        <ele>197</ele>
        <time>2012-12-13T12:41:24Z</time>
      </trkpt>
      <trkpt lat="43.92062" lon="1.86197">
        <ele>197</ele>
        <time>2012-12-13T12:41:33Z</time>
      </trkpt>
      <trkpt lat="43.92057" lon="1.86209">
        <ele>195</ele>
        <time>2012-12-13T12:41:41Z</time>
      </trkpt>
      <trkpt lat="43.92051" lon="1.86218">
        <ele>196</ele>
        <time>2012-12-13T12:41:49Z</time>
      </trkpt>
      <trkpt lat="43.92044" lon="1.8623">
        <ele>197</ele>
        <time>2012-12-13T12:41:58Z</time>
      </trkpt>
      <trkpt lat="43.92041" lon="1.8624">
        <ele>196</ele>
        <time>2012-12-13T12:42:05Z</time>
      </trkpt>
      <trkpt lat="43.92038" lon="1.86245">
        <ele>192</ele>
        <time>2012-12-13T12:42:37Z</time>
      </trkpt>
      <trkpt lat="43.92036" lon="1.86253">
        <ele>192</ele>
        <time>2012-12-13T12:42:42Z</time>
      </trkpt>
      <trkpt lat="43.92034" lon="1.86259">
        <ele>192</ele>
        <time>2012-12-13T12:42:45Z</time>
      </trkpt>
      <trkpt lat="43.92033" lon="1.86265">
        <ele>192</ele>
        <time>2012-12-13T12:42:48Z</time>
      </trkpt>
      <trkpt lat="43.92031" lon="1.8627">
        <ele>190</ele>
        <time>2012-12-13T12:42:51Z</time>
      </trkpt>
      <trkpt lat="43.92029" lon="1.86277">
        <ele>190</ele>
        <time>2012-12-13T12:42:55Z</time>
      </trkpt>
      <trkpt lat="43.92027" lon="1.86278">
        <ele>187</ele>
        <time>2012-12-13T12:43:12Z</time>
      </trkpt>
      <trkpt lat="43.9202" lon="1.86289">
        <ele>187</ele>
        <time>2012-12-13T12:43:20Z</time>
      </trkpt>
      <trkpt lat="43.92015" lon="1.86294">
        <ele>187</ele>
        <time>2012-12-13T12:43:24Z</time>
      </trkpt>
      <trkpt lat="43.92012" lon="1.863">
        <ele>189</ele>
        <time>2012-12-13T12:43:29Z</time>
      </trkpt>
      <trkpt lat="43.92009" lon="1.86308">
        <ele>190</ele>
        <time>2012-12-13T12:43:34Z</time>
      </trkpt>
      <trkpt lat="43.92008" lon="1.86315">
        <ele>188</ele>
        <time>2012-12-13T12:43:38Z</time>
      </trkpt>
      <trkpt lat="43.92006" lon="1.86327">
        <ele>186</ele>
        <time>2012-12-13T12:43:44Z</time>
      </trkpt>
      <trkpt lat="43.92004" lon="1.86332">
        <ele>185</ele>
        <time>2012-12-13T12:43:47Z</time>
      </trkpt>
      <trkpt lat="43.92001" lon="1.86344">
        <ele>183</ele>
        <time>2012-12-13T12:43:54Z</time>
      </trkpt>
      <trkpt lat="43.92001" lon="1.86351">
        <ele>184</ele>
        <time>2012-12-13T12:43:57Z</time>
      </trkpt>
      <trkpt lat="43.92" lon="1.86358">
        <ele>184</ele>
        <time>2012-12-13T12:44:00Z</time>
      </trkpt>
      <trkpt lat="43.91998" lon="1.86363">
        <ele>184</ele>
        <time>2012-12-13T12:44:05Z</time>
      </trkpt>
      <trkpt lat="43.91993" lon="1.86368">
        <ele>184</ele>
        <time>2012-12-13T12:44:09Z</time>
      </trkpt>
      <trkpt lat="43.91986" lon="1.86378">
        <ele>184</ele>
        <time>2012-12-13T12:44:19Z</time>
      </trkpt>
      <trkpt lat="43.9198" lon="1.86388">
        <ele>182</ele>
        <time>2012-12-13T12:44:32Z</time>
      </trkpt>
      <trkpt lat="43.91978" lon="1.86393">
        <ele>180</ele>
        <time>2012-12-13T12:44:38Z</time>
      </trkpt>
      <trkpt lat="43.91967" lon="1.86403">
        <ele>181</ele>
        <time>2012-12-13T12:44:54Z</time>
      </trkpt>
      <trkpt lat="43.91957" lon="1.86403">
        <ele>182</ele>
        <time>2012-12-13T12:45:00Z</time>
      </trkpt>
      <trkpt lat="43.91953" lon="1.86407">
        <ele>182</ele>
        <time>2012-12-13T12:45:05Z</time>
      </trkpt>
      <trkpt lat="43.91949" lon="1.86413">
        <ele>180</ele>
        <time>2012-12-13T12:45:17Z</time>
      </trkpt>
      <trkpt lat="43.91945" lon="1.86419">
        <ele>180</ele>
        <time>2012-12-13T12:45:22Z</time>
      </trkpt>
      <trkpt lat="43.91942" lon="1.86424">
        <ele>181</ele>
        <time>2012-12-13T12:45:26Z</time>
      </trkpt>
      <trkpt lat="43.9194" lon="1.86431">
        <ele>181</ele>
        <time>2012-12-13T12:45:30Z</time>
      </trkpt>
      <trkpt lat="43.91935" lon="1.86442">
        <ele>181</ele>
        <time>2012-12-13T12:45:39Z</time>
      </trkpt>
      <trkpt lat="43.91933" lon="1.8645">
        <ele>179</ele>
        <time>2012-12-13T12:45:45Z</time>
      </trkpt>
      <trkpt lat="43.91929" lon="1.86457">
        <ele>178</ele>
        <time>2012-12-13T12:45:51Z</time>
      </trkpt>
      <trkpt lat="43.91926" lon="1.86462">
        <ele>176</ele>
        <time>2012-12-13T12:45:56Z</time>
      </trkpt>
      <trkpt lat="43.9192" lon="1.86472">
        <ele>176</ele>
        <time>2012-12-13T12:46:05Z</time>
      </trkpt>
      <trkpt lat="43.91912" lon="1.8648">
        <ele>175</ele>
        <time>2012-12-13T12:46:13Z</time>
      </trkpt>
      <trkpt lat="43.91907" lon="1.86491">
        <ele>175</ele>
        <time>2012-12-13T12:46:22Z</time>
      </trkpt>
      <trkpt lat="43.91903" lon="1.86503">
        <ele>175</ele>
        <time>2012-12-13T12:46:30Z</time>
      </trkpt>
      <trkpt lat="43.91898" lon="1.86509">
        <ele>175</ele>
        <time>2012-12-13T12:46:35Z</time>
      </trkpt>
      <trkpt lat="43.91895" lon="1.86515">
        <ele>174</ele>
        <time>2012-12-13T12:46:39Z</time>
      </trkpt>
      <trkpt lat="43.91892" lon="1.86523">
        <ele>173</ele>
        <time>2012-12-13T12:46:44Z</time>
      </trkpt>
      <trkpt lat="43.9189" lon="1.86531">
        <ele>172</ele>
        <time>2012-12-13T12:46:49Z</time>
      </trkpt>
      <trkpt lat="43.91888" lon="1.86537">
        <ele>171</ele>
        <time>2012-12-13T12:46:53Z</time>
      </trkpt>
      <trkpt lat="43.91884" lon="1.86549">
        <ele>170</ele>
        <time>2012-12-13T12:47:01Z</time>
      </trkpt>
      <trkpt lat="43.91879" lon="1.8656">
        <ele>172</ele>
        <time>2012-12-13T12:47:09Z</time>
      </trkpt>
      <trkpt lat="43.91872" lon="1.86569">
        <ele>171</ele>
        <time>2012-12-13T12:47:20Z</time>
      </trkpt>
      <trkpt lat="43.91866" lon="1.86578">
        <ele>171</ele>
        <time>2012-12-13T12:47:27Z</time>
      </trkpt>
      <trkpt lat="43.9186" lon="1.86589">
        <ele>172</ele>
        <time>2012-12-13T12:47:36Z</time>
      </trkpt>
      <trkpt lat="43.91854" lon="1.86598">
        <ele>172</ele>
        <time>2012-12-13T12:47:44Z</time>
      </trkpt>
      <trkpt lat="43.91849" lon="1.86609">
        <ele>170</ele>
        <time>2012-12-13T12:47:51Z</time>
      </trkpt>
      <trkpt lat="43.91844" lon="1.8662">
        <ele>169</ele>
        <time>2012-12-13T12:47:58Z</time>
      </trkpt>
      <trkpt lat="43.91839" lon="1.86631">
        <ele>168</ele>
        <time>2012-12-13T12:48:07Z</time>
      </trkpt>
      <trkpt lat="43.91834" lon="1.86643">
        <ele>169</ele>
        <time>2012-12-13T12:48:16Z</time>
      </trkpt>
      <trkpt lat="43.91833" lon="1.86649">
        <ele>170</ele>
        <time>2012-12-13T12:48:19Z</time>
      </trkpt>
      <trkpt lat="43.9183" lon="1.86661">
        <ele>171</ele>
        <time>2012-12-13T12:48:26Z</time>
      </trkpt>
      <trkpt lat="43.91827" lon="1.86668">
        <ele>170</ele>
        <time>2012-12-13T12:48:30Z</time>
      </trkpt>
      <trkpt lat="43.91825" lon="1.86675">
        <ele>168</ele>
        <time>2012-12-13T12:48:34Z</time>
      </trkpt>
      <trkpt lat="43.91823" lon="1.86682">
        <ele>167</ele>
        <time>2012-12-13T12:48:38Z</time>
      </trkpt>
      <trkpt lat="43.91817" lon="1.86696">
        <ele>170</ele>
        <time>2012-12-13T12:49:02Z</time>
      </trkpt>
      <trkpt lat="43.91813" lon="1.86702">
        <ele>169</ele>
        <time>2012-12-13T12:49:08Z</time>
      </trkpt>
      <trkpt lat="43.9181" lon="1.86708">
        <ele>168</ele>
        <time>2012-12-13T12:49:13Z</time>
      </trkpt>
      <trkpt lat="43.91808" lon="1.86715">
        <ele>167</ele>
        <time>2012-12-13T12:49:17Z</time>
      </trkpt>
      <trkpt lat="43.91805" lon="1.86723">
        <ele>168</ele>
        <time>2012-12-13T12:49:23Z</time>
      </trkpt>
      <trkpt lat="43.91804" lon="1.86729">
        <ele>169</ele>
        <time>2012-12-13T12:49:27Z</time>
      </trkpt>
      <trkpt lat="43.918" lon="1.86735">
        <ele>169</ele>
        <time>2012-12-13T12:49:32Z</time>
      </trkpt>
      <trkpt lat="43.91792" lon="1.86729">
        <ele>169</ele>
        <time>2012-12-13T12:49:46Z</time>
      </trkpt>
      <trkpt lat="43.91782" lon="1.86725">
        <ele>168</ele>
        <time>2012-12-13T12:49:54Z</time>
      </trkpt>
      <trkpt lat="43.91773" lon="1.86723">
        <ele>169</ele>
        <time>2012-12-13T12:50:06Z</time>
      </trkpt>
      <trkpt lat="43.91765" lon="1.86715">
        <ele>169</ele>
        <time>2012-12-13T12:50:14Z</time>
      </trkpt>
      <trkpt lat="43.91758" lon="1.86706">
        <ele>169</ele>
        <time>2012-12-13T12:50:19Z</time>
      </trkpt>
      <trkpt lat="43.9175" lon="1.86699">
        <ele>170</ele>
        <time>2012-12-13T12:50:27Z</time>
      </trkpt>
      <trkpt lat="43.91741" lon="1.86693">
        <ele>171</ele>
        <time>2012-12-13T12:50:38Z</time>
      </trkpt>
      <trkpt lat="43.91733" lon="1.86684">
        <ele>170</ele>
        <time>2012-12-13T12:50:45Z</time>
      </trkpt>
      <trkpt lat="43.91729" lon="1.8668">
        <ele>170</ele>
        <time>2012-12-13T12:50:49Z</time>
      </trkpt>
      <trkpt lat="43.91725" lon="1.86676">
        <ele>169</ele>
        <time>2012-12-13T12:50:54Z</time>
      </trkpt>
      <trkpt lat="43.91717" lon="1.86667">
        <ele>170</ele>
        <time>2012-12-13T12:51:01Z</time>
      </trkpt>
      <trkpt lat="43.91712" lon="1.86656">
        <ele>170</ele>
        <time>2012-12-13T12:51:11Z</time>
      </trkpt>
      <trkpt lat="43.91707" lon="1.86653">
        <ele>171</ele>
        <time>2012-12-13T12:51:17Z</time>
      </trkpt>
      <trkpt lat="43.91703" lon="1.86648">
        <ele>174</ele>
        <time>2012-12-13T12:51:23Z</time>
      </trkpt>
      <trkpt lat="43.91695" lon="1.86641">
        <ele>174</ele>
        <time>2012-12-13T12:51:31Z</time>
      </trkpt>
      <trkpt lat="43.91691" lon="1.86638">
        <ele>173</ele>
        <time>2012-12-13T12:51:37Z</time>
      </trkpt>
      <trkpt lat="43.91686" lon="1.86633">
        <ele>172</ele>
        <time>2012-12-13T12:51:42Z</time>
      </trkpt>
      <trkpt lat="43.91683" lon="1.86627">
        <ele>173</ele>
        <time>2012-12-13T12:51:47Z</time>
      </trkpt>
      <trkpt lat="43.91682" lon="1.8662">
        <ele>174</ele>
        <time>2012-12-13T12:51:53Z</time>
      </trkpt>
      <trkpt lat="43.91679" lon="1.86615">
        <ele>173</ele>
        <time>2012-12-13T12:52:03Z</time>
      </trkpt>
      <trkpt lat="43.91686" lon="1.86603">
        <ele>176</ele>
        <time>2012-12-13T12:52:23Z</time>
      </trkpt>
      <trkpt lat="43.91691" lon="1.86597">
        <ele>178</ele>
        <time>2012-12-13T12:52:30Z</time>
      </trkpt>
      <trkpt lat="43.91694" lon="1.86585">
        <ele>177</ele>
        <time>2012-12-13T12:52:40Z</time>
      </trkpt>
      <trkpt lat="43.91699" lon="1.86574">
        <ele>176</ele>
        <time>2012-12-13T12:52:49Z</time>
      </trkpt>
      <trkpt lat="43.91702" lon="1.86567">
        <ele>176</ele>
        <time>2012-12-13T12:52:54Z</time>
      </trkpt>
      <trkpt lat="43.91703" lon="1.86561">
        <ele>178</ele>
        <time>2012-12-13T12:52:59Z</time>
      </trkpt>
      <trkpt lat="43.91706" lon="1.86556">
        <ele>179</ele>
        <time>2012-12-13T12:53:04Z</time>
      </trkpt>
      <trkpt lat="43.91713" lon="1.86544">
        <ele>179</ele>
        <time>2012-12-13T12:53:14Z</time>
      </trkpt>
      <trkpt lat="43.91716" lon="1.86533">
        <ele>179</ele>
        <time>2012-12-13T12:53:21Z</time>
      </trkpt>
      <trkpt lat="43.91721" lon="1.86522">
        <ele>180</ele>
        <time>2012-12-13T12:53:32Z</time>
      </trkpt>
      <trkpt lat="43.91726" lon="1.86511">
        <ele>180</ele>
        <time>2012-12-13T12:53:41Z</time>
      </trkpt>
      <trkpt lat="43.91732" lon="1.86501">
        <ele>179</ele>
        <time>2012-12-13T12:53:49Z</time>
      </trkpt>
      <trkpt lat="43.9174" lon="1.86495">
        <ele>178</ele>
        <time>2012-12-13T12:53:56Z</time>
      </trkpt>
      <trkpt lat="43.91746" lon="1.86486">
        <ele>179</ele>
        <time>2012-12-13T12:54:03Z</time>
      </trkpt>
      <trkpt lat="43.91751" lon="1.86474">
        <ele>179</ele>
        <time>2012-12-13T12:54:12Z</time>
      </trkpt>
      <trkpt lat="43.91755" lon="1.86464">
        <ele>177</ele>
        <time>2012-12-13T12:54:21Z</time>
      </trkpt>
      <trkpt lat="43.91759" lon="1.86458">
        <ele>176</ele>
        <time>2012-12-13T12:54:26Z</time>
      </trkpt>
      <trkpt lat="43.91762" lon="1.86452">
        <ele>178</ele>
        <time>2012-12-13T12:54:30Z</time>
      </trkpt>
      <trkpt lat="43.91765" lon="1.86445">
        <ele>180</ele>
        <time>2012-12-13T12:54:37Z</time>
      </trkpt>
      <trkpt lat="43.9177" lon="1.86438">
        <ele>180</ele>
        <time>2012-12-13T12:54:42Z</time>
      </trkpt>
      <trkpt lat="43.91772" lon="1.86433">
        <ele>181</ele>
        <time>2012-12-13T12:54:46Z</time>
      </trkpt>
      <trkpt lat="43.91776" lon="1.86426">
        <ele>181</ele>
        <time>2012-12-13T12:54:51Z</time>
      </trkpt>
      <trkpt lat="43.91783" lon="1.86416">
        <ele>181</ele>
        <time>2012-12-13T12:55:02Z</time>
      </trkpt>
      <trkpt lat="43.91786" lon="1.86404">
        <ele>180</ele>
        <time>2012-12-13T12:55:11Z</time>
      </trkpt>
      <trkpt lat="43.91792" lon="1.86392">
        <ele>178</ele>
        <time>2012-12-13T12:55:20Z</time>
      </trkpt>
      <trkpt lat="43.91795" lon="1.86381">
        <ele>178</ele>
        <time>2012-12-13T12:55:25Z</time>
      </trkpt>
      <trkpt lat="43.91798" lon="1.86373">
        <ele>178</ele>
        <time>2012-12-13T12:55:32Z</time>
      </trkpt>
      <trkpt lat="43.91801" lon="1.86366">
        <ele>178</ele>
        <time>2012-12-13T12:55:36Z</time>
      </trkpt>
      <trkpt lat="43.91806" lon="1.86357">
        <ele>178</ele>
        <time>2012-12-13T12:55:44Z</time>
      </trkpt>
      <trkpt lat="43.9181" lon="1.86349">
        <ele>178</ele>
        <time>2012-12-13T12:55:51Z</time>
      </trkpt>
      <trkpt lat="43.91814" lon="1.86338">
        <ele>180</ele>
        <time>2012-12-13T12:55:59Z</time>
      </trkpt>
      <trkpt lat="43.91817" lon="1.86329">
        <ele>180</ele>
        <time>2012-12-13T12:56:05Z</time>
      </trkpt>
      <trkpt lat="43.91819" lon="1.86322">
        <ele>180</ele>
        <time>2012-12-13T12:56:10Z</time>
      </trkpt>
      <trkpt lat="43.91821" lon="1.86316">
        <ele>180</ele>
        <time>2012-12-13T12:56:14Z</time>
      </trkpt>
      <trkpt lat="43.91827" lon="1.86306">
        <ele>182</ele>
        <time>2012-12-13T12:56:21Z</time>
      </trkpt>
      <trkpt lat="43.9183" lon="1.86294">
        <ele>186</ele>
        <time>2012-12-13T12:56:29Z</time>
      </trkpt>
      <trkpt lat="43.91831" lon="1.86288">
        <ele>188</ele>
        <time>2012-12-13T12:56:34Z</time>
      </trkpt>
      <trkpt lat="43.91835" lon="1.8628">
        <ele>188</ele>
        <time>2012-12-13T12:56:41Z</time>
      </trkpt>
      <trkpt lat="43.91835" lon="1.86271">
        <ele>187</ele>
        <time>2012-12-13T12:56:48Z</time>
      </trkpt>
      <trkpt lat="43.91837" lon="1.86265">
        <ele>185</ele>
        <time>2012-12-13T12:56:53Z</time>
      </trkpt>
      <trkpt lat="43.9184" lon="1.86258">
        <ele>182</ele>
        <time>2012-12-13T12:56:57Z</time>
      </trkpt>
      <trkpt lat="43.91841" lon="1.86251">
        <ele>182</ele>
        <time>2012-12-13T12:57:01Z</time>
      </trkpt>
      <trkpt lat="43.91844" lon="1.86245">
        <ele>183</ele>
        <time>2012-12-13T12:57:05Z</time>
      </trkpt>
      <trkpt lat="43.91847" lon="1.86238">
        <ele>184</ele>
        <time>2012-12-13T12:57:10Z</time>
      </trkpt>
      <trkpt lat="43.9185" lon="1.86231">
        <ele>184</ele>
        <time>2012-12-13T12:57:16Z</time>
      </trkpt>
      <trkpt lat="43.91852" lon="1.86224">
        <ele>185</ele>
        <time>2012-12-13T12:57:19Z</time>
      </trkpt>
      <trkpt lat="43.91853" lon="1.86217">
        <ele>184</ele>
        <time>2012-12-13T12:57:23Z</time>
      </trkpt>
      <trkpt lat="43.91855" lon="1.8621">
        <ele>184</ele>
        <time>2012-12-13T12:57:28Z</time>
      </trkpt>
      <trkpt lat="43.91858" lon="1.86202">
        <ele>184</ele>
        <time>2012-12-13T12:57:35Z</time>
      </trkpt>
      <trkpt lat="43.91861" lon="1.86195">
        <ele>184</ele>
        <time>2012-12-13T12:57:40Z</time>
      </trkpt>
      <trkpt lat="43.91865" lon="1.86185">
        <ele>185</ele>
        <time>2012-12-13T12:57:47Z</time>
      </trkpt>
      <trkpt lat="43.91869" lon="1.86178">
        <ele>185</ele>
        <time>2012-12-13T12:57:53Z</time>
      </trkpt>
      <trkpt lat="43.91871" lon="1.86171">
        <ele>185</ele>
        <time>2012-12-13T12:57:58Z</time>
      </trkpt>
      <trkpt lat="43.91873" lon="1.86165">
        <ele>187</ele>
        <time>2012-12-13T12:58:03Z</time>
      </trkpt>
      <trkpt lat="43.91875" lon="1.86158">
        <ele>188</ele>
        <time>2012-12-13T12:58:08Z</time>
      </trkpt>
      <trkpt lat="43.91879" lon="1.86147">
        <ele>187</ele>
        <time>2012-12-13T12:58:16Z</time>
      </trkpt>
      <trkpt lat="43.9188" lon="1.86141">
        <ele>187</ele>
        <time>2012-12-13T12:58:22Z</time>
      </trkpt>
      <trkpt lat="43.91882" lon="1.8613">
        <ele>188</ele>
        <time>2012-12-13T12:58:35Z</time>
      </trkpt>
      <trkpt lat="43.9188" lon="1.86128">
        <ele>186</ele>
        <time>2012-12-13T12:58:47Z</time>
      </trkpt>
      <trkpt lat="43.91875" lon="1.86125">
        <ele>185</ele>
        <time>2012-12-13T12:58:54Z</time>
      </trkpt>
      <trkpt lat="43.91869" lon="1.86122">
        <ele>186</ele>
        <time>2012-12-13T12:59:08Z</time>
      </trkpt>
      <trkpt lat="43.91865" lon="1.86118">
        <ele>186</ele>
        <time>2012-12-13T12:59:15Z</time>
      </trkpt>
      <trkpt lat="43.91861" lon="1.86113">
        <ele>187</ele>
        <time>2012-12-13T12:59:23Z</time>
      </trkpt>
      <trkpt lat="43.91858" lon="1.86112">
        <ele>187</ele>
        <time>2012-12-13T12:59:31Z</time>
      </trkpt>
      <trkpt lat="43.91849" lon="1.86106">
        <ele>187</ele>
        <time>2012-12-13T12:59:40Z</time>
      </trkpt>
      <trkpt lat="43.91845" lon="1.86103">
        <ele>188</ele>
        <time>2012-12-13T12:59:45Z</time>
      </trkpt>
      <trkpt lat="43.9184" lon="1.86102">
        <ele>188</ele>
        <time>2012-12-13T12:59:52Z</time>
      </trkpt>
      <trkpt lat="43.91835" lon="1.86097">
        <ele>189</ele>
        <time>2012-12-13T13:00:02Z</time>
      </trkpt>
      <trkpt lat="43.91831" lon="1.86093">
        <ele>189</ele>
        <time>2012-12-13T13:00:09Z</time>
      </trkpt>
      <trkpt lat="43.91825" lon="1.86088">
        <ele>190</ele>
        <time>2012-12-13T13:00:19Z</time>
      </trkpt>
      <trkpt lat="43.9182" lon="1.86085">
        <ele>190</ele>
        <time>2012-12-13T13:00:26Z</time>
      </trkpt>
      <trkpt lat="43.91816" lon="1.86083">
        <ele>191</ele>
        <time>2012-12-13T13:00:32Z</time>
      </trkpt>
      <trkpt lat="43.91811" lon="1.86081">
        <ele>193</ele>
        <time>2012-12-13T13:00:42Z</time>
      </trkpt>
      <trkpt lat="43.91806" lon="1.86078">
        <ele>194</ele>
        <time>2012-12-13T13:00:48Z</time>
      </trkpt>
      <trkpt lat="43.91803" lon="1.86075">
        <ele>196</ele>
        <time>2012-12-13T13:00:55Z</time>
      </trkpt>
      <trkpt lat="43.91794" lon="1.8607">
        <ele>195</ele>
        <time>2012-12-13T13:01:09Z</time>
      </trkpt>
      <trkpt lat="43.91789" lon="1.86058">
        <ele>194</ele>
        <time>2012-12-13T13:01:16Z</time>
      </trkpt>
      <trkpt lat="43.91792" lon="1.86044">
        <ele>197</ele>
        <time>2012-12-13T13:01:28Z</time>
      </trkpt>
      <trkpt lat="43.91796" lon="1.86032">
        <ele>198</ele>
        <time>2012-12-13T13:01:36Z</time>
      </trkpt>
      <trkpt lat="43.91801" lon="1.86022">
        <ele>198</ele>
        <time>2012-12-13T13:01:45Z</time>
      </trkpt>
      <trkpt lat="43.91806" lon="1.86014">
        <ele>197</ele>
        <time>2012-12-13T13:01:53Z</time>
      </trkpt>
      <trkpt lat="43.91815" lon="1.86004">
        <ele>197</ele>
        <time>2012-12-13T13:02:10Z</time>
      </trkpt>
      <trkpt lat="43.91819" lon="1.85989">
        <ele>199</ele>
        <time>2012-12-13T13:02:20Z</time>
      </trkpt>
      <trkpt lat="43.91824" lon="1.85977">
        <ele>200</ele>
        <time>2012-12-13T13:02:31Z</time>
      </trkpt>
      <trkpt lat="43.91829" lon="1.85966">
        <ele>202</ele>
        <time>2012-12-13T13:02:39Z</time>
      </trkpt>
      <trkpt lat="43.91834" lon="1.85961">
        <ele>203</ele>
        <time>2012-12-13T13:02:44Z</time>
      </trkpt>
      <trkpt lat="43.91836" lon="1.85955">
        <ele>204</ele>
        <time>2012-12-13T13:02:49Z</time>
      </trkpt>
      <trkpt lat="43.91839" lon="1.8595">
        <ele>204</ele>
        <time>2012-12-13T13:02:53Z</time>
      </trkpt>
      <trkpt lat="43.91843" lon="1.85943">
        <ele>202</ele>
        <time>2012-12-13T13:03:00Z</time>
      </trkpt>
      <trkpt lat="43.91844" lon="1.85936">
        <ele>199</ele>
        <time>2012-12-13T13:03:06Z</time>
      </trkpt>
      <trkpt lat="43.91844" lon="1.85928">
        <ele>199</ele>
        <time>2012-12-13T13:03:11Z</time>
      </trkpt>
      <trkpt lat="43.91842" lon="1.85923">
        <ele>199</ele>
        <time>2012-12-13T13:03:15Z</time>
      </trkpt>
      <trkpt lat="43.91837" lon="1.85918">
        <ele>199</ele>
        <time>2012-12-13T13:03:19Z</time>
      </trkpt>
      <trkpt lat="43.91833" lon="1.85913">
        <ele>198</ele>
        <time>2012-12-13T13:03:25Z</time>
      </trkpt>
      <trkpt lat="43.91827" lon="1.85904">
        <ele>199</ele>
        <time>2012-12-13T13:03:34Z</time>
      </trkpt>
      <trkpt lat="43.91823" lon="1.85899">
        <ele>201</ele>
        <time>2012-12-13T13:03:38Z</time>
      </trkpt>
      <trkpt lat="43.91819" lon="1.85894">
        <ele>202</ele>
        <time>2012-12-13T13:03:43Z</time>
      </trkpt>
      <trkpt lat="43.91816" lon="1.8589">
        <ele>200</ele>
        <time>2012-12-13T13:03:48Z</time>
      </trkpt>
      <trkpt lat="43.91813" lon="1.85884">
        <ele>199</ele>
        <time>2012-12-13T13:03:54Z</time>
      </trkpt>
      <trkpt lat="43.91808" lon="1.85878">
        <ele>198</ele>
        <time>2012-12-13T13:04:00Z</time>
      </trkpt>
      <trkpt lat="43.91804" lon="1.85873">
        <ele>196</ele>
        <time>2012-12-13T13:04:04Z</time>
      </trkpt>
      <trkpt lat="43.918" lon="1.85868">
        <ele>196</ele>
        <time>2012-12-13T13:04:08Z</time>
      </trkpt>
      <trkpt lat="43.91796" lon="1.85865">
        <ele>196</ele>
        <time>2012-12-13T13:04:12Z</time>
      </trkpt>
      <trkpt lat="43.91792" lon="1.85861">
        <ele>196</ele>
        <time>2012-12-13T13:04:17Z</time>
      </trkpt>
      <trkpt lat="43.91788" lon="1.85857">
        <ele>195</ele>
        <time>2012-12-13T13:04:20Z</time>
      </trkpt>
      <trkpt lat="43.91784" lon="1.85852">
        <ele>194</ele>
        <time>2012-12-13T13:04:25Z</time>
      </trkpt>
      <trkpt lat="43.91781" lon="1.85847">
        <ele>195</ele>
        <time>2012-12-13T13:04:29Z</time>
      </trkpt>
      <trkpt lat="43.91777" lon="1.85842">
        <ele>195</ele>
        <time>2012-12-13T13:04:34Z</time>
      </trkpt>
      <trkpt lat="43.91773" lon="1.85837">
        <ele>196</ele>
        <time>2012-12-13T13:04:39Z</time>
      </trkpt>
      <trkpt lat="43.9177" lon="1.85832">
        <ele>197</ele>
        <time>2012-12-13T13:04:43Z</time>
      </trkpt>
      <trkpt lat="43.91766" lon="1.85827">
        <ele>196</ele>
        <time>2012-12-13T13:04:49Z</time>
      </trkpt>
      <trkpt lat="43.91762" lon="1.85823">
        <ele>197</ele>
        <time>2012-12-13T13:04:53Z</time>
      </trkpt>
      <trkpt lat="43.91758" lon="1.85819">
        <ele>198</ele>
        <time>2012-12-13T13:04:58Z</time>
      </trkpt>
      <trkpt lat="43.91754" lon="1.85814">
        <ele>199</ele>
        <time>2012-12-13T13:05:03Z</time>
      </trkpt>
      <trkpt lat="43.9175" lon="1.85809">
        <ele>199</ele>
        <time>2012-12-13T13:05:10Z</time>
      </trkpt>
      <trkpt lat="43.91744" lon="1.85804">
        <ele>200</ele>
        <time>2012-12-13T13:05:16Z</time>
      </trkpt>
      <trkpt lat="43.91737" lon="1.85795">
        <ele>202</ele>
        <time>2012-12-13T13:05:25Z</time>
      </trkpt>
      <trkpt lat="43.91733" lon="1.85794">
        <ele>204</ele>
        <time>2012-12-13T13:05:32Z</time>
      </trkpt>
      <trkpt lat="43.91728" lon="1.85796">
        <ele>204</ele>
        <time>2012-12-13T13:05:39Z</time>
      </trkpt>
      <trkpt lat="43.91724" lon="1.85799">
        <ele>204</ele>
        <time>2012-12-13T13:05:44Z</time>
      </trkpt>
      <trkpt lat="43.91719" lon="1.85803">
        <ele>203</ele>
        <time>2012-12-13T13:05:49Z</time>
      </trkpt>
      <trkpt lat="43.91716" lon="1.85807">
        <ele>202</ele>
        <time>2012-12-13T13:05:54Z</time>
      </trkpt>
      <trkpt lat="43.91713" lon="1.85813">
        <ele>200</ele>
        <time>2012-12-13T13:06:00Z</time>
      </trkpt>
      <trkpt lat="43.91708" lon="1.85819">
        <ele>199</ele>
        <time>2012-12-13T13:06:05Z</time>
      </trkpt>
      <trkpt lat="43.91705" lon="1.85824">
        <ele>197</ele>
        <time>2012-12-13T13:06:10Z</time>
      </trkpt>
      <trkpt lat="43.91702" lon="1.8583">
        <ele>196</ele>
        <time>2012-12-13T13:06:14Z</time>
      </trkpt>
      <trkpt lat="43.91697" lon="1.85834">
        <ele>195</ele>
        <time>2012-12-13T13:06:20Z</time>
      </trkpt>
      <trkpt lat="43.91695" lon="1.85839">
        <ele>194</ele>
        <time>2012-12-13T13:06:25Z</time>
      </trkpt>
      <trkpt lat="43.91692" lon="1.85844">
        <ele>194</ele>
        <time>2012-12-13T13:06:30Z</time>
      </trkpt>
      <trkpt lat="43.91689" lon="1.8585">
        <ele>194</ele>
        <time>2012-12-13T13:06:36Z</time>
      </trkpt>
      <trkpt lat="43.91686" lon="1.85855">
        <ele>193</ele>
        <time>2012-12-13T13:06:40Z</time>
      </trkpt>
      <trkpt lat="43.91682" lon="1.8586">
        <ele>193</ele>
        <time>2012-12-13T13:06:45Z</time>
      </trkpt>
      <trkpt lat="43.91678" lon="1.85864">
        <ele>191</ele>
        <time>2012-12-13T13:06:50Z</time>
      </trkpt>
      <trkpt lat="43.91673" lon="1.85868">
        <ele>192</ele>
        <time>2012-12-13T13:06:55Z</time>
      </trkpt>
      <trkpt lat="43.91668" lon="1.85872">
        <ele>191</ele>
        <time>2012-12-13T13:07:00Z</time>
      </trkpt>
      <trkpt lat="43.91664" lon="1.85876">
        <ele>190</ele>
        <time>2012-12-13T13:07:04Z</time>
      </trkpt>
      <trkpt lat="43.9166" lon="1.85881">
        <ele>191</ele>
        <time>2012-12-13T13:07:09Z</time>
      </trkpt>
      <trkpt lat="43.91656" lon="1.85885">
        <ele>190</ele>
        <time>2012-12-13T13:07:14Z</time>
      </trkpt>
      <trkpt lat="43.91652" lon="1.85888">
        <ele>190</ele>
        <time>2012-12-13T13:07:19Z</time>
      </trkpt>
      <trkpt lat="43.91647" lon="1.85892">
        <ele>192</ele>
        <time>2012-12-13T13:07:24Z</time>
      </trkpt>
      <trkpt lat="43.91643" lon="1.85894">
        <ele>192</ele>
        <time>2012-12-13T13:07:28Z</time>
      </trkpt>
      <trkpt lat="43.91639" lon="1.85898">
        <ele>192</ele>
        <time>2012-12-13T13:07:33Z</time>
      </trkpt>
      <trkpt lat="43.91635" lon="1.85903">
        <ele>192</ele>
        <time>2012-12-13T13:07:38Z</time>
      </trkpt>
      <trkpt lat="43.91633" lon="1.85909">
        <ele>192</ele>
        <time>2012-12-13T13:07:41Z</time>
      </trkpt>
      <trkpt lat="43.9163" lon="1.85915">
        <ele>191</ele>
        <time>2012-12-13T13:07:45Z</time>
      </trkpt>
      <trkpt lat="43.91627" lon="1.8592">
        <ele>189</ele>
        <time>2012-12-13T13:07:49Z</time>
      </trkpt>
      <trkpt lat="43.91624" lon="1.85925">
        <ele>188</ele>
        <time>2012-12-13T13:07:53Z</time>
      </trkpt>
      <trkpt lat="43.9162" lon="1.8593">
        <ele>187</ele>
        <time>2012-12-13T13:07:59Z</time>
      </trkpt>
      <trkpt lat="43.91616" lon="1.85934">
        <ele>186</ele>
        <time>2012-12-13T13:08:02Z</time>
      </trkpt>
      <trkpt lat="43.91611" lon="1.85938">
        <ele>185</ele>
        <time>2012-12-13T13:08:07Z</time>
      </trkpt>
      <trkpt lat="43.91606" lon="1.85941">
        <ele>185</ele>
        <time>2012-12-13T13:08:11Z</time>
      </trkpt>
      <trkpt lat="43.91601" lon="1.85945">
        <ele>185</ele>
        <time>2012-12-13T13:08:16Z</time>
      </trkpt>
      <trkpt lat="43.91596" lon="1.8595">
        <ele>185</ele>
        <time>2012-12-13T13:08:21Z</time>
      </trkpt>
      <trkpt lat="43.91592" lon="1.85953">
        <ele>185</ele>
        <time>2012-12-13T13:08:26Z</time>
      </trkpt>
      <trkpt lat="43.91584" lon="1.85961">
        <ele>184</ele>
        <time>2012-12-13T13:08:36Z</time>
      </trkpt>
      <trkpt lat="43.91577" lon="1.85972">
        <ele>183</ele>
        <time>2012-12-13T13:08:44Z</time>
      </trkpt>
      <trkpt lat="43.9157" lon="1.8598">
        <ele>183</ele>
        <time>2012-12-13T13:08:53Z</time>
      </trkpt>
      <trkpt lat="43.91563" lon="1.85989">
        <ele>182</ele>
        <time>2012-12-13T13:09:01Z</time>
      </trkpt>
      <trkpt lat="43.91556" lon="1.85999">
        <ele>181</ele>
        <time>2012-12-13T13:09:09Z</time>
      </trkpt>
      <trkpt lat="43.91549" lon="1.86006">
        <ele>181</ele>
        <time>2012-12-13T13:09:18Z</time>
      </trkpt>
      <trkpt lat="43.91539" lon="1.86012">
        <ele>180</ele>
        <time>2012-12-13T13:09:26Z</time>
      </trkpt>
      <trkpt lat="43.9153" lon="1.86018">
        <ele>179</ele>
        <time>2012-12-13T13:09:33Z</time>
      </trkpt>
      <trkpt lat="43.91521" lon="1.86023">
        <ele>178</ele>
        <time>2012-12-13T13:09:41Z</time>
      </trkpt>
      <trkpt lat="43.91512" lon="1.86026">
        <ele>177</ele>
        <time>2012-12-13T13:09:52Z</time>
      </trkpt>
      <trkpt lat="43.91504" lon="1.86034">
        <ele>178</ele>
        <time>2012-12-13T13:10:01Z</time>
      </trkpt>
      <trkpt lat="43.91495" lon="1.8604">
        <ele>178</ele>
        <time>2012-12-13T13:10:10Z</time>
      </trkpt>
      <trkpt lat="43.9149" lon="1.86043">
        <ele>177</ele>
        <time>2012-12-13T13:10:14Z</time>
      </trkpt>
      <trkpt lat="43.91485" lon="1.86042">
        <ele>177</ele>
        <time>2012-12-13T13:10:19Z</time>
      </trkpt>
      <trkpt lat="43.9148" lon="1.86038">
        <ele>177</ele>
        <time>2012-12-13T13:10:25Z</time>
      </trkpt>
      <trkpt lat="43.91473" lon="1.86028">
        <ele>177</ele>
        <time>2012-12-13T13:10:35Z</time>
      </trkpt>
      <trkpt lat="43.91467" lon="1.86018">
        <ele>180</ele>
        <time>2012-12-13T13:10:42Z</time>
      </trkpt>
      <trkpt lat="43.91461" lon="1.86007">
        <ele>183</ele>
        <time>2012-12-13T13:10:53Z</time>
      </trkpt>
      <trkpt lat="43.91457" lon="1.85992">
        <ele>178</ele>
        <time>2012-12-13T13:11:06Z</time>
      </trkpt>
      <trkpt lat="43.91454" lon="1.8598">
        <ele>177</ele>
        <time>2012-12-13T13:11:17Z</time>
      </trkpt>
      <trkpt lat="43.91457" lon="1.85965">
        <ele>175</ele>
        <time>2012-12-13T13:11:30Z</time>
      </trkpt>
      <trkpt lat="43.9146" lon="1.85953">
        <ele>174</ele>
        <time>2012-12-13T13:11:40Z</time>
      </trkpt>
      <trkpt lat="43.91465" lon="1.8594">
        <ele>177</ele>
        <time>2012-12-13T13:11:47Z</time>
      </trkpt>
      <trkpt lat="43.91469" lon="1.85935">
        <ele>177</ele>
        <time>2012-12-13T13:11:53Z</time>
      </trkpt>
      <trkpt lat="43.91476" lon="1.85926">
        <ele>179</ele>
        <time>2012-12-13T13:12:03Z</time>
      </trkpt>
      <trkpt lat="43.91479" lon="1.8591">
        <ele>181</ele>
        <time>2012-12-13T13:12:21Z</time>
      </trkpt>
      <trkpt lat="43.91484" lon="1.85898">
        <ele>183</ele>
        <time>2012-12-13T13:12:32Z</time>
      </trkpt>
      <trkpt lat="43.91489" lon="1.85886">
        <ele>183</ele>
        <time>2012-12-13T13:12:44Z</time>
      </trkpt>
      <trkpt lat="43.91494" lon="1.85875">
        <ele>182</ele>
        <time>2012-12-13T13:12:53Z</time>
      </trkpt>
      <trkpt lat="43.91499" lon="1.85862">
        <ele>185</ele>
        <time>2012-12-13T13:13:07Z</time>
      </trkpt>
      <trkpt lat="43.91504" lon="1.85849">
        <ele>184</ele>
        <time>2012-12-13T13:13:32Z</time>
      </trkpt>
      <trkpt lat="43.91516" lon="1.85841">
        <ele>183</ele>
        <time>2012-12-13T13:13:47Z</time>
      </trkpt>
      <trkpt lat="43.91517" lon="1.85825">
        <ele>183</ele>
        <time>2012-12-13T13:14:03Z</time>
      </trkpt>
      <trkpt lat="43.91519" lon="1.85812">
        <ele>186</ele>
        <time>2012-12-13T13:14:12Z</time>
      </trkpt>
      <trkpt lat="43.9152" lon="1.85799">
        <ele>190</ele>
        <time>2012-12-13T13:14:22Z</time>
      </trkpt>
      <trkpt lat="43.91538" lon="1.8577">
        <ele>203</ele>
        <time>2012-12-13T13:14:54Z</time>
      </trkpt>
      <trkpt lat="43.91543" lon="1.85758">
        <ele>204</ele>
        <time>2012-12-13T13:15:08Z</time>
      </trkpt>
      <trkpt lat="43.91546" lon="1.85746">
        <ele>208</ele>
        <time>2012-12-13T13:15:20Z</time>
      </trkpt>
      <trkpt lat="43.91553" lon="1.85736">
        <ele>208</ele>
        <time>2012-12-13T13:15:31Z</time>
      </trkpt>
      <trkpt lat="43.91556" lon="1.85728">
        <ele>211</ele>
        <time>2012-12-13T13:15:45Z</time>
      </trkpt>
      <trkpt lat="43.91557" lon="1.85716">
        <ele>213</ele>
        <time>2012-12-13T13:16:02Z</time>
      </trkpt>
      <trkpt lat="43.91559" lon="1.85698">
        <ele>214</ele>
        <time>2012-12-13T13:16:24Z</time>
      </trkpt>
      <trkpt lat="43.91562" lon="1.85685">
        <ele>215</ele>
        <time>2012-12-13T13:16:41Z</time>
      </trkpt>
      <trkpt lat="43.91565" lon="1.85672">
        <ele>217</ele>
        <time>2012-12-13T13:16:54Z</time>
      </trkpt>
      <trkpt lat="43.91566" lon="1.85659">
        <ele>219</ele>
        <time>2012-12-13T13:17:01Z</time>
      </trkpt>
      <trkpt lat="43.9157" lon="1.85645">
        <ele>222</ele>
        <time>2012-12-13T13:17:17Z</time>
      </trkpt>
      <trkpt lat="43.91574" lon="1.85629">
        <ele>227</ele>
        <time>2012-12-13T13:17:31Z</time>
      </trkpt>
      <trkpt lat="43.91579" lon="1.85617">
        <ele>229</ele>
        <time>2012-12-13T13:17:41Z</time>
      </trkpt>
      <trkpt lat="43.91586" lon="1.85606">
        <ele>232</ele>
        <time>2012-12-13T13:17:51Z</time>
      </trkpt>
      <trkpt lat="43.91591" lon="1.85595">
        <ele>234</ele>
        <time>2012-12-13T13:18:04Z</time>
      </trkpt>
      <trkpt lat="43.91597" lon="1.85585">
        <ele>236</ele>
        <time>2012-12-13T13:18:10Z</time>
      </trkpt>
      <trkpt lat="43.91601" lon="1.85574">
        <ele>235</ele>
        <time>2012-12-13T13:18:18Z</time>
      </trkpt>
      <trkpt lat="43.91605" lon="1.85562">
        <ele>236</ele>
        <time>2012-12-13T13:18:25Z</time>
      </trkpt>
      <trkpt lat="43.91609" lon="1.85549">
        <ele>237</ele>
        <time>2012-12-13T13:18:35Z</time>
      </trkpt>
      <trkpt lat="43.91617" lon="1.85542">
        <ele>239</ele>
        <time>2012-12-13T13:18:44Z</time>
      </trkpt>
      <trkpt lat="43.91612" lon="1.85531">
        <ele>241</ele>
        <time>2012-12-13T13:18:57Z</time>
      </trkpt>
      <trkpt lat="43.91605" lon="1.85524">
        <ele>244</ele>
        <time>2012-12-13T13:19:05Z</time>
      </trkpt>
      <trkpt lat="43.916" lon="1.85513">
        <ele>247</ele>
        <time>2012-12-13T13:19:10Z</time>
      </trkpt>
      <trkpt lat="43.91595" lon="1.85501">
        <ele>249</ele>
        <time>2012-12-13T13:19:16Z</time>
      </trkpt>
      <trkpt lat="43.9159" lon="1.85503">
        <ele>255</ele>
        <time>2012-12-13T13:21:04Z</time>
      </trkpt>
      <trkpt lat="43.9159" lon="1.85498">
        <ele>256</ele>
        <time>2012-12-13T13:21:55Z</time>
      </trkpt>
      <trkpt lat="43.91587" lon="1.85499">
        <ele>256</ele>
        <time>2012-12-13T13:23:39Z</time>
      </trkpt>
      <trkpt lat="43.91581" lon="1.85489">
        <ele>256</ele>
        <time>2012-12-13T13:23:51Z</time>
      </trkpt>
      <trkpt lat="43.91576" lon="1.85482">
        <ele>255</ele>
        <time>2012-12-13T13:23:58Z</time>
      </trkpt>
      <trkpt lat="43.91569" lon="1.85475">
        <ele>254</ele>
        <time>2012-12-13T13:24:08Z</time>
      </trkpt>
      <trkpt lat="43.91565" lon="1.8547">
        <ele>254</ele>
        <time>2012-12-13T13:24:12Z</time>
      </trkpt>
      <trkpt lat="43.91559" lon="1.8546">
        <ele>252</ele>
        <time>2012-12-13T13:24:22Z</time>
      </trkpt>
      <trkpt lat="43.9155" lon="1.85455">
        <ele>251</ele>
        <time>2012-12-13T13:24:31Z</time>
      </trkpt>
      <trkpt lat="43.91543" lon="1.85446">
        <ele>248</ele>
        <time>2012-12-13T13:24:42Z</time>
      </trkpt>
      <trkpt lat="43.91537" lon="1.85435">
        <ele>244</ele>
        <time>2012-12-13T13:24:48Z</time>
      </trkpt>
      <trkpt lat="43.91531" lon="1.85425">
        <ele>240</ele>
        <time>2012-12-13T13:24:57Z</time>
      </trkpt>
      <trkpt lat="43.91521" lon="1.85425">
        <ele>236</ele>
        <time>2012-12-13T13:25:08Z</time>
      </trkpt>
      <trkpt lat="43.91516" lon="1.85436">
        <ele>235</ele>
        <time>2012-12-13T13:25:17Z</time>
      </trkpt>
      <trkpt lat="43.91508" lon="1.85445">
        <ele>234</ele>
        <time>2012-12-13T13:25:28Z</time>
      </trkpt>
      <trkpt lat="43.91501" lon="1.85457">
        <ele>233</ele>
        <time>2012-12-13T13:25:41Z</time>
      </trkpt>
      <trkpt lat="43.91498" lon="1.85461">
        <ele>233</ele>
        <time>2012-12-13T13:25:57Z</time>
      </trkpt>
      <trkpt lat="43.91492" lon="1.85473">
        <ele>232</ele>
        <time>2012-12-13T13:26:13Z</time>
      </trkpt>
      <trkpt lat="43.91488" lon="1.85478">
        <ele>230</ele>
        <time>2012-12-13T13:26:21Z</time>
      </trkpt>
      <trkpt lat="43.91486" lon="1.85485">
        <ele>227</ele>
        <time>2012-12-13T13:26:25Z</time>
      </trkpt>
      <trkpt lat="43.91482" lon="1.85491">
        <ele>225</ele>
        <time>2012-12-13T13:26:29Z</time>
      </trkpt>
      <trkpt lat="43.91478" lon="1.85496">
        <ele>223</ele>
        <time>2012-12-13T13:26:34Z</time>
      </trkpt>
      <trkpt lat="43.91473" lon="1.85498">
        <ele>222</ele>
        <time>2012-12-13T13:26:39Z</time>
      </trkpt>
      <trkpt lat="43.9147" lon="1.85501">
        <ele>221</ele>
        <time>2012-12-13T13:27:01Z</time>
      </trkpt>
      <trkpt lat="43.91466" lon="1.85506">
        <ele>221</ele>
        <time>2012-12-13T13:27:20Z</time>
      </trkpt>
      <trkpt lat="43.91463" lon="1.85511">
        <ele>219</ele>
        <time>2012-12-13T13:27:30Z</time>
      </trkpt>
      <trkpt lat="43.91459" lon="1.85516">
        <ele>218</ele>
        <time>2012-12-13T13:27:36Z</time>
      </trkpt>
      <trkpt lat="43.91456" lon="1.85521">
        <ele>217</ele>
        <time>2012-12-13T13:27:41Z</time>
      </trkpt>
      <trkpt lat="43.91452" lon="1.85525">
        <ele>216</ele>
        <time>2012-12-13T13:27:45Z</time>
      </trkpt>
      <trkpt lat="43.91448" lon="1.85528">
        <ele>216</ele>
        <time>2012-12-13T13:27:50Z</time>
      </trkpt>
      <trkpt lat="43.91444" lon="1.85532">
        <ele>215</ele>
        <time>2012-12-13T13:27:55Z</time>
      </trkpt>
      <trkpt lat="43.91436" lon="1.85539">
        <ele>214</ele>
        <time>2012-12-13T13:28:04Z</time>
      </trkpt>
      <trkpt lat="43.91428" lon="1.85546">
        <ele>214</ele>
        <time>2012-12-13T13:28:12Z</time>
      </trkpt>
      <trkpt lat="43.91419" lon="1.85553">
        <ele>213</ele>
        <time>2012-12-13T13:28:20Z</time>
      </trkpt>
      <trkpt lat="43.9141" lon="1.85558">
        <ele>212</ele>
        <time>2012-12-13T13:28:28Z</time>
      </trkpt>
      <trkpt lat="43.91403" lon="1.85566">
        <ele>210</ele>
        <time>2012-12-13T13:28:40Z</time>
      </trkpt>
      <trkpt lat="43.91401" lon="1.85579">
        <ele>209</ele>
        <time>2012-12-13T13:28:49Z</time>
      </trkpt>
      <trkpt lat="43.91399" lon="1.85591">
        <ele>208</ele>
        <time>2012-12-13T13:28:55Z</time>
      </trkpt>
      <trkpt lat="43.91394" lon="1.85603">
        <ele>207</ele>
        <time>2012-12-13T13:29:05Z</time>
      </trkpt>
      <trkpt lat="43.91386" lon="1.85613">
        <ele>208</ele>
        <time>2012-12-13T13:29:13Z</time>
      </trkpt>
      <trkpt lat="43.91383" lon="1.85618">
        <ele>207</ele>
        <time>2012-12-13T13:29:17Z</time>
      </trkpt>
      <trkpt lat="43.91381" lon="1.85624">
        <ele>206</ele>
        <time>2012-12-13T13:29:23Z</time>
      </trkpt>
      <trkpt lat="43.9138" lon="1.85632">
        <ele>207</ele>
        <time>2012-12-13T13:29:29Z</time>
      </trkpt>
      <trkpt lat="43.91378" lon="1.85638">
        <ele>207</ele>
        <time>2012-12-13T13:29:34Z</time>
      </trkpt>
      <trkpt lat="43.91376" lon="1.85645">
        <ele>206</ele>
        <time>2012-12-13T13:29:38Z</time>
      </trkpt>
      <trkpt lat="43.91371" lon="1.85657">
        <ele>206</ele>
        <time>2012-12-13T13:29:45Z</time>
      </trkpt>
      <trkpt lat="43.91368" lon="1.85663">
        <ele>205</ele>
        <time>2012-12-13T13:29:51Z</time>
      </trkpt>
      <trkpt lat="43.91365" lon="1.85669">
        <ele>204</ele>
        <time>2012-12-13T13:29:57Z</time>
      </trkpt>
      <trkpt lat="43.91363" lon="1.85674">
        <ele>203</ele>
        <time>2012-12-13T13:30:01Z</time>
      </trkpt>
      <trkpt lat="43.9136" lon="1.8568">
        <ele>202</ele>
        <time>2012-12-13T13:30:05Z</time>
      </trkpt>
      <trkpt lat="43.91357" lon="1.85686">
        <ele>201</ele>
        <time>2012-12-13T13:30:11Z</time>
      </trkpt>
      <trkpt lat="43.91353" lon="1.85692">
        <ele>200</ele>
        <time>2012-12-13T13:30:15Z</time>
      </trkpt>
      <trkpt lat="43.9135" lon="1.85697">
        <ele>200</ele>
        <time>2012-12-13T13:30:20Z</time>
      </trkpt>
      <trkpt lat="43.91345" lon="1.857">
        <ele>200</ele>
        <time>2012-12-13T13:30:25Z</time>
      </trkpt>
      <trkpt lat="43.91341" lon="1.85702">
        <ele>200</ele>
        <time>2012-12-13T13:30:30Z</time>
      </trkpt>
      <trkpt lat="43.91337" lon="1.85706">
        <ele>199</ele>
        <time>2012-12-13T13:30:34Z</time>
      </trkpt>
      <trkpt lat="43.91333" lon="1.8571">
        <ele>198</ele>
        <time>2012-12-13T13:30:39Z</time>
      </trkpt>
      <trkpt lat="43.91328" lon="1.85714">
        <ele>198</ele>
        <time>2012-12-13T13:30:44Z</time>
      </trkpt>
      <trkpt lat="43.91324" lon="1.85715">
        <ele>198</ele>
        <time>2012-12-13T13:30:48Z</time>
      </trkpt>
      <trkpt lat="43.91319" lon="1.85716">
        <ele>197</ele>
        <time>2012-12-13T13:30:52Z</time>
      </trkpt>
      <trkpt lat="43.91314" lon="1.85717">
        <ele>197</ele>
        <time>2012-12-13T13:30:55Z</time>
      </trkpt>
      <trkpt lat="43.91309" lon="1.8572">
        <ele>197</ele>
        <time>2012-12-13T13:30:59Z</time>
      </trkpt>
      <trkpt lat="43.91304" lon="1.85724">
        <ele>197</ele>
        <time>2012-12-13T13:31:04Z</time>
      </trkpt>
      <trkpt lat="43.91301" lon="1.85729">
        <ele>195</ele>
        <time>2012-12-13T13:31:08Z</time>
      </trkpt>
      <trkpt lat="43.91298" lon="1.85735">
        <ele>193</ele>
        <time>2012-12-13T13:31:12Z</time>
      </trkpt>
      <trkpt lat="43.91295" lon="1.85741">
        <ele>192</ele>
        <time>2012-12-13T13:31:16Z</time>
      </trkpt>
      <trkpt lat="43.91291" lon="1.85747">
        <ele>190</ele>
        <time>2012-12-13T13:31:20Z</time>
      </trkpt>
      <trkpt lat="43.91289" lon="1.85753">
        <ele>189</ele>
        <time>2012-12-13T13:31:24Z</time>
      </trkpt>
      <trkpt lat="43.91285" lon="1.85759">
        <ele>188</ele>
        <time>2012-12-13T13:31:28Z</time>
      </trkpt>
      <trkpt lat="43.91281" lon="1.85772">
        <ele>185</ele>
        <time>2012-12-13T13:31:36Z</time>
      </trkpt>
      <trkpt lat="43.91278" lon="1.85776">
        <ele>183</ele>
        <time>2012-12-13T13:31:41Z</time>
      </trkpt>
      <trkpt lat="43.91275" lon="1.85781">
        <ele>183</ele>
        <time>2012-12-13T13:31:46Z</time>
      </trkpt>
      <trkpt lat="43.91272" lon="1.85787">
        <ele>181</ele>
        <time>2012-12-13T13:31:50Z</time>
      </trkpt>
      <trkpt lat="43.9127" lon="1.85792">
        <ele>180</ele>
        <time>2012-12-13T13:31:55Z</time>
      </trkpt>
      <trkpt lat="43.91267" lon="1.85798">
        <ele>179</ele>
        <time>2012-12-13T13:31:59Z</time>
      </trkpt>
      <trkpt lat="43.91264" lon="1.85803">
        <ele>179</ele>
        <time>2012-12-13T13:32:03Z</time>
      </trkpt>
      <trkpt lat="43.91261" lon="1.85809">
        <ele>178</ele>
        <time>2012-12-13T13:32:07Z</time>
      </trkpt>
      <trkpt lat="43.91258" lon="1.85815">
        <ele>177</ele>
        <time>2012-12-13T13:32:11Z</time>
      </trkpt>
      <trkpt lat="43.91257" lon="1.85822">
        <ele>177</ele>
        <time>2012-12-13T13:32:15Z</time>
      </trkpt>
      <trkpt lat="43.91255" lon="1.8583">
        <ele>176</ele>
        <time>2012-12-13T13:32:19Z</time>
      </trkpt>
      <trkpt lat="43.91255" lon="1.85837">
        <ele>176</ele>
        <time>2012-12-13T13:32:23Z</time>
      </trkpt>
      <trkpt lat="43.91255" lon="1.85844">
        <ele>176</ele>
        <time>2012-12-13T13:32:27Z</time>
      </trkpt>
      <trkpt lat="43.91251" lon="1.85856">
        <ele>175</ele>
        <time>2012-12-13T13:32:34Z</time>
      </trkpt>
      <trkpt lat="43.91246" lon="1.85868">
        <ele>175</ele>
        <time>2012-12-13T13:32:43Z</time>
      </trkpt>
      <trkpt lat="43.91243" lon="1.8588">
        <ele>175</ele>
        <time>2012-12-13T13:32:51Z</time>
      </trkpt>
      <trkpt lat="43.91243" lon="1.85886">
        <ele>175</ele>
        <time>2012-12-13T13:32:56Z</time>
      </trkpt>
      <trkpt lat="43.91241" lon="1.85893">
        <ele>174</ele>
        <time>2012-12-13T13:33:01Z</time>
      </trkpt>
      <trkpt lat="43.9124" lon="1.85899">
        <ele>173</ele>
        <time>2012-12-13T13:33:06Z</time>
      </trkpt>
      <trkpt lat="43.91241" lon="1.85909">
        <ele>170</ele>
        <time>2012-12-13T13:33:23Z</time>
      </trkpt>
      <trkpt lat="43.91239" lon="1.85917">
        <ele>169</ele>
        <time>2012-12-13T13:33:35Z</time>
      </trkpt>
      <trkpt lat="43.91238" lon="1.85925">
        <ele>168</ele>
        <time>2012-12-13T13:33:40Z</time>
      </trkpt>
      <trkpt lat="43.91236" lon="1.85932">
        <ele>167</ele>
        <time>2012-12-13T13:33:44Z</time>
      </trkpt>
      <trkpt lat="43.91235" lon="1.8594">
        <ele>167</ele>
        <time>2012-12-13T13:33:48Z</time>
      </trkpt>
      <trkpt lat="43.91233" lon="1.85949">
        <ele>167</ele>
        <time>2012-12-13T13:33:54Z</time>
      </trkpt>
      <trkpt lat="43.91231" lon="1.85955">
        <ele>167</ele>
        <time>2012-12-13T13:33:59Z</time>
      </trkpt>
      <trkpt lat="43.91229" lon="1.85961">
        <ele>166</ele>
        <time>2012-12-13T13:34:04Z</time>
      </trkpt>
      <trkpt lat="43.91228" lon="1.85968">
        <ele>166</ele>
        <time>2012-12-13T13:34:08Z</time>
      </trkpt>
      <trkpt lat="43.91225" lon="1.85974">
        <ele>166</ele>
        <time>2012-12-13T13:34:13Z</time>
      </trkpt>
      <trkpt lat="43.91222" lon="1.8598">
        <ele>166</ele>
        <time>2012-12-13T13:34:17Z</time>
      </trkpt>
      <trkpt lat="43.91221" lon="1.85985">
        <ele>166</ele>
        <time>2012-12-13T13:34:22Z</time>
      </trkpt>
      <trkpt lat="43.91219" lon="1.85991">
        <ele>166</ele>
        <time>2012-12-13T13:34:26Z</time>
      </trkpt>
      <trkpt lat="43.91215" lon="1.85997">
        <ele>165</ele>
        <time>2012-12-13T13:34:32Z</time>
      </trkpt>
      <trkpt lat="43.91211" lon="1.86001">
        <ele>165</ele>
        <time>2012-12-13T13:34:36Z</time>
      </trkpt>
      <trkpt lat="43.91208" lon="1.86005">
        <ele>163</ele>
        <time>2012-12-13T13:34:41Z</time>
      </trkpt>
      <trkpt lat="43.91205" lon="1.86011">
        <ele>162</ele>
        <time>2012-12-13T13:34:46Z</time>
      </trkpt>
      <trkpt lat="43.91202" lon="1.86016">
        <ele>162</ele>
        <time>2012-12-13T13:34:51Z</time>
      </trkpt>
      <trkpt lat="43.91198" lon="1.86021">
        <ele>162</ele>
        <time>2012-12-13T13:34:55Z</time>
      </trkpt>
      <trkpt lat="43.91195" lon="1.86029">
        <ele>163</ele>
        <time>2012-12-13T13:35:01Z</time>
      </trkpt>
      <trkpt lat="43.91191" lon="1.86032">
        <ele>162</ele>
        <time>2012-12-13T13:35:06Z</time>
      </trkpt>
      <trkpt lat="43.91186" lon="1.86036">
        <ele>162</ele>
        <time>2012-12-13T13:35:11Z</time>
      </trkpt>
      <trkpt lat="43.91184" lon="1.86042">
        <ele>161</ele>
        <time>2012-12-13T13:35:15Z</time>
      </trkpt>
      <trkpt lat="43.9118" lon="1.86048">
        <ele>160</ele>
        <time>2012-12-13T13:35:20Z</time>
      </trkpt>
      <trkpt lat="43.91176" lon="1.86054">
        <ele>160</ele>
        <time>2012-12-13T13:35:25Z</time>
      </trkpt>
      <trkpt lat="43.91173" lon="1.86059">
        <ele>160</ele>
        <time>2012-12-13T13:35:29Z</time>
      </trkpt>
      <trkpt lat="43.91169" lon="1.86065">
        <ele>160</ele>
        <time>2012-12-13T13:35:34Z</time>
      </trkpt>
      <trkpt lat="43.91166" lon="1.8607">
        <ele>159</ele>
        <time>2012-12-13T13:35:38Z</time>
      </trkpt>
      <trkpt lat="43.91162" lon="1.86076">
        <ele>159</ele>
        <time>2012-12-13T13:35:42Z</time>
      </trkpt>
      <trkpt lat="43.91158" lon="1.86081">
        <ele>158</ele>
        <time>2012-12-13T13:35:46Z</time>
      </trkpt>
      <trkpt lat="43.91155" lon="1.86085">
        <ele>158</ele>
        <time>2012-12-13T13:35:50Z</time>
      </trkpt>
      <trkpt lat="43.91152" lon="1.86091">
        <ele>158</ele>
        <time>2012-12-13T13:35:54Z</time>
      </trkpt>
      <trkpt lat="43.91149" lon="1.86097">
        <ele>158</ele>
        <time>2012-12-13T13:35:59Z</time>
      </trkpt>
      <trkpt lat="43.91147" lon="1.86104">
        <ele>157</ele>
        <time>2012-12-13T13:36:03Z</time>
      </trkpt>
      <trkpt lat="43.91144" lon="1.8611">
        <ele>157</ele>
        <time>2012-12-13T13:36:07Z</time>
      </trkpt>
      <trkpt lat="43.91144" lon="1.86116">
        <ele>157</ele>
        <time>2012-12-13T13:36:11Z</time>
      </trkpt>
      <trkpt lat="43.91142" lon="1.86124">
        <ele>157</ele>
        <time>2012-12-13T13:36:15Z</time>
      </trkpt>
      <trkpt lat="43.91141" lon="1.86131">
        <ele>157</ele>
        <time>2012-12-13T13:36:19Z</time>
      </trkpt>
      <trkpt lat="43.91139" lon="1.86139">
        <ele>157</ele>
        <time>2012-12-13T13:36:24Z</time>
      </trkpt>
      <trkpt lat="43.91137" lon="1.86146">
        <ele>156</ele>
        <time>2012-12-13T13:36:30Z</time>
      </trkpt>
      <trkpt lat="43.91135" lon="1.86153">
        <ele>156</ele>
        <time>2012-12-13T13:36:34Z</time>
      </trkpt>
      <trkpt lat="43.91133" lon="1.8616">
        <ele>155</ele>
        <time>2012-12-13T13:36:39Z</time>
      </trkpt>
      <trkpt lat="43.91131" lon="1.86166">
        <ele>156</ele>
        <time>2012-12-13T13:36:43Z</time>
      </trkpt>
      <trkpt lat="43.91131" lon="1.86173">
        <ele>157</ele>
        <time>2012-12-13T13:36:47Z</time>
      </trkpt>
      <trkpt lat="43.91129" lon="1.86179">
        <ele>157</ele>
        <time>2012-12-13T13:36:51Z</time>
      </trkpt>
      <trkpt lat="43.91127" lon="1.86185">
        <ele>156</ele>
        <time>2012-12-13T13:36:54Z</time>
      </trkpt>
      <trkpt lat="43.91124" lon="1.86191">
        <ele>155</ele>
        <time>2012-12-13T13:36:57Z</time>
      </trkpt>
      <trkpt lat="43.91122" lon="1.86198">
        <ele>156</ele>
        <time>2012-12-13T13:37:01Z</time>
      </trkpt>
      <trkpt lat="43.9112" lon="1.86204">
        <ele>156</ele>
        <time>2012-12-13T13:37:05Z</time>
      </trkpt>
      <trkpt lat="43.91118" lon="1.8621">
        <ele>155</ele>
        <time>2012-12-13T13:37:09Z</time>
      </trkpt>
      <trkpt lat="43.91115" lon="1.86216">
        <ele>155</ele>
        <time>2012-12-13T13:37:14Z</time>
      </trkpt>
      <trkpt lat="43.91112" lon="1.86222">
        <ele>154</ele>
        <time>2012-12-13T13:37:18Z</time>
      </trkpt>
      <trkpt lat="43.91109" lon="1.86227">
        <ele>154</ele>
        <time>2012-12-13T13:37:22Z</time>
      </trkpt>
      <trkpt lat="43.91105" lon="1.86232">
        <ele>153</ele>
        <time>2012-12-13T13:37:26Z</time>
      </trkpt>
      <trkpt lat="43.91102" lon="1.86238">
        <ele>152</ele>
        <time>2012-12-13T13:37:30Z</time>
      </trkpt>
      <trkpt lat="43.91099" lon="1.86244">
        <ele>152</ele>
        <time>2012-12-13T13:37:34Z</time>
      </trkpt>
      <trkpt lat="43.91096" lon="1.86249">
        <ele>152</ele>
        <time>2012-12-13T13:37:38Z</time>
      </trkpt>
      <trkpt lat="43.91093" lon="1.86254">
        <ele>152</ele>
        <time>2012-12-13T13:37:45Z</time>
      </trkpt>
      <trkpt lat="43.9109" lon="1.86259">
        <ele>151</ele>
        <time>2012-12-13T13:37:49Z</time>
      </trkpt>
      <trkpt lat="43.91086" lon="1.86262">
        <ele>151</ele>
        <time>2012-12-13T13:37:56Z</time>
      </trkpt>
      <trkpt lat="43.91083" lon="1.86268">
        <ele>151</ele>
        <time>2012-12-13T13:38:00Z</time>
      </trkpt>
      <trkpt lat="43.9108" lon="1.86273">
        <ele>151</ele>
        <time>2012-12-13T13:38:04Z</time>
      </trkpt>
      <trkpt lat="43.91076" lon="1.86279">
        <ele>150</ele>
        <time>2012-12-13T13:38:08Z</time>
      </trkpt>
      <trkpt lat="43.91072" lon="1.86284">
        <ele>150</ele>
        <time>2012-12-13T13:38:12Z</time>
      </trkpt>
      <trkpt lat="43.91069" lon="1.8629">
        <ele>150</ele>
        <time>2012-12-13T13:38:16Z</time>
      </trkpt>
      <trkpt lat="43.91065" lon="1.86295">
        <ele>150</ele>
        <time>2012-12-13T13:38:20Z</time>
      </trkpt>
      <trkpt lat="43.91062" lon="1.86301">
        <ele>150</ele>
        <time>2012-12-13T13:38:24Z</time>
      </trkpt>
      <trkpt lat="43.91059" lon="1.86308">
        <ele>150</ele>
        <time>2012-12-13T13:38:29Z</time>
      </trkpt>
      <trkpt lat="43.91057" lon="1.86314">
        <ele>150</ele>
        <time>2012-12-13T13:38:33Z</time>
      </trkpt>
      <trkpt lat="43.91054" lon="1.8632">
        <ele>150</ele>
        <time>2012-12-13T13:38:37Z</time>
      </trkpt>
      <trkpt lat="43.9105" lon="1.86324">
        <ele>149</ele>
        <time>2012-12-13T13:38:41Z</time>
      </trkpt>
      <trkpt lat="43.91046" lon="1.8633">
        <ele>149</ele>
        <time>2012-12-13T13:38:45Z</time>
      </trkpt>
      <trkpt lat="43.91042" lon="1.86335">
        <ele>148</ele>
        <time>2012-12-13T13:38:49Z</time>
      </trkpt>
      <trkpt lat="43.91038" lon="1.86338">
        <ele>148</ele>
        <time>2012-12-13T13:38:53Z</time>
      </trkpt>
      <trkpt lat="43.91034" lon="1.86341">
        <ele>148</ele>
        <time>2012-12-13T13:38:58Z</time>
      </trkpt>
      <trkpt lat="43.9103" lon="1.86344">
        <ele>148</ele>
        <time>2012-12-13T13:39:02Z</time>
      </trkpt>
      <trkpt lat="43.91025" lon="1.86348">
        <ele>148</ele>
        <time>2012-12-13T13:39:07Z</time>
      </trkpt>
      <trkpt lat="43.91021" lon="1.86352">
        <ele>147</ele>
        <time>2012-12-13T13:39:11Z</time>
      </trkpt>
      <trkpt lat="43.91016" lon="1.86355">
        <ele>147</ele>
        <time>2012-12-13T13:39:16Z</time>
      </trkpt>
      <trkpt lat="43.91011" lon="1.86357">
        <ele>147</ele>
        <time>2012-12-13T13:39:21Z</time>
      </trkpt>
      <trkpt lat="43.91005" lon="1.86358">
        <ele>147</ele>
        <time>2012-12-13T13:39:25Z</time>
      </trkpt>
      <trkpt lat="43.91" lon="1.8636">
        <ele>147</ele>
        <time>2012-12-13T13:39:30Z</time>
      </trkpt>
      <trkpt lat="43.90995" lon="1.86361">
        <ele>147</ele>
        <time>2012-12-13T13:39:35Z</time>
      </trkpt>
      <trkpt lat="43.90991" lon="1.86364">
        <ele>147</ele>
        <time>2012-12-13T13:39:39Z</time>
      </trkpt>
      <trkpt lat="43.90987" lon="1.86367">
        <ele>147</ele>
        <time>2012-12-13T13:39:42Z</time>
      </trkpt>
      <trkpt lat="43.90981" lon="1.8637">
        <ele>146</ele>
        <time>2012-12-13T13:39:46Z</time>
      </trkpt>
      <trkpt lat="43.90976" lon="1.86373">
        <ele>145</ele>
        <time>2012-12-13T13:39:50Z</time>
      </trkpt>
      <trkpt lat="43.90971" lon="1.86375">
        <ele>145</ele>
        <time>2012-12-13T13:39:54Z</time>
      </trkpt>
      <trkpt lat="43.90967" lon="1.86379">
        <ele>145</ele>
        <time>2012-12-13T13:39:58Z</time>
      </trkpt>
      <trkpt lat="43.9096" lon="1.86384">
        <ele>145</ele>
        <time>2012-12-13T13:40:04Z</time>
      </trkpt>
      <trkpt lat="43.90952" lon="1.8639">
        <ele>144</ele>
        <time>2012-12-13T13:40:11Z</time>
      </trkpt>
      <trkpt lat="43.90948" lon="1.86394">
        <ele>144</ele>
        <time>2012-12-13T13:40:16Z</time>
      </trkpt>
      <trkpt lat="43.90944" lon="1.86397">
        <ele>144</ele>
        <time>2012-12-13T13:40:21Z</time>
      </trkpt>
      <trkpt lat="43.90939" lon="1.86401">
        <ele>144</ele>
        <time>2012-12-13T13:40:26Z</time>
      </trkpt>
      <trkpt lat="43.90934" lon="1.86404">
        <ele>145</ele>
        <time>2012-12-13T13:40:30Z</time>
      </trkpt>
      <trkpt lat="43.9093" lon="1.86408">
        <ele>145</ele>
        <time>2012-12-13T13:40:33Z</time>
      </trkpt>
      <trkpt lat="43.90926" lon="1.86412">
        <ele>145</ele>
        <time>2012-12-13T13:40:37Z</time>
      </trkpt>
      <trkpt lat="43.90922" lon="1.86417">
        <ele>145</ele>
        <time>2012-12-13T13:40:41Z</time>
      </trkpt>
      <trkpt lat="43.90916" lon="1.86423">
        <ele>146</ele>
        <time>2012-12-13T13:40:47Z</time>
      </trkpt>
      <trkpt lat="43.90912" lon="1.86428">
        <ele>146</ele>
        <time>2012-12-13T13:40:52Z</time>
      </trkpt>
      <trkpt lat="43.90909" lon="1.86433">
        <ele>146</ele>
        <time>2012-12-13T13:40:56Z</time>
      </trkpt>
      <trkpt lat="43.90906" lon="1.86439">
        <ele>145</ele>
        <time>2012-12-13T13:41:00Z</time>
      </trkpt>
      <trkpt lat="43.90902" lon="1.86445">
        <ele>145</ele>
        <time>2012-12-13T13:41:04Z</time>
      </trkpt>
      <trkpt lat="43.909" lon="1.86451">
        <ele>145</ele>
        <time>2012-12-13T13:41:08Z</time>
      </trkpt>
      <trkpt lat="43.90897" lon="1.86456">
        <ele>146</ele>
        <time>2012-12-13T13:41:13Z</time>
      </trkpt>
      <trkpt lat="43.90894" lon="1.86461">
        <ele>146</ele>
        <time>2012-12-13T13:41:18Z</time>
      </trkpt>
      <trkpt lat="43.90891" lon="1.86466">
        <ele>146</ele>
        <time>2012-12-13T13:41:23Z</time>
      </trkpt>
      <trkpt lat="43.90888" lon="1.86472">
        <ele>145</ele>
        <time>2012-12-13T13:41:28Z</time>
      </trkpt>
      <trkpt lat="43.90886" lon="1.86478">
        <ele>144</ele>
        <time>2012-12-13T13:41:33Z</time>
      </trkpt>
      <trkpt lat="43.90883" lon="1.86484">
        <ele>144</ele>
        <time>2012-12-13T13:41:38Z</time>
      </trkpt>
      <trkpt lat="43.90879" lon="1.8649">
        <ele>143</ele>
        <time>2012-12-13T13:41:42Z</time>
      </trkpt>
      <trkpt lat="43.90875" lon="1.86495">
        <ele>143</ele>
        <time>2012-12-13T13:41:46Z</time>
      </trkpt>
      <trkpt lat="43.90872" lon="1.865">
        <ele>143</ele>
        <time>2012-12-13T13:41:50Z</time>
      </trkpt>
      <trkpt lat="43.90869" lon="1.86508">
        <ele>144</ele>
        <time>2012-12-13T13:41:56Z</time>
      </trkpt>
      <trkpt lat="43.90863" lon="1.86514">
        <ele>145</ele>
        <time>2012-12-13T13:42:01Z</time>
      </trkpt>
      <trkpt lat="43.9086" lon="1.86518">
        <ele>144</ele>
        <time>2012-12-13T13:42:05Z</time>
      </trkpt>
      <trkpt lat="43.90855" lon="1.8652">
        <ele>144</ele>
        <time>2012-12-13T13:42:44Z</time>
      </trkpt>
      <trkpt lat="43.90851" lon="1.86531">
        <ele>143</ele>
        <time>2012-12-13T13:43:13Z</time>
      </trkpt>
      <trkpt lat="43.90849" lon="1.86537">
        <ele>143</ele>
        <time>2012-12-13T13:43:16Z</time>
      </trkpt>
      <trkpt lat="43.90848" lon="1.86544">
        <ele>143</ele>
        <time>2012-12-13T13:43:20Z</time>
      </trkpt>
      <trkpt lat="43.90845" lon="1.86547">
        <ele>145</ele>
        <time>2012-12-13T13:43:33Z</time>
      </trkpt>
      <trkpt lat="43.90844" lon="1.8655">
        <ele>145</ele>
        <time>2012-12-13T13:44:02Z</time>
      </trkpt>
      <trkpt lat="43.90841" lon="1.86557">
        <ele>145</ele>
        <time>2012-12-13T13:44:07Z</time>
      </trkpt>
      <trkpt lat="43.9084" lon="1.86565">
        <ele>146</ele>
        <time>2012-12-13T13:44:13Z</time>
      </trkpt>
      <trkpt lat="43.90841" lon="1.86572">
        <ele>146</ele>
        <time>2012-12-13T13:44:17Z</time>
      </trkpt>
      <trkpt lat="43.90842" lon="1.86579">
        <ele>147</ele>
        <time>2012-12-13T13:44:23Z</time>
      </trkpt>
      <trkpt lat="43.90841" lon="1.86587">
        <ele>148</ele>
        <time>2012-12-13T13:44:28Z</time>
      </trkpt>
      <trkpt lat="43.90841" lon="1.86593">
        <ele>148</ele>
        <time>2012-12-13T13:44:32Z</time>
      </trkpt>
      <trkpt lat="43.9084" lon="1.866">
        <ele>148</ele>
        <time>2012-12-13T13:44:37Z</time>
      </trkpt>
      <trkpt lat="43.90838" lon="1.86608">
        <ele>148</ele>
        <time>2012-12-13T13:44:41Z</time>
      </trkpt>
      <trkpt lat="43.90839" lon="1.86615">
        <ele>148</ele>
        <time>2012-12-13T13:44:45Z</time>
      </trkpt>
      <trkpt lat="43.90839" lon="1.86622">
        <ele>147</ele>
        <time>2012-12-13T13:44:49Z</time>
      </trkpt>
      <trkpt lat="43.90838" lon="1.86629">
        <ele>147</ele>
        <time>2012-12-13T13:44:54Z</time>
      </trkpt>
      <trkpt lat="43.90836" lon="1.86635">
        <ele>146</ele>
        <time>2012-12-13T13:44:59Z</time>
      </trkpt>
      <trkpt lat="43.90833" lon="1.86648">
        <ele>147</ele>
        <time>2012-12-13T13:45:08Z</time>
      </trkpt>
      <trkpt lat="43.9083" lon="1.86662">
        <ele>148</ele>
        <time>2012-12-13T13:45:17Z</time>
      </trkpt>
      <trkpt lat="43.90826" lon="1.86675">
        <ele>148</ele>
        <time>2012-12-13T13:45:23Z</time>
      </trkpt>
      <trkpt lat="43.90822" lon="1.86687">
        <ele>147</ele>
        <time>2012-12-13T13:45:29Z</time>
      </trkpt>
      <trkpt lat="43.90818" lon="1.86699">
        <ele>148</ele>
        <time>2012-12-13T13:45:35Z</time>
      </trkpt>
      <trkpt lat="43.90813" lon="1.8671">
        <ele>148</ele>
        <time>2012-12-13T13:45:45Z</time>
      </trkpt>
      <trkpt lat="43.90807" lon="1.86719">
        <ele>149</ele>
        <time>2012-12-13T13:45:55Z</time>
      </trkpt>
      <trkpt lat="43.908" lon="1.86728">
        <ele>149</ele>
        <time>2012-12-13T13:46:03Z</time>
      </trkpt>
      <trkpt lat="43.90794" lon="1.86741">
        <ele>150</ele>
        <time>2012-12-13T13:46:11Z</time>
      </trkpt>
      <trkpt lat="43.90786" lon="1.86752">
        <ele>151</ele>
        <time>2012-12-13T13:46:19Z</time>
      </trkpt>
      <trkpt lat="43.90783" lon="1.86764">
        <ele>150</ele>
        <time>2012-12-13T13:46:27Z</time>
      </trkpt>
      <trkpt lat="43.90777" lon="1.86775">
        <ele>150</ele>
        <time>2012-12-13T13:46:35Z</time>
      </trkpt>
      <trkpt lat="43.90767" lon="1.86784">
        <ele>147</ele>
        <time>2012-12-13T13:46:54Z</time>
      </trkpt>
      <trkpt lat="43.90758" lon="1.86792">
        <ele>147</ele>
        <time>2012-12-13T13:47:04Z</time>
      </trkpt>
      <trkpt lat="43.9075" lon="1.86801">
        <ele>149</ele>
        <time>2012-12-13T13:47:14Z</time>
      </trkpt>
      <trkpt lat="43.90744" lon="1.86812">
        <ele>151</ele>
        <time>2012-12-13T13:47:21Z</time>
      </trkpt>
      <trkpt lat="43.90738" lon="1.86827">
        <ele>152</ele>
        <time>2012-12-13T13:47:31Z</time>
      </trkpt>
      <trkpt lat="43.90732" lon="1.86837">
        <ele>152</ele>
        <time>2012-12-13T13:47:37Z</time>
      </trkpt>
      <trkpt lat="43.90725" lon="1.86846">
        <ele>152</ele>
        <time>2012-12-13T13:47:43Z</time>
      </trkpt>
      <trkpt lat="43.90721" lon="1.86857">
        <ele>151</ele>
        <time>2012-12-13T13:47:48Z</time>
      </trkpt>
      <trkpt lat="43.90719" lon="1.8687">
        <ele>148</ele>
        <time>2012-12-13T13:47:56Z</time>
      </trkpt>
      <trkpt lat="43.90716" lon="1.86883">
        <ele>148</ele>
        <time>2012-12-13T13:48:05Z</time>
      </trkpt>
      <trkpt lat="43.90711" lon="1.86894">
        <ele>148</ele>
        <time>2012-12-13T13:48:12Z</time>
      </trkpt>
      <trkpt lat="43.9071" lon="1.86904">
        <ele>147</ele>
        <time>2012-12-13T13:48:17Z</time>
      </trkpt>
      <trkpt lat="43.9071" lon="1.8691">
        <ele>146</ele>
        <time>2012-12-13T13:48:20Z</time>
      </trkpt>
      <trkpt lat="43.90706" lon="1.86923">
        <ele>145</ele>
        <time>2012-12-13T13:48:29Z</time>
      </trkpt>
      <trkpt lat="43.90702" lon="1.8693">
        <ele>145</ele>
        <time>2012-12-13T13:48:34Z</time>
      </trkpt>
      <trkpt lat="43.90702" lon="1.86937">
        <ele>143</ele>
        <time>2012-12-13T13:48:38Z</time>
      </trkpt>
      <trkpt lat="43.90702" lon="1.86947">
        <ele>144</ele>
        <time>2012-12-13T13:48:43Z</time>
      </trkpt>
      <trkpt lat="43.90701" lon="1.86953">
        <ele>145</ele>
        <time>2012-12-13T13:48:46Z</time>
      </trkpt>
      <trkpt lat="43.90701" lon="1.86961">
        <ele>146</ele>
        <time>2012-12-13T13:48:50Z</time>
      </trkpt>
      <trkpt lat="43.907" lon="1.8697">
        <ele>147</ele>
        <time>2012-12-13T13:48:55Z</time>
      </trkpt>
      <trkpt lat="43.90703" lon="1.86983">
        <ele>146</ele>
        <time>2012-12-13T13:49:03Z</time>
      </trkpt>
      <trkpt lat="43.90703" lon="1.86989">
        <ele>145</ele>
        <time>2012-12-13T13:49:07Z</time>
      </trkpt>
      <trkpt lat="43.90701" lon="1.87">
        <ele>146</ele>
        <time>2012-12-13T13:49:14Z</time>
      </trkpt>
      <trkpt lat="43.90701" lon="1.87013">
        <ele>145</ele>
        <time>2012-12-13T13:49:22Z</time>
      </trkpt>
      <trkpt lat="43.90703" lon="1.87025">
        <ele>146</ele>
        <time>2012-12-13T13:49:29Z</time>
      </trkpt>
      <trkpt lat="43.907" lon="1.87038">
        <ele>147</ele>
        <time>2012-12-13T13:49:37Z</time>
      </trkpt>
      <trkpt lat="43.90699" lon="1.87052">
        <ele>148</ele>
        <time>2012-12-13T13:49:46Z</time>
      </trkpt>
      <trkpt lat="43.907" lon="1.87059">
        <ele>148</ele>
        <time>2012-12-13T13:49:50Z</time>
      </trkpt>
      <trkpt lat="43.90701" lon="1.87067">
        <ele>148</ele>
        <time>2012-12-13T13:49:54Z</time>
      </trkpt>
      <trkpt lat="43.907" lon="1.87077">
        <ele>150</ele>
        <time>2012-12-13T13:50:00Z</time>
      </trkpt>
      <trkpt lat="43.90699" lon="1.8709">
        <ele>150</ele>
        <time>2012-12-13T13:50:07Z</time>
      </trkpt>
      <trkpt lat="43.907" lon="1.87103">
        <ele>149</ele>
        <time>2012-12-13T13:50:14Z</time>
      </trkpt>
      <trkpt lat="43.90699" lon="1.87111">
        <ele>147</ele>
        <time>2012-12-13T13:50:18Z</time>
      </trkpt>
      <trkpt lat="43.90699" lon="1.87118">
        <ele>146</ele>
        <time>2012-12-13T13:50:22Z</time>
      </trkpt>
      <trkpt lat="43.90699" lon="1.87131">
        <ele>144</ele>
        <time>2012-12-13T13:50:30Z</time>
      </trkpt>
      <trkpt lat="43.90697" lon="1.87145">
        <ele>144</ele>
        <time>2012-12-13T13:50:38Z</time>
      </trkpt>
      <trkpt lat="43.90697" lon="1.87158">
        <ele>144</ele>
        <time>2012-12-13T13:50:47Z</time>
      </trkpt>
      <trkpt lat="43.90696" lon="1.87171">
        <ele>146</ele>
        <time>2012-12-13T13:50:55Z</time>
      </trkpt>
      <trkpt lat="43.90698" lon="1.87186">
        <ele>147</ele>
        <time>2012-12-13T13:51:03Z</time>
      </trkpt>
      <trkpt lat="43.90697" lon="1.872">
        <ele>147</ele>
        <time>2012-12-13T13:51:08Z</time>
      </trkpt>
      <trkpt lat="43.90695" lon="1.87212">
        <ele>148</ele>
        <time>2012-12-13T13:51:19Z</time>
      </trkpt>
      <trkpt lat="43.90695" lon="1.87225">
        <ele>148</ele>
        <time>2012-12-13T13:51:29Z</time>
      </trkpt>
      <trkpt lat="43.90696" lon="1.8724">
        <ele>148</ele>
        <time>2012-12-13T13:51:36Z</time>
      </trkpt>
      <trkpt lat="43.90695" lon="1.87254">
        <ele>149</ele>
        <time>2012-12-13T13:51:44Z</time>
      </trkpt>
      <trkpt lat="43.90693" lon="1.87266">
        <ele>149</ele>
        <time>2012-12-13T13:51:53Z</time>
      </trkpt>
      <trkpt lat="43.90692" lon="1.87279">
        <ele>149</ele>
        <time>2012-12-13T13:52:03Z</time>
      </trkpt>
      <trkpt lat="43.90692" lon="1.87293">
        <ele>149</ele>
        <time>2012-12-13T13:52:09Z</time>
      </trkpt>
      <trkpt lat="43.9069" lon="1.87306">
        <ele>146</ele>
        <time>2012-12-13T13:52:16Z</time>
      </trkpt>
      <trkpt lat="43.90689" lon="1.87319">
        <ele>145</ele>
        <time>2012-12-13T13:52:24Z</time>
      </trkpt>
      <trkpt lat="43.9069" lon="1.87332">
        <ele>146</ele>
        <time>2012-12-13T13:52:31Z</time>
      </trkpt>
      <trkpt lat="43.90689" lon="1.87345">
        <ele>148</ele>
        <time>2012-12-13T13:52:39Z</time>
      </trkpt>
      <trkpt lat="43.90688" lon="1.87358">
        <ele>148</ele>
        <time>2012-12-13T13:52:47Z</time>
      </trkpt>
      <trkpt lat="43.90686" lon="1.87372">
        <ele>148</ele>
        <time>2012-12-13T13:52:54Z</time>
      </trkpt>
      <trkpt lat="43.90683" lon="1.87385">
        <ele>148</ele>
        <time>2012-12-13T13:53:03Z</time>
      </trkpt>
      <trkpt lat="43.90682" lon="1.87398">
        <ele>149</ele>
        <time>2012-12-13T13:53:12Z</time>
      </trkpt>
      <trkpt lat="43.90683" lon="1.8741">
        <ele>147</ele>
        <time>2012-12-13T13:53:23Z</time>
      </trkpt>
      <trkpt lat="43.90678" lon="1.87426">
        <ele>145</ele>
        <time>2012-12-13T13:53:41Z</time>
      </trkpt>
      <trkpt lat="43.9068" lon="1.87432">
        <ele>145</ele>
        <time>2012-12-13T13:53:45Z</time>
      </trkpt>
      <trkpt lat="43.9068" lon="1.8744">
        <ele>146</ele>
        <time>2012-12-13T13:53:50Z</time>
      </trkpt>
      <trkpt lat="43.90681" lon="1.87448">
        <ele>146</ele>
        <time>2012-12-13T13:53:56Z</time>
      </trkpt>
      <trkpt lat="43.90682" lon="1.87455">
        <ele>145</ele>
        <time>2012-12-13T13:54:01Z</time>
      </trkpt>
      <trkpt lat="43.90686" lon="1.87464">
        <ele>145</ele>
        <time>2012-12-13T13:54:08Z</time>
      </trkpt>
      <trkpt lat="43.90688" lon="1.87471">
        <ele>144</ele>
        <time>2012-12-13T13:54:13Z</time>
      </trkpt>
      <trkpt lat="43.90689" lon="1.87478">
        <ele>144</ele>
        <time>2012-12-13T13:54:17Z</time>
      </trkpt>
      <trkpt lat="43.90692" lon="1.87488">
        <ele>142</ele>
        <time>2012-12-13T13:54:24Z</time>
      </trkpt>
      <trkpt lat="43.90694" lon="1.87495">
        <ele>141</ele>
        <time>2012-12-13T13:54:29Z</time>
      </trkpt>
      <trkpt lat="43.90696" lon="1.87501">
        <ele>141</ele>
        <time>2012-12-13T13:54:33Z</time>
      </trkpt>
      <trkpt lat="43.90699" lon="1.87515">
        <ele>140</ele>
        <time>2012-12-13T13:54:41Z</time>
      </trkpt>
      <trkpt lat="43.90702" lon="1.87529">
        <ele>141</ele>
        <time>2012-12-13T13:54:49Z</time>
      </trkpt>
      <trkpt lat="43.90704" lon="1.87541">
        <ele>141</ele>
        <time>2012-12-13T13:54:56Z</time>
      </trkpt>
      <trkpt lat="43.90705" lon="1.8755">
        <ele>141</ele>
        <time>2012-12-13T13:55:01Z</time>
      </trkpt>
      <trkpt lat="43.90708" lon="1.87557">
        <ele>141</ele>
        <time>2012-12-13T13:55:06Z</time>
      </trkpt>
      <trkpt lat="43.90712" lon="1.87569">
        <ele>140</ele>
        <time>2012-12-13T13:55:14Z</time>
      </trkpt>
      <trkpt lat="43.90716" lon="1.87582">
        <ele>140</ele>
        <time>2012-12-13T13:55:22Z</time>
      </trkpt>
      <trkpt lat="43.90717" lon="1.87588">
        <ele>140</ele>
        <time>2012-12-13T13:55:26Z</time>
      </trkpt>
      <trkpt lat="43.90721" lon="1.87601">
        <ele>140</ele>
        <time>2012-12-13T13:55:33Z</time>
      </trkpt>
      <trkpt lat="43.90723" lon="1.87613">
        <ele>142</ele>
        <time>2012-12-13T13:55:41Z</time>
      </trkpt>
      <trkpt lat="43.90728" lon="1.87624">
        <ele>143</ele>
        <time>2012-12-13T13:55:49Z</time>
      </trkpt>
      <trkpt lat="43.90731" lon="1.87636">
        <ele>144</ele>
        <time>2012-12-13T13:55:57Z</time>
      </trkpt>
      <trkpt lat="43.90738" lon="1.87648">
        <ele>143</ele>
        <time>2012-12-13T13:56:06Z</time>
      </trkpt>
      <trkpt lat="43.90743" lon="1.87658">
        <ele>143</ele>
        <time>2012-12-13T13:56:15Z</time>
      </trkpt>
      <trkpt lat="43.90747" lon="1.87664">
        <ele>143</ele>
        <time>2012-12-13T13:56:20Z</time>
      </trkpt>
      <trkpt lat="43.90749" lon="1.8767">
        <ele>143</ele>
        <time>2012-12-13T13:56:25Z</time>
      </trkpt>
      <trkpt lat="43.9075" lon="1.87682">
        <ele>143</ele>
        <time>2012-12-13T13:56:33Z</time>
      </trkpt>
      <trkpt lat="43.90752" lon="1.87696">
        <ele>141</ele>
        <time>2012-12-13T13:56:41Z</time>
      </trkpt>
      <trkpt lat="43.90756" lon="1.87708">
        <ele>142</ele>
        <time>2012-12-13T13:56:51Z</time>
      </trkpt>
      <trkpt lat="43.9076" lon="1.8772">
        <ele>142</ele>
        <time>2012-12-13T13:57:00Z</time>
      </trkpt>
      <trkpt lat="43.90761" lon="1.87733">
        <ele>143</ele>
        <time>2012-12-13T13:57:08Z</time>
      </trkpt>
      <trkpt lat="43.90762" lon="1.8774">
        <ele>143</ele>
        <time>2012-12-13T13:57:13Z</time>
      </trkpt>
      <trkpt lat="43.90762" lon="1.87748">
        <ele>143</ele>
        <time>2012-12-13T13:57:17Z</time>
      </trkpt>
      <trkpt lat="43.90761" lon="1.87756">
        <ele>142</ele>
        <time>2012-12-13T13:57:21Z</time>
      </trkpt>
      <trkpt lat="43.90761" lon="1.87763">
        <ele>141</ele>
        <time>2012-12-13T13:57:25Z</time>
      </trkpt>
      <trkpt lat="43.9076" lon="1.87771">
        <ele>140</ele>
        <time>2012-12-13T13:57:30Z</time>
      </trkpt>
      <trkpt lat="43.9076" lon="1.87777">
        <ele>140</ele>
        <time>2012-12-13T13:57:34Z</time>
      </trkpt>
      <trkpt lat="43.90759" lon="1.87785">
        <ele>140</ele>
        <time>2012-12-13T13:57:39Z</time>
      </trkpt>
      <trkpt lat="43.90756" lon="1.87797">
        <ele>140</ele>
        <time>2012-12-13T13:57:47Z</time>
      </trkpt>
      <trkpt lat="43.90756" lon="1.8781">
        <ele>141</ele>
        <time>2012-12-13T13:57:57Z</time>
      </trkpt>
      <trkpt lat="43.90756" lon="1.87818">
        <ele>141</ele>
        <time>2012-12-13T13:58:03Z</time>
      </trkpt>
      <trkpt lat="43.90754" lon="1.87825">
        <ele>141</ele>
        <time>2012-12-13T13:58:07Z</time>
      </trkpt>
      <trkpt lat="43.90752" lon="1.87839">
        <ele>141</ele>
        <time>2012-12-13T13:58:14Z</time>
      </trkpt>
      <trkpt lat="43.9075" lon="1.87852">
        <ele>141</ele>
        <time>2012-12-13T13:58:21Z</time>
      </trkpt>
      <trkpt lat="43.9075" lon="1.87858">
        <ele>141</ele>
        <time>2012-12-13T13:58:24Z</time>
      </trkpt>
      <trkpt lat="43.9075" lon="1.87865">
        <ele>141</ele>
        <time>2012-12-13T13:58:28Z</time>
      </trkpt>
      <trkpt lat="43.90751" lon="1.87872">
        <ele>142</ele>
        <time>2012-12-13T13:58:33Z</time>
      </trkpt>
      <trkpt lat="43.9075" lon="1.87878">
        <ele>142</ele>
        <time>2012-12-13T13:58:37Z</time>
      </trkpt>
      <trkpt lat="43.90749" lon="1.8789">
        <ele>141</ele>
        <time>2012-12-13T13:58:43Z</time>
      </trkpt>
      <trkpt lat="43.90748" lon="1.87903">
        <ele>142</ele>
        <time>2012-12-13T13:58:50Z</time>
      </trkpt>
      <trkpt lat="43.90748" lon="1.87909">
        <ele>142</ele>
        <time>2012-12-13T13:58:54Z</time>
      </trkpt>
      <trkpt lat="43.90748" lon="1.87915">
        <ele>142</ele>
        <time>2012-12-13T13:58:58Z</time>
      </trkpt>
      <trkpt lat="43.90749" lon="1.87923">
        <ele>142</ele>
        <time>2012-12-13T13:59:03Z</time>
      </trkpt>
      <trkpt lat="43.90749" lon="1.8793">
        <ele>143</ele>
        <time>2012-12-13T13:59:07Z</time>
      </trkpt>
      <trkpt lat="43.90749" lon="1.87939">
        <ele>143</ele>
        <time>2012-12-13T13:59:12Z</time>
      </trkpt>
      <trkpt lat="43.90752" lon="1.87951">
        <ele>144</ele>
        <time>2012-12-13T13:59:21Z</time>
      </trkpt>
      <trkpt lat="43.90754" lon="1.87962">
        <ele>143</ele>
        <time>2012-12-13T13:59:29Z</time>
      </trkpt>
      <trkpt lat="43.90755" lon="1.87969">
        <ele>143</ele>
        <time>2012-12-13T13:59:33Z</time>
      </trkpt>
      <trkpt lat="43.90756" lon="1.87975">
        <ele>142</ele>
        <time>2012-12-13T13:59:36Z</time>
      </trkpt>
      <trkpt lat="43.90757" lon="1.87983">
        <ele>143</ele>
        <time>2012-12-13T13:59:40Z</time>
      </trkpt>
      <trkpt lat="43.90758" lon="1.87991">
        <ele>144</ele>
        <time>2012-12-13T13:59:47Z</time>
      </trkpt>
      <trkpt lat="43.90758" lon="1.87998">
        <ele>144</ele>
        <time>2012-12-13T13:59:52Z</time>
      </trkpt>
      <trkpt lat="43.9076" lon="1.88007">
        <ele>144</ele>
        <time>2012-12-13T13:59:57Z</time>
      </trkpt>
      <trkpt lat="43.90762" lon="1.88014">
        <ele>144</ele>
        <time>2012-12-13T14:00:02Z</time>
      </trkpt>
      <trkpt lat="43.90763" lon="1.8802">
        <ele>144</ele>
        <time>2012-12-13T14:00:06Z</time>
      </trkpt>
      <trkpt lat="43.90764" lon="1.88027">
        <ele>143</ele>
        <time>2012-12-13T14:00:10Z</time>
      </trkpt>
      <trkpt lat="43.90764" lon="1.88034">
        <ele>143</ele>
        <time>2012-12-13T14:00:14Z</time>
      </trkpt>
      <trkpt lat="43.90764" lon="1.88048">
        <ele>142</ele>
        <time>2012-12-13T14:00:21Z</time>
      </trkpt>
      <trkpt lat="43.90765" lon="1.88061">
        <ele>140</ele>
        <time>2012-12-13T14:00:31Z</time>
      </trkpt>
      <trkpt lat="43.90765" lon="1.88068">
        <ele>140</ele>
        <time>2012-12-13T14:00:36Z</time>
      </trkpt>
      <trkpt lat="43.90765" lon="1.88075">
        <ele>141</ele>
        <time>2012-12-13T14:00:40Z</time>
      </trkpt>
      <trkpt lat="43.90765" lon="1.88082">
        <ele>142</ele>
        <time>2012-12-13T14:00:45Z</time>
      </trkpt>
      <trkpt lat="43.90765" lon="1.88095">
        <ele>142</ele>
        <time>2012-12-13T14:00:52Z</time>
      </trkpt>
      <trkpt lat="43.90765" lon="1.88102">
        <ele>141</ele>
        <time>2012-12-13T14:00:57Z</time>
      </trkpt>
      <trkpt lat="43.90766" lon="1.88111">
        <ele>141</ele>
        <time>2012-12-13T14:01:05Z</time>
      </trkpt>
      <trkpt lat="43.90766" lon="1.88118">
        <ele>141</ele>
        <time>2012-12-13T14:01:09Z</time>
      </trkpt>
      <trkpt lat="43.90766" lon="1.88125">
        <ele>140</ele>
        <time>2012-12-13T14:01:13Z</time>
      </trkpt>
      <trkpt lat="43.90764" lon="1.88139">
        <ele>139</ele>
        <time>2012-12-13T14:01:19Z</time>
      </trkpt>
      <trkpt lat="43.90763" lon="1.88146">
        <ele>139</ele>
        <time>2012-12-13T14:01:22Z</time>
      </trkpt>
      <trkpt lat="43.90762" lon="1.88152">
        <ele>140</ele>
        <time>2012-12-13T14:01:26Z</time>
      </trkpt>
      <trkpt lat="43.90762" lon="1.8816">
        <ele>140</ele>
        <time>2012-12-13T14:01:31Z</time>
      </trkpt>
      <trkpt lat="43.90761" lon="1.88166">
        <ele>140</ele>
        <time>2012-12-13T14:01:34Z</time>
      </trkpt>
      <trkpt lat="43.9076" lon="1.88174">
        <ele>140</ele>
        <time>2012-12-13T14:01:39Z</time>
      </trkpt>
      <trkpt lat="43.90759" lon="1.8818">
        <ele>139</ele>
        <time>2012-12-13T14:01:43Z</time>
      </trkpt>
      <trkpt lat="43.90758" lon="1.88193">
        <ele>138</ele>
        <time>2012-12-13T14:01:52Z</time>
      </trkpt>
      <trkpt lat="43.90755" lon="1.88199">
        <ele>139</ele>
        <time>2012-12-13T14:01:57Z</time>
      </trkpt>
      <trkpt lat="43.90754" lon="1.88206">
        <ele>138</ele>
        <time>2012-12-13T14:02:01Z</time>
      </trkpt>
      <trkpt lat="43.90753" lon="1.88213">
        <ele>138</ele>
        <time>2012-12-13T14:02:05Z</time>
      </trkpt>
      <trkpt lat="43.90751" lon="1.8822">
        <ele>138</ele>
        <time>2012-12-13T14:02:09Z</time>
      </trkpt>
      <trkpt lat="43.9075" lon="1.88226">
        <ele>138</ele>
        <time>2012-12-13T14:02:15Z</time>
      </trkpt>
      <trkpt lat="43.90747" lon="1.88238">
        <ele>138</ele>
        <time>2012-12-13T14:02:22Z</time>
      </trkpt>
      <trkpt lat="43.90747" lon="1.88246">
        <ele>138</ele>
        <time>2012-12-13T14:02:29Z</time>
      </trkpt>
      <trkpt lat="43.90745" lon="1.88253">
        <ele>138</ele>
        <time>2012-12-13T14:02:32Z</time>
      </trkpt>
      <trkpt lat="43.90745" lon="1.8826">
        <ele>137</ele>
        <time>2012-12-13T14:02:37Z</time>
      </trkpt>
      <trkpt lat="43.90744" lon="1.88266">
        <ele>137</ele>
        <time>2012-12-13T14:02:41Z</time>
      </trkpt>
      <trkpt lat="43.90743" lon="1.88272">
        <ele>137</ele>
        <time>2012-12-13T14:02:45Z</time>
      </trkpt>
      <trkpt lat="43.90742" lon="1.8828">
        <ele>137</ele>
        <time>2012-12-13T14:02:50Z</time>
      </trkpt>
      <trkpt lat="43.90741" lon="1.88287">
        <ele>138</ele>
        <time>2012-12-13T14:02:54Z</time>
      </trkpt>
      <trkpt lat="43.90739" lon="1.88293">
        <ele>139</ele>
        <time>2012-12-13T14:02:59Z</time>
      </trkpt>
      <trkpt lat="43.90738" lon="1.88302">
        <ele>139</ele>
        <time>2012-12-13T14:03:04Z</time>
      </trkpt>
      <trkpt lat="43.90736" lon="1.88308">
        <ele>140</ele>
        <time>2012-12-13T14:03:07Z</time>
      </trkpt>
      <trkpt lat="43.90733" lon="1.8832">
        <ele>141</ele>
        <time>2012-12-13T14:03:15Z</time>
      </trkpt>
      <trkpt lat="43.90733" lon="1.88334">
        <ele>141</ele>
        <time>2012-12-13T14:03:22Z</time>
      </trkpt>
      <trkpt lat="43.90732" lon="1.88341">
        <ele>140</ele>
        <time>2012-12-13T14:03:26Z</time>
      </trkpt>
      <trkpt lat="43.9073" lon="1.88347">
        <ele>139</ele>
        <time>2012-12-13T14:03:30Z</time>
      </trkpt>
      <trkpt lat="43.90728" lon="1.88354">
        <ele>139</ele>
        <time>2012-12-13T14:03:34Z</time>
      </trkpt>
      <trkpt lat="43.90727" lon="1.8836">
        <ele>138</ele>
        <time>2012-12-13T14:03:38Z</time>
      </trkpt>
      <trkpt lat="43.90726" lon="1.88368">
        <ele>138</ele>
        <time>2012-12-13T14:03:43Z</time>
      </trkpt>
      <trkpt lat="43.90725" lon="1.88375">
        <ele>139</ele>
        <time>2012-12-13T14:03:46Z</time>
      </trkpt>
      <trkpt lat="43.90724" lon="1.88383">
        <ele>140</ele>
        <time>2012-12-13T14:03:50Z</time>
      </trkpt>
      <trkpt lat="43.90723" lon="1.8839">
        <ele>139</ele>
        <time>2012-12-13T14:03:54Z</time>
      </trkpt>
      <trkpt lat="43.90722" lon="1.88396">
        <ele>139</ele>
        <time>2012-12-13T14:03:58Z</time>
      </trkpt>
      <trkpt lat="43.9072" lon="1.88412">
        <ele>138</ele>
        <time>2012-12-13T14:04:22Z</time>
      </trkpt>
      <trkpt lat="43.90718" lon="1.88425">
        <ele>139</ele>
        <time>2012-12-13T14:04:36Z</time>
      </trkpt>
      <trkpt lat="43.90718" lon="1.88432">
        <ele>141</ele>
        <time>2012-12-13T14:04:42Z</time>
      </trkpt>
      <trkpt lat="43.90718" lon="1.88439">
        <ele>141</ele>
        <time>2012-12-13T14:04:46Z</time>
      </trkpt>
      <trkpt lat="43.90716" lon="1.88445">
        <ele>141</ele>
        <time>2012-12-13T14:04:50Z</time>
      </trkpt>
      <trkpt lat="43.90715" lon="1.88456">
        <ele>140</ele>
        <time>2012-12-13T14:04:59Z</time>
      </trkpt>
      <trkpt lat="43.90714" lon="1.88463">
        <ele>140</ele>
        <time>2012-12-13T14:05:04Z</time>
      </trkpt>
      <trkpt lat="43.90713" lon="1.8847">
        <ele>140</ele>
        <time>2012-12-13T14:05:09Z</time>
      </trkpt>
      <trkpt lat="43.9071" lon="1.88477">
        <ele>141</ele>
        <time>2012-12-13T14:05:14Z</time>
      </trkpt>
      <trkpt lat="43.90707" lon="1.88484">
        <ele>141</ele>
        <time>2012-12-13T14:05:19Z</time>
      </trkpt>
      <trkpt lat="43.90705" lon="1.88497">
        <ele>141</ele>
        <time>2012-12-13T14:05:26Z</time>
      </trkpt>
      <trkpt lat="43.90703" lon="1.88503">
        <ele>140</ele>
        <time>2012-12-13T14:05:30Z</time>
      </trkpt>
      <trkpt lat="43.90701" lon="1.88509">
        <ele>140</ele>
        <time>2012-12-13T14:05:35Z</time>
      </trkpt>
      <trkpt lat="43.90698" lon="1.88515">
        <ele>140</ele>
        <time>2012-12-13T14:05:40Z</time>
      </trkpt>
      <trkpt lat="43.90696" lon="1.88523">
        <ele>140</ele>
        <time>2012-12-13T14:05:45Z</time>
      </trkpt>
      <trkpt lat="43.90693" lon="1.88531">
        <ele>141</ele>
        <time>2012-12-13T14:05:52Z</time>
      </trkpt>
      <trkpt lat="43.90692" lon="1.88539">
        <ele>142</ele>
        <time>2012-12-13T14:05:58Z</time>
      </trkpt>
      <trkpt lat="43.9069" lon="1.88545">
        <ele>142</ele>
        <time>2012-12-13T14:06:03Z</time>
      </trkpt>
      <trkpt lat="43.90687" lon="1.8855">
        <ele>142</ele>
        <time>2012-12-13T14:06:07Z</time>
      </trkpt>
      <trkpt lat="43.90683" lon="1.88554">
        <ele>139</ele>
        <time>2012-12-13T14:06:16Z</time>
      </trkpt>
      <trkpt lat="43.90682" lon="1.88558">
        <ele>139</ele>
        <time>2012-12-13T14:06:32Z</time>
      </trkpt>
      <trkpt lat="43.9068" lon="1.8857">
        <ele>138</ele>
        <time>2012-12-13T14:06:44Z</time>
      </trkpt>
      <trkpt lat="43.9068" lon="1.88577">
        <ele>138</ele>
        <time>2012-12-13T14:06:48Z</time>
      </trkpt>
      <trkpt lat="43.90679" lon="1.88585">
        <ele>138</ele>
        <time>2012-12-13T14:06:52Z</time>
      </trkpt>
      <trkpt lat="43.90681" lon="1.88591">
        <ele>139</ele>
        <time>2012-12-13T14:06:58Z</time>
      </trkpt>
      <trkpt lat="43.90682" lon="1.88597">
        <ele>141</ele>
        <time>2012-12-13T14:07:03Z</time>
      </trkpt>
      <trkpt lat="43.90683" lon="1.88605">
        <ele>141</ele>
        <time>2012-12-13T14:07:07Z</time>
      </trkpt>
      <trkpt lat="43.90684" lon="1.88611">
        <ele>142</ele>
        <time>2012-12-13T14:07:11Z</time>
      </trkpt>
      <trkpt lat="43.90683" lon="1.8862">
        <ele>141</ele>
        <time>2012-12-13T14:07:17Z</time>
      </trkpt>
      <trkpt lat="43.90681" lon="1.88626">
        <ele>140</ele>
        <time>2012-12-13T14:07:22Z</time>
      </trkpt>
      <trkpt lat="43.90678" lon="1.88637">
        <ele>141</ele>
        <time>2012-12-13T14:07:31Z</time>
      </trkpt>
      <trkpt lat="43.90674" lon="1.88649">
        <ele>141</ele>
        <time>2012-12-13T14:07:39Z</time>
      </trkpt>
      <trkpt lat="43.90674" lon="1.88657">
        <ele>141</ele>
        <time>2012-12-13T14:07:45Z</time>
      </trkpt>
      <trkpt lat="43.90673" lon="1.8867">
        <ele>141</ele>
        <time>2012-12-13T14:07:53Z</time>
      </trkpt>
      <trkpt lat="43.90672" lon="1.88683">
        <ele>141</ele>
        <time>2012-12-13T14:08:01Z</time>
      </trkpt>
      <trkpt lat="43.90672" lon="1.8869">
        <ele>140</ele>
        <time>2012-12-13T14:08:09Z</time>
      </trkpt>
      <trkpt lat="43.9067" lon="1.88701">
        <ele>139</ele>
        <time>2012-12-13T14:08:18Z</time>
      </trkpt>
      <trkpt lat="43.90669" lon="1.88716">
        <ele>139</ele>
        <time>2012-12-13T14:08:28Z</time>
      </trkpt>
      <trkpt lat="43.90668" lon="1.88724">
        <ele>139</ele>
        <time>2012-12-13T14:08:34Z</time>
      </trkpt>
      <trkpt lat="43.90668" lon="1.8873">
        <ele>139</ele>
        <time>2012-12-13T14:08:37Z</time>
      </trkpt>
      <trkpt lat="43.90669" lon="1.88737">
        <ele>139</ele>
        <time>2012-12-13T14:08:42Z</time>
      </trkpt>
      <trkpt lat="43.90669" lon="1.88744">
        <ele>137</ele>
        <time>2012-12-13T14:08:46Z</time>
      </trkpt>
      <trkpt lat="43.90669" lon="1.88751">
        <ele>137</ele>
        <time>2012-12-13T14:08:51Z</time>
      </trkpt>
      <trkpt lat="43.90667" lon="1.88758">
        <ele>136</ele>
        <time>2012-12-13T14:08:55Z</time>
      </trkpt>
      <trkpt lat="43.90668" lon="1.88764">
        <ele>137</ele>
        <time>2012-12-13T14:08:59Z</time>
      </trkpt>
      <trkpt lat="43.90668" lon="1.88772">
        <ele>137</ele>
        <time>2012-12-13T14:09:03Z</time>
      </trkpt>
      <trkpt lat="43.90667" lon="1.88778">
        <ele>137</ele>
        <time>2012-12-13T14:09:08Z</time>
      </trkpt>
      <trkpt lat="43.90667" lon="1.88785">
        <ele>138</ele>
        <time>2012-12-13T14:09:12Z</time>
      </trkpt>
      <trkpt lat="43.90666" lon="1.88791">
        <ele>138</ele>
        <time>2012-12-13T14:09:17Z</time>
      </trkpt>
      <trkpt lat="43.90662" lon="1.88796">
        <ele>139</ele>
        <time>2012-12-13T14:09:21Z</time>
      </trkpt>
      <trkpt lat="43.90658" lon="1.888">
        <ele>140</ele>
        <time>2012-12-13T14:09:25Z</time>
      </trkpt>
      <trkpt lat="43.90653" lon="1.88801">
        <ele>140</ele>
        <time>2012-12-13T14:09:28Z</time>
      </trkpt>
      <trkpt lat="43.90649" lon="1.88805">
        <ele>141</ele>
        <time>2012-12-13T14:09:33Z</time>
      </trkpt>
      <trkpt lat="43.90644" lon="1.88807">
        <ele>142</ele>
        <time>2012-12-13T14:09:37Z</time>
      </trkpt>
      <trkpt lat="43.9064" lon="1.88812">
        <ele>142</ele>
        <time>2012-12-13T14:09:43Z</time>
      </trkpt>
      <trkpt lat="43.90635" lon="1.88816">
        <ele>141</ele>
        <time>2012-12-13T14:09:49Z</time>
      </trkpt>
      <trkpt lat="43.9063" lon="1.88819">
        <ele>141</ele>
        <time>2012-12-13T14:09:54Z</time>
      </trkpt>
      <trkpt lat="43.90626" lon="1.88821">
        <ele>141</ele>
        <time>2012-12-13T14:09:58Z</time>
      </trkpt>
      <trkpt lat="43.90622" lon="1.88826">
        <ele>140</ele>
        <time>2012-12-13T14:10:02Z</time>
      </trkpt>
      <trkpt lat="43.90618" lon="1.88831">
        <ele>141</ele>
        <time>2012-12-13T14:10:07Z</time>
      </trkpt>
      <trkpt lat="43.90614" lon="1.88835">
        <ele>142</ele>
        <time>2012-12-13T14:10:11Z</time>
      </trkpt>
      <trkpt lat="43.9061" lon="1.8884">
        <ele>143</ele>
        <time>2012-12-13T14:10:15Z</time>
      </trkpt>
      <trkpt lat="43.90606" lon="1.88843">
        <ele>144</ele>
        <time>2012-12-13T14:10:20Z</time>
      </trkpt>
      <trkpt lat="43.90603" lon="1.88849">
        <ele>143</ele>
        <time>2012-12-13T14:10:24Z</time>
      </trkpt>
      <trkpt lat="43.90598" lon="1.88853">
        <ele>142</ele>
        <time>2012-12-13T14:10:28Z</time>
      </trkpt>
      <trkpt lat="43.90595" lon="1.88857">
        <ele>142</ele>
        <time>2012-12-13T14:10:33Z</time>
      </trkpt>
      <trkpt lat="43.9059" lon="1.88863">
        <ele>142</ele>
        <time>2012-12-13T14:10:39Z</time>
      </trkpt>
      <trkpt lat="43.90586" lon="1.88867">
        <ele>141</ele>
        <time>2012-12-13T14:10:43Z</time>
      </trkpt>
      <trkpt lat="43.90582" lon="1.88871">
        <ele>140</ele>
        <time>2012-12-13T14:10:47Z</time>
      </trkpt>
      <trkpt lat="43.90578" lon="1.88876">
        <ele>140</ele>
        <time>2012-12-13T14:10:51Z</time>
      </trkpt>
      <trkpt lat="43.90573" lon="1.88878">
        <ele>141</ele>
        <time>2012-12-13T14:10:55Z</time>
      </trkpt>
      <trkpt lat="43.90569" lon="1.88882">
        <ele>141</ele>
        <time>2012-12-13T14:10:59Z</time>
      </trkpt>
      <trkpt lat="43.90564" lon="1.88886">
        <ele>141</ele>
        <time>2012-12-13T14:11:04Z</time>
      </trkpt>
      <trkpt lat="43.90559" lon="1.88889">
        <ele>141</ele>
        <time>2012-12-13T14:11:09Z</time>
      </trkpt>
      <trkpt lat="43.9055" lon="1.88891">
        <ele>137</ele>
        <time>2012-12-13T14:11:18Z</time>
      </trkpt>
      <trkpt lat="43.90541" lon="1.88895">
        <ele>138</ele>
        <time>2012-12-13T14:11:26Z</time>
      </trkpt>
      <trkpt lat="43.90532" lon="1.88896">
        <ele>138</ele>
        <time>2012-12-13T14:11:35Z</time>
      </trkpt>
      <trkpt lat="43.90523" lon="1.88902">
        <ele>139</ele>
        <time>2012-12-13T14:11:42Z</time>
      </trkpt>
      <trkpt lat="43.90518" lon="1.88904">
        <ele>140</ele>
        <time>2012-12-13T14:11:48Z</time>
      </trkpt>
      <trkpt lat="43.90513" lon="1.88906">
        <ele>142</ele>
        <time>2012-12-13T14:11:53Z</time>
      </trkpt>
      <trkpt lat="43.90505" lon="1.88914">
        <ele>143</ele>
        <time>2012-12-13T14:11:59Z</time>
      </trkpt>
      <trkpt lat="43.905" lon="1.88918">
        <ele>142</ele>
        <time>2012-12-13T14:12:03Z</time>
      </trkpt>
      <trkpt lat="43.90496" lon="1.88922">
        <ele>141</ele>
        <time>2012-12-13T14:12:08Z</time>
      </trkpt>
      <trkpt lat="43.90491" lon="1.88924">
        <ele>142</ele>
        <time>2012-12-13T14:12:13Z</time>
      </trkpt>
      <trkpt lat="43.90486" lon="1.88929">
        <ele>143</ele>
        <time>2012-12-13T14:12:17Z</time>
      </trkpt>
      <trkpt lat="43.90483" lon="1.88932">
        <ele>143</ele>
        <time>2012-12-13T14:12:21Z</time>
      </trkpt>
      <trkpt lat="43.90478" lon="1.88936">
        <ele>144</ele>
        <time>2012-12-13T14:12:27Z</time>
      </trkpt>
      <trkpt lat="43.90471" lon="1.88944">
        <ele>144</ele>
        <time>2012-12-13T14:12:36Z</time>
      </trkpt>
      <trkpt lat="43.90467" lon="1.88948">
        <ele>143</ele>
        <time>2012-12-13T14:12:40Z</time>
      </trkpt>
      <trkpt lat="43.90462" lon="1.88952">
        <ele>142</ele>
        <time>2012-12-13T14:12:44Z</time>
      </trkpt>
      <trkpt lat="43.90458" lon="1.88955">
        <ele>140</ele>
        <time>2012-12-13T14:12:48Z</time>
      </trkpt>
      <trkpt lat="43.9045" lon="1.88966">
        <ele>141</ele>
        <time>2012-12-13T14:13:02Z</time>
      </trkpt>
      <trkpt lat="43.90444" lon="1.88975">
        <ele>140</ele>
        <time>2012-12-13T14:13:09Z</time>
      </trkpt>
      <trkpt lat="43.9044" lon="1.88982">
        <ele>139</ele>
        <time>2012-12-13T14:13:15Z</time>
      </trkpt>
      <trkpt lat="43.90431" lon="1.88993">
        <ele>140</ele>
        <time>2012-12-13T14:13:23Z</time>
      </trkpt>
      <trkpt lat="43.90425" lon="1.89003">
        <ele>141</ele>
        <time>2012-12-13T14:13:29Z</time>
      </trkpt>
      <trkpt lat="43.90421" lon="1.89007">
        <ele>142</ele>
        <time>2012-12-13T14:13:40Z</time>
      </trkpt>
      <trkpt lat="43.90413" lon="1.89015">
        <ele>144</ele>
        <time>2012-12-13T14:13:50Z</time>
      </trkpt>
      <trkpt lat="43.90406" lon="1.89024">
        <ele>146</ele>
        <time>2012-12-13T14:13:57Z</time>
      </trkpt>
      <trkpt lat="43.90397" lon="1.89029">
        <ele>146</ele>
        <time>2012-12-13T14:14:04Z</time>
      </trkpt>
      <trkpt lat="43.90388" lon="1.89028">
        <ele>144</ele>
        <time>2012-12-13T14:14:11Z</time>
      </trkpt>
      <trkpt lat="43.9038" lon="1.89018">
        <ele>142</ele>
        <time>2012-12-13T14:14:19Z</time>
      </trkpt>
      <trkpt lat="43.90376" lon="1.89007">
        <ele>141</ele>
        <time>2012-12-13T14:14:26Z</time>
      </trkpt>
      <trkpt lat="43.90372" lon="1.88995">
        <ele>141</ele>
        <time>2012-12-13T14:14:34Z</time>
      </trkpt>
      <trkpt lat="43.90367" lon="1.88983">
        <ele>143</ele>
        <time>2012-12-13T14:14:41Z</time>
      </trkpt>
      <trkpt lat="43.90363" lon="1.88972">
        <ele>143</ele>
        <time>2012-12-13T14:14:48Z</time>
      </trkpt>
      <trkpt lat="43.90357" lon="1.88962">
        <ele>141</ele>
        <time>2012-12-13T14:14:54Z</time>
      </trkpt>
      <trkpt lat="43.9035" lon="1.88951">
        <ele>139</ele>
        <time>2012-12-13T14:15:06Z</time>
      </trkpt>
      <trkpt lat="43.90347" lon="1.88944">
        <ele>140</ele>
        <time>2012-12-13T14:15:10Z</time>
      </trkpt>
      <trkpt lat="43.90345" lon="1.88938">
        <ele>139</ele>
        <time>2012-12-13T14:15:14Z</time>
      </trkpt>
      <trkpt lat="43.90343" lon="1.88929">
        <ele>139</ele>
        <time>2012-12-13T14:15:19Z</time>
      </trkpt>
      <trkpt lat="43.90338" lon="1.88918">
        <ele>138</ele>
        <time>2012-12-13T14:15:27Z</time>
      </trkpt>
      <trkpt lat="43.90333" lon="1.88906">
        <ele>140</ele>
        <time>2012-12-13T14:15:34Z</time>
      </trkpt>
      <trkpt lat="43.90329" lon="1.88899">
        <ele>139</ele>
        <time>2012-12-13T14:15:50Z</time>
      </trkpt>
      <trkpt lat="43.90323" lon="1.88896">
        <ele>139</ele>
        <time>2012-12-13T14:15:57Z</time>
      </trkpt>
      <trkpt lat="43.90319" lon="1.88891">
        <ele>138</ele>
        <time>2012-12-13T14:16:01Z</time>
      </trkpt>
      <trkpt lat="43.90316" lon="1.88887">
        <ele>137</ele>
        <time>2012-12-13T14:16:08Z</time>
      </trkpt>
      <trkpt lat="43.90311" lon="1.88877">
        <ele>137</ele>
        <time>2012-12-13T14:16:18Z</time>
      </trkpt>
      <trkpt lat="43.90305" lon="1.88867">
        <ele>137</ele>
        <time>2012-12-13T14:16:24Z</time>
      </trkpt>
      <trkpt lat="43.90296" lon="1.88851">
        <ele>138</ele>
        <time>2012-12-13T14:16:40Z</time>
      </trkpt>
      <trkpt lat="43.90294" lon="1.88837">
        <ele>137</ele>
        <time>2012-12-13T14:16:52Z</time>
      </trkpt>
      <trkpt lat="43.90292" lon="1.88824">
        <ele>135</ele>
        <time>2012-12-13T14:16:59Z</time>
      </trkpt>
      <trkpt lat="43.9029" lon="1.88811">
        <ele>134</ele>
        <time>2012-12-13T14:17:05Z</time>
      </trkpt>
      <trkpt lat="43.90288" lon="1.88798">
        <ele>133</ele>
        <time>2012-12-13T14:17:14Z</time>
      </trkpt>
      <trkpt lat="43.90282" lon="1.88782">
        <ele>135</ele>
        <time>2012-12-13T14:17:29Z</time>
      </trkpt>
      <trkpt lat="43.90276" lon="1.88771">
        <ele>138</ele>
        <time>2012-12-13T14:17:35Z</time>
      </trkpt>
      <trkpt lat="43.90267" lon="1.88769">
        <ele>139</ele>
        <time>2012-12-13T14:17:44Z</time>
      </trkpt>
      <trkpt lat="43.90263" lon="1.88772">
        <ele>141</ele>
        <time>2012-12-13T14:17:50Z</time>
      </trkpt>
      <trkpt lat="43.9026" lon="1.88778">
        <ele>140</ele>
        <time>2012-12-13T14:17:55Z</time>
      </trkpt>
      <trkpt lat="43.90261" lon="1.88787">
        <ele>139</ele>
        <time>2012-12-13T14:18:01Z</time>
      </trkpt>
      <trkpt lat="43.90262" lon="1.88793">
        <ele>138</ele>
        <time>2012-12-13T14:18:06Z</time>
      </trkpt>
      <trkpt lat="43.90262" lon="1.88799">
        <ele>138</ele>
        <time>2012-12-13T14:18:11Z</time>
      </trkpt>
      <trkpt lat="43.90261" lon="1.88806">
        <ele>136</ele>
        <time>2012-12-13T14:18:18Z</time>
      </trkpt>
      <trkpt lat="43.9026" lon="1.88816">
        <ele>136</ele>
        <time>2012-12-13T14:18:23Z</time>
      </trkpt>
      <trkpt lat="43.9026" lon="1.88829">
        <ele>135</ele>
        <time>2012-12-13T14:18:34Z</time>
      </trkpt>
      <trkpt lat="43.90261" lon="1.88836">
        <ele>137</ele>
        <time>2012-12-13T14:18:39Z</time>
      </trkpt>
      <trkpt lat="43.90259" lon="1.88844">
        <ele>136</ele>
        <time>2012-12-13T14:18:43Z</time>
      </trkpt>
      <trkpt lat="43.90257" lon="1.88857">
        <ele>135</ele>
        <time>2012-12-13T14:18:53Z</time>
      </trkpt>
      <trkpt lat="43.90258" lon="1.8887">
        <ele>134</ele>
        <time>2012-12-13T14:19:05Z</time>
      </trkpt>
      <trkpt lat="43.90256" lon="1.88884">
        <ele>133</ele>
        <time>2012-12-13T14:19:14Z</time>
      </trkpt>
      <trkpt lat="43.90253" lon="1.88897">
        <ele>132</ele>
        <time>2012-12-13T14:19:21Z</time>
      </trkpt>
      <trkpt lat="43.90252" lon="1.88911">
        <ele>132</ele>
        <time>2012-12-13T14:19:29Z</time>
      </trkpt>
      <trkpt lat="43.90252" lon="1.88924">
        <ele>132</ele>
        <time>2012-12-13T14:19:37Z</time>
      </trkpt>
      <trkpt lat="43.90255" lon="1.88937">
        <ele>133</ele>
        <time>2012-12-13T14:19:48Z</time>
      </trkpt>
      <trkpt lat="43.9026" lon="1.88942">
        <ele>132</ele>
        <time>2012-12-13T14:20:01Z</time>
      </trkpt>
      <trkpt lat="43.90274" lon="1.88945">
        <ele>132</ele>
        <time>2012-12-13T14:20:17Z</time>
      </trkpt>
      <trkpt lat="43.90278" lon="1.88958">
        <ele>132</ele>
        <time>2012-12-13T14:20:25Z</time>
      </trkpt>
      <trkpt lat="43.90276" lon="1.88971">
        <ele>133</ele>
        <time>2012-12-13T14:20:32Z</time>
      </trkpt>
      <trkpt lat="43.90278" lon="1.88983">
        <ele>134</ele>
        <time>2012-12-13T14:20:38Z</time>
      </trkpt>
      <trkpt lat="43.90277" lon="1.88995">
        <ele>134</ele>
        <time>2012-12-13T14:20:45Z</time>
      </trkpt>
      <trkpt lat="43.90284" lon="1.8901">
        <ele>136</ele>
        <time>2012-12-13T14:21:05Z</time>
      </trkpt>
      <trkpt lat="43.90289" lon="1.89026">
        <ele>134</ele>
        <time>2012-12-13T14:21:20Z</time>
      </trkpt>
      <trkpt lat="43.90288" lon="1.89041">
        <ele>130</ele>
        <time>2012-12-13T14:21:28Z</time>
      </trkpt>
      <trkpt lat="43.90288" lon="1.89056">
        <ele>129</ele>
        <time>2012-12-13T14:21:35Z</time>
      </trkpt>
      <trkpt lat="43.90289" lon="1.89069">
        <ele>129</ele>
        <time>2012-12-13T14:21:41Z</time>
      </trkpt>
      <trkpt lat="43.90285" lon="1.89081">
        <ele>129</ele>
        <time>2012-12-13T14:21:50Z</time>
      </trkpt>
      <trkpt lat="43.9028" lon="1.89092">
        <ele>129</ele>
        <time>2012-12-13T14:22:00Z</time>
      </trkpt>
      <trkpt lat="43.9028" lon="1.89104">
        <ele>128</ele>
        <time>2012-12-13T14:22:10Z</time>
      </trkpt>
      <trkpt lat="43.90286" lon="1.89116">
        <ele>129</ele>
        <time>2012-12-13T14:22:19Z</time>
      </trkpt>
      <trkpt lat="43.90291" lon="1.89128">
        <ele>129</ele>
        <time>2012-12-13T14:22:29Z</time>
      </trkpt>
      <trkpt lat="43.90297" lon="1.89137">
        <ele>130</ele>
        <time>2012-12-13T14:22:44Z</time>
      </trkpt>
      <trkpt lat="43.90307" lon="1.89139">
        <ele>131</ele>
        <time>2012-12-13T14:22:51Z</time>
      </trkpt>
      <trkpt lat="43.90315" lon="1.89146">
        <ele>133</ele>
        <time>2012-12-13T14:23:01Z</time>
      </trkpt>
      <trkpt lat="43.90324" lon="1.89148">
        <ele>132</ele>
        <time>2012-12-13T14:23:10Z</time>
      </trkpt>
      <trkpt lat="43.90332" lon="1.89154">
        <ele>132</ele>
        <time>2012-12-13T14:23:18Z</time>
      </trkpt>
      <trkpt lat="43.90339" lon="1.89165">
        <ele>132</ele>
        <time>2012-12-13T14:23:28Z</time>
      </trkpt>
      <trkpt lat="43.90341" lon="1.89172">
        <ele>134</ele>
        <time>2012-12-13T14:23:34Z</time>
      </trkpt>
      <trkpt lat="43.90343" lon="1.8918">
        <ele>134</ele>
        <time>2012-12-13T14:23:40Z</time>
      </trkpt>
      <trkpt lat="43.90347" lon="1.89187">
        <ele>135</ele>
        <time>2012-12-13T14:23:46Z</time>
      </trkpt>
      <trkpt lat="43.90352" lon="1.892">
        <ele>133</ele>
        <time>2012-12-13T14:23:55Z</time>
      </trkpt>
      <trkpt lat="43.90354" lon="1.89206">
        <ele>133</ele>
        <time>2012-12-13T14:23:59Z</time>
      </trkpt>
      <trkpt lat="43.90356" lon="1.89212">
        <ele>133</ele>
        <time>2012-12-13T14:24:03Z</time>
      </trkpt>
      <trkpt lat="43.90357" lon="1.8922">
        <ele>133</ele>
        <time>2012-12-13T14:24:09Z</time>
      </trkpt>
      <trkpt lat="43.90359" lon="1.89226">
        <ele>135</ele>
        <time>2012-12-13T14:24:13Z</time>
      </trkpt>
      <trkpt lat="43.90361" lon="1.89233">
        <ele>135</ele>
        <time>2012-12-13T14:24:18Z</time>
      </trkpt>
      <trkpt lat="43.90362" lon="1.8924">
        <ele>135</ele>
        <time>2012-12-13T14:24:23Z</time>
      </trkpt>
      <trkpt lat="43.90363" lon="1.89247">
        <ele>136</ele>
        <time>2012-12-13T14:24:27Z</time>
      </trkpt>
      <trkpt lat="43.90365" lon="1.89261">
        <ele>136</ele>
        <time>2012-12-13T14:24:36Z</time>
      </trkpt>
      <trkpt lat="43.9037" lon="1.89272">
        <ele>135</ele>
        <time>2012-12-13T14:24:44Z</time>
      </trkpt>
      <trkpt lat="43.90374" lon="1.89282">
        <ele>134</ele>
        <time>2012-12-13T14:24:51Z</time>
      </trkpt>
      <trkpt lat="43.90378" lon="1.89294">
        <ele>133</ele>
        <time>2012-12-13T14:25:03Z</time>
      </trkpt>
      <trkpt lat="43.90381" lon="1.893">
        <ele>133</ele>
        <time>2012-12-13T14:25:07Z</time>
      </trkpt>
      <trkpt lat="43.90388" lon="1.8931">
        <ele>135</ele>
        <time>2012-12-13T14:25:15Z</time>
      </trkpt>
      <trkpt lat="43.90397" lon="1.89317">
        <ele>137</ele>
        <time>2012-12-13T14:25:25Z</time>
      </trkpt>
      <trkpt lat="43.90407" lon="1.89324">
        <ele>139</ele>
        <time>2012-12-13T14:25:37Z</time>
      </trkpt>
      <trkpt lat="43.90416" lon="1.89323">
        <ele>137</ele>
        <time>2012-12-13T14:25:47Z</time>
      </trkpt>
      <trkpt lat="43.90421" lon="1.89321">
        <ele>135</ele>
        <time>2012-12-13T14:25:51Z</time>
      </trkpt>
      <trkpt lat="43.9043" lon="1.89318">
        <ele>133</ele>
        <time>2012-12-13T14:25:59Z</time>
      </trkpt>
      <trkpt lat="43.90439" lon="1.89312">
        <ele>132</ele>
        <time>2012-12-13T14:26:08Z</time>
      </trkpt>
      <trkpt lat="43.90448" lon="1.8931">
        <ele>132</ele>
        <time>2012-12-13T14:26:18Z</time>
      </trkpt>
      <trkpt lat="43.90457" lon="1.8931">
        <ele>133</ele>
        <time>2012-12-13T14:26:26Z</time>
      </trkpt>
      <trkpt lat="43.90465" lon="1.89304">
        <ele>134</ele>
        <time>2012-12-13T14:26:34Z</time>
      </trkpt>
      <trkpt lat="43.9047" lon="1.89303">
        <ele>131</ele>
        <time>2012-12-13T14:26:38Z</time>
      </trkpt>
      <trkpt lat="43.90481" lon="1.89306">
        <ele>132</ele>
        <time>2012-12-13T14:26:50Z</time>
      </trkpt>
      <trkpt lat="43.90486" lon="1.89316">
        <ele>131</ele>
        <time>2012-12-13T14:26:55Z</time>
      </trkpt>
      <trkpt lat="43.90488" lon="1.89331">
        <ele>131</ele>
        <time>2012-12-13T14:27:02Z</time>
      </trkpt>
      <trkpt lat="43.90489" lon="1.89337">
        <ele>132</ele>
        <time>2012-12-13T14:27:06Z</time>
      </trkpt>
      <trkpt lat="43.9049" lon="1.8935">
        <ele>135</ele>
        <time>2012-12-13T14:27:16Z</time>
      </trkpt>
      <trkpt lat="43.90489" lon="1.89363">
        <ele>136</ele>
        <time>2012-12-13T14:27:24Z</time>
      </trkpt>
      <trkpt lat="43.90489" lon="1.89376">
        <ele>137</ele>
        <time>2012-12-13T14:27:32Z</time>
      </trkpt>
      <trkpt lat="43.90487" lon="1.8939">
        <ele>137</ele>
        <time>2012-12-13T14:27:41Z</time>
      </trkpt>
      <trkpt lat="43.90489" lon="1.89402">
        <ele>134</ele>
        <time>2012-12-13T14:27:50Z</time>
      </trkpt>
      <trkpt lat="43.90492" lon="1.89415">
        <ele>133</ele>
        <time>2012-12-13T14:27:57Z</time>
      </trkpt>
      <trkpt lat="43.90492" lon="1.89428">
        <ele>133</ele>
        <time>2012-12-13T14:28:05Z</time>
      </trkpt>
      <trkpt lat="43.90493" lon="1.89442">
        <ele>134</ele>
        <time>2012-12-13T14:28:17Z</time>
      </trkpt>
      <trkpt lat="43.90489" lon="1.89456">
        <ele>135</ele>
        <time>2012-12-13T14:28:26Z</time>
      </trkpt>
      <trkpt lat="43.90489" lon="1.89467">
        <ele>135</ele>
        <time>2012-12-13T14:28:33Z</time>
      </trkpt>
      <trkpt lat="43.90489" lon="1.89474">
        <ele>135</ele>
        <time>2012-12-13T14:28:37Z</time>
      </trkpt>
      <trkpt lat="43.90491" lon="1.89487">
        <ele>134</ele>
        <time>2012-12-13T14:28:45Z</time>
      </trkpt>
      <trkpt lat="43.90488" lon="1.89526">
        <ele>134</ele>
        <time>2012-12-13T14:29:09Z</time>
      </trkpt>
      <trkpt lat="43.90483" lon="1.89562">
        <ele>136</ele>
        <time>2012-12-13T14:29:30Z</time>
      </trkpt>
      <trkpt lat="43.90481" lon="1.89579">
        <ele>135</ele>
        <time>2012-12-13T14:29:43Z</time>
      </trkpt>
      <trkpt lat="43.90476" lon="1.89591">
        <ele>137</ele>
        <time>2012-12-13T14:29:52Z</time>
      </trkpt>
      <trkpt lat="43.90467" lon="1.8959">
        <ele>137</ele>
        <time>2012-12-13T14:29:58Z</time>
      </trkpt>
      <trkpt lat="43.90458" lon="1.89589">
        <ele>135</ele>
        <time>2012-12-13T14:30:08Z</time>
      </trkpt>
      <trkpt lat="43.90448" lon="1.89591">
        <ele>136</ele>
        <time>2012-12-13T14:30:17Z</time>
      </trkpt>
      <trkpt lat="43.90439" lon="1.89589">
        <ele>138</ele>
        <time>2012-12-13T14:30:27Z</time>
      </trkpt>
      <trkpt lat="43.9043" lon="1.89587">
        <ele>139</ele>
        <time>2012-12-13T14:30:35Z</time>
      </trkpt>
      <trkpt lat="43.9042" lon="1.89586">
        <ele>138</ele>
        <time>2012-12-13T14:30:42Z</time>
      </trkpt>
      <trkpt lat="43.9041" lon="1.89586">
        <ele>135</ele>
        <time>2012-12-13T14:30:55Z</time>
      </trkpt>
      <trkpt lat="43.904" lon="1.89577">
        <ele>135</ele>
        <time>2012-12-13T14:31:07Z</time>
      </trkpt>
      <trkpt lat="43.90395" lon="1.89576">
        <ele>134</ele>
        <time>2012-12-13T14:31:35Z</time>
      </trkpt>
      <trkpt lat="43.90391" lon="1.89575">
        <ele>136</ele>
        <time>2012-12-13T14:31:46Z</time>
      </trkpt>
    </trkseg>
  </trk>
</gpx>